[[{"header":{"parameterUnit":"m.s-1","parameterCategory":1,"la1":30.6,"la2":28.766,"lo1":-90.7593,"lo2":-88.6598,"dy":0.0162,"dx":0.0183,"nx":116,"ny":114,"refTime":"2023-06-08T06:00:00:Z","depth":0,"parameterNumber":2,"parameterNumberName":"U-component_of_WINDS"},"data":[0.0,0.0,0.0,0.0,0.0,0.0,0.0,0.0,0.0,0.0,0.0,0.0,0.0,0.0,0.0,0.0,0.0,0.0,0.0,0.0,0.0,0.0,0.0,0.0,0.0,0.0,0.0,0.0,0.0,0.0,0.0,0.0,0.0,0.0,0.0,0.0,0.0,0.0,0.0,0.0,0.0,0.0,0.0,0.0,0.0,0.0,0.0,0.0,0.0,0.0,0.0,0.0,0.0,0.0,0.0,0.0,0.0,0.0,0.0,0.0,0.0,0.0,0.0,0.0,0.0,0.0,0.0,0.0,0.0,0.0,0.0,0.0,0.0,0.0,0.0,0.0,0.0,0.0,0.0,0.0,0.0,0.0,0.0,0.0,0.0,0.0,0.0,0.0,0.0,0.0,0.0,0.0,0.0,0.0,0.0,0.0,0.0,0.0,0.0,0.0,0.0,0.0,0.0,0.0,0.0,0.0,0.0,0.0,0.0,0.0,0.0,0.0,0.0,0.0,0.0,0.0,0.0,0.0,0.0,0.0,0.0,0.0,0.0,0.0,0.0,0.0,0.0,0.0,0.0,0.0,0.0,0.0,0.0,0.0,0.0,0.0,0.0,0.0,0.0,0.0,0.0,0.0,0.0,0.0,0.0,0.0,0.0,0.0,0.0,0.0,0.0,0.0,0.0,0.0,0.0,0.0,0.0,0.0,0.0,0.0,0.0,0.0,0.0,0.0,0.0,0.0,0.0,0.0,0.0,0.0,0.0,0.0,0.0,0.0,0.0,0.0,0.0,0.0,0.0,0.0,0.0,0.0,0.0,0.0,0.0,0.0,0.0,0.0,0.0,0.0,0.0,0.0,0.0,0.0,0.0,0.0,0.0,0.0,0.0,0.0,0.0,0.0,0.0,0.0,0.0,0.0,0.0,0.0,0.0,0.0,0.0,0.0,0.0,0.0,0.0,0.0,0.0,0.0,0.0,0.0,0.0,0.0,0.0,0.0,0.0,0.0,0.0,0.0,0.0,0.0,0.0,0.0,0.0,0.0,0.0,0.0,0.0,0.0,0.0,0.0,0.0,0.0,0.0,0.0,0.0,0.0,0.0,0.0,0.0,0.0,0.0,0.0,0.0,0.0,0.0,0.0,0.0,0.0,0.0,0.0,0.0,0.0,0.0,0.0,0.0,0.0,0.0,0.0,0.0,0.0,0.0,0.0,0.0,0.0,0.0,0.0,0.0,0.0,0.0,0.0,0.0,0.0,0.0,0.0,0.0,0.0,0.0,0.0,0.0,0.0,0.0,0.0,0.0,0.0,0.0,0.0,0.0,0.0,0.0,0.0,0.0,0.0,0.0,0.0,0.0,0.0,0.0,0.0,0.0,0.0,0.0,0.0,0.0,0.0,0.0,0.0,0.0,0.0,0.0,0.0,0.0,0.0,0.0,0.0,0.0,0.0,0.0,0.0,0.0,0.0,0.0,0.0,0.0,0.0,0.0,0.0,0.0,0.0,0.0,0.0,0.0,0.0,0.0,0.0,0.0,0.0,0.0,0.0,0.0,0.0,0.0,0.0,0.0,0.0,0.0,0.0,0.0,0.0,0.0,0.0,0.0,0.0,0.0,0.0,0.0,0.0,0.0,0.0,0.0,0.0,0.0,0.0,0.0,0.0,0.0,0.0,0.0,0.0,0.0,0.0,0.0,0.0,0.0,0.0,0.0,0.0,0.0,0.0,0.0,0.0,0.0,0.0,0.0,0.0,0.0,0.0,0.0,0.0,0.0,0.0,0.0,0.0,0.0,0.0,0.0,0.0,0.0,0.0,0.0,0.0,0.0,0.0,0.0,0.0,0.0,0.0,0.0,0.0,0.0,0.0,0.0,0.0,0.0,0.0,0.0,0.0,0.0,0.0,0.0,0.0,0.0,0.0,0.0,0.0,0.0,0.0,0.0,0.0,0.0,0.0,0.0,0.0,0.0,0.0,0.0,0.0,0.0,0.0,0.0,0.0,0.0,0.0,0.0,0.0,0.0,0.0,0.0,0.0,0.0,0.0,0.0,0.0,0.0,0.0,0.0,0.0,0.0,0.0,0.0,0.0,0.0,0.0,0.0,0.0,0.0,0.0,0.0,0.0,0.0,0.0,0.0,0.0,0.0,0.0,0.0,0.0,0.0,0.0,0.0,0.0,0.0,0.0,0.0,0.0,0.0,0.0,0.0,0.0,0.0,0.0,0.0,0.0,0.0,0.0,0.0,0.0,0.0,0.0,0.0,0.0,0.0,0.0,0.0,0.0,0.0,0.0,0.0,0.0,0.0,0.0,0.0,0.0,0.0,0.0,0.0,0.0,0.0,0.0,0.0,0.0,0.0,0.0,0.0,0.0,0.0,0.0,0.0,0.0,0.0,0.0,0.0,0.0,0.0,0.0,0.0,0.0,0.0,0.0,0.0,0.0,0.0,0.0,0.0,0.0,0.0,0.0,0.0,0.0,0.0,0.0,0.0,0.0,0.0,0.0,0.0,0.0,0.0,0.0,0.0,0.0,0.0,0.0,0.0,0.0,0.0,0.0,0.0,0.0,0.0,0.0,0.0,0.0,0.0,0.0,0.0,0.0,0.0,0.0,0.0,0.0,0.0,0.0,0.0,0.0,0.0,0.0,0.0,0.0,0.0,0.0,0.0,0.0,0.0,0.0,0.0,0.0,0.0,0.0,0.0,0.0,0.0,0.0,0.0,0.0,0.0,0.0,0.0,0.0,0.0,0.0,0.0,0.0,0.0,0.0,0.0,0.0,0.0,0.0,0.0,0.0,0.0,0.0,0.0,0.0,0.0,0.0,0.0,0.0,0.0,0.0,0.0,0.0,0.0,0.0,0.0,0.0,0.0,0.0,0.0,0.0,0.0,0.0,0.0,0.0,0.0,0.0,0.0,0.0,0.0,0.0,0.0,0.0,0.0,0.0,0.0,0.0,0.0,0.0,0.0,0.0,0.0,0.0,0.0,0.0,0.0,0.0,0.0,0.0,0.0,0.0,0.0,0.0,0.0,0.0,0.0,0.0,0.0,0.0,0.0,0.0,0.0,0.0,0.0,0.0,0.0,0.0,0.0,0.0,0.0,0.0,0.0,0.0,0.0,0.0,0.0,0.0,0.0,0.0,0.0,0.0,0.0,0.0,0.0,0.0,0.0,0.0,0.0,0.0,0.0,0.0,0.0,0.0,0.0,0.0,0.0,0.0,0.0,0.0,0.0,0.0,0.0,0.0,0.0,0.0,0.0,0.0,0.0,0.0,0.0,0.0,0.0,0.0,0.0,0.0,0.0,0.0,0.0,0.0,0.0,0.0,0.0,0.0,0.0,0.0,0.0,0.0,0.0,0.0,0.0,0.0,0.0,0.0,0.0,0.0,0.0,0.0,0.0,0.0,0.0,0.0,0.0,0.0,0.0,0.0,0.0,0.0,0.0,0.0,0.0,0.0,0.0,0.0,0.0,0.0,0.0,0.0,0.0,0.0,0.0,0.0,0.0,0.0,0.0,0.0,0.0,0.0,0.0,0.0,0.0,0.0,0.0,0.0,0.0,0.0,0.0,0.0,0.0,0.0,0.0,0.0,0.0,0.0,0.0,0.0,0.0,0.0,0.0,0.0,0.0,0.0,0.0,0.0,0.0,0.0,0.0,0.0,0.0,0.0,0.0,0.0,0.0,0.0,0.0,0.0,0.0,0.0,0.0,0.0,0.0,0.0,0.0,0.0,0.0,0.0,0.0,0.0,0.0,0.0,0.0,0.0,0.0,0.0,0.0,0.0,0.0,0.0,0.0,0.0,0.0,0.0,0.0,0.0,0.0,0.0,0.0,0.0,0.0,0.0,0.0,0.0,0.0,0.0,0.0,0.0,0.0,0.0,0.0,0.0,0.0,0.0,0.0,0.0,0.0,0.0,0.0,0.0,0.0,0.0,0.0,0.0,0.0,0.0,0.0,0.0,0.0,0.0,0.0,0.0,0.0,0.0,0.0,0.0,0.0,0.0,0.0,0.0,0.0,0.0,0.0,0.0,0.0,0.0,0.0,0.0,0.0,0.0,0.0,0.0,0.0,0.0,0.0,0.0,0.0,0.0,0.0,0.0,0.0,0.0,0.0,0.0,0.0,0.0,0.0,0.0,0.0,0.0,0.0,0.0,0.0,0.0,0.0,0.0,0.0,0.0,0.0,0.0,0.0,0.0,0.0,0.0,0.0,0.0,0.0,0.0,0.0,0.0,0.0,0.0,0.0,0.0,0.0,0.0,0.0,0.0,0.0,0.0,0.0,0.0,0.0,0.0,0.0,0.0,0.0,0.0,0.0,0.0,0.0,0.0,0.0,0.0,0.0,0.0,0.0,0.0,0.0,0.0,0.0,0.0,0.0,0.0,0.0,0.0,0.0,0.0,0.0,0.0,0.0,0.0,0.0,0.0,0.0,0.0,0.0,0.0,0.0,0.0,0.0,0.0,0.0,0.0,0.0,0.0,0.0,0.0,0.0,0.0,0.0,0.0,0.0,0.0,0.0,0.0,0.0,0.0,0.0,0.0,0.0,0.0,0.0,0.0,0.0,0.0,0.0,0.0,0.0,0.0,0.0,0.0,0.0,0.0,0.0,0.0,0.0,0.0,0.0,0.0,0.0,0.0,0.0,0.0,0.0,0.0,0.0,0.0,0.0,0.0,0.0,0.0,0.0,0.0,0.0,0.0,0.0,0.0,0.0,0.0,0.0,0.0,0.0,0.0,0.0,0.0,0.0,0.0,0.0,0.0,0.0,0.0,0.0,0.0,0.0,0.0,0.0,0.0,0.0,0.0,0.0,0.0,0.0,0.0,0.0,0.0,0.0,0.0,0.0,0.0,0.0,0.0,0.0,0.0,0.0,0.0,0.0,0.0,0.0,0.0,0.0,0.0,0.0,0.0,0.0,0.0,0.0,0.0,0.0,0.0,0.0,0.0,0.0,0.0,0.0,0.0,0.0,0.0,0.0,0.0,0.0,0.0,0.0,0.0,0.0,0.0,0.0,0.0,0.0,0.0,0.0,0.0,0.0,0.0,0.0,0.0,0.0,0.0,0.0,0.0,0.0,0.0,0.0,0.0,0.0,0.0,0.0,0.0,0.0,0.0,0.0,0.0,0.0,0.0,0.0,0.0,0.0,0.0,0.0,0.0,0.0,0.0,0.0,0.0,0.0,0.0,0.0,0.0,0.0,0.0,0.0,0.0,0.0,0.0,0.0,0.0,0.0,0.0,0.0,0.0,0.0,0.0,0.0,0.0,0.0,0.0,0.0,0.0,0.0,0.0,0.0,0.0,0.0,0.0,0.0,0.0,0.0,0.0,0.0,0.0,0.0,0.0,0.0,0.0,0.0,0.0,0.0,0.0,0.0,0.0,0.0,0.0,0.0,0.0,0.0,0.0,0.0,0.0,0.0,0.0,0.0,0.0,0.0,0.0,0.0,0.0,0.0,0.0,0.0,0.0,0.0,0.0,0.0,0.0,0.0,0.0,0.0,0.0,0.0,0.0,0.0,0.0,0.0,0.0,0.0,0.0,0.0,0.0,0.0,0.0,0.0,0.0,0.0,0.0,0.0,0.0,0.0,0.0,0.0,0.0,0.0,0.0,0.0,0.0,0.0,0.0,0.0,0.0,0.0,0.0,0.0,0.0,0.0,0.0,0.0,0.0,0.0,0.0,0.0,0.0,0.0,0.0,0.0,0.0,0.0,0.0,0.0,0.0,0.0,0.0,0.0,0.0,0.0,0.0,0.0,0.0,0.0,0.0,0.0,0.0,0.0,0.0,0.0,0.0,0.0,0.0,0.0,0.0,0.0,0.0,0.0,0.0,0.0,0.0,0.0,0.0,0.0,0.0,0.0,0.0,0.0,0.0,0.0,0.0,0.0,0.0,0.0,0.0,0.0,0.0,0.0,0.0,0.0,0.0,0.0,0.0,0.0,0.0,0.0,0.0,0.0,0.0,0.0,0.0,0.0,0.0,0.0,0.0,0.0,0.0,0.0,0.0,0.0,0.0,0.0,0.0,0.0,0.0,0.0,0.0,0.0,0.0,0.0,0.0,0.0,0.0,0.0,0.0,0.0,0.0,0.0,0.0,0.0,0.0,0.8146,0.0,0.0,0.0,0.0,0.0,0.0,0.0,0.0,0.0,0.0,0.0,0.0,0.0,0.0,0.0,0.0,0.0,0.0,0.0,0.0,0.0,0.0,0.0,0.0,0.0,0.0,0.0,0.0,0.0,0.0,0.0,0.0,0.0,0.0,0.0,0.0,0.0,0.0,0.2603,0.3315,0.381,0.4083,0.4437,0.4187,0.3436,0.0,0.0,0.0,0.0,0.0,0.0,0.0,0.0,0.0,0.0,0.0,0.0,0.0,0.0,0.0,0.0,0.0,0.0,0.0,0.0,0.0,0.0,0.0,0.0,0.0,0.0,0.0,0.0,0.0,0.0,0.0,0.0,0.0,0.0,0.0,0.0,0.0,0.0,0.0,0.0,0.0,0.0,0.0,0.0,0.0,0.0,0.0,0.0,0.0,0.0,0.0,0.0,0.0,0.0,0.0,0.0,0.0,0.0,0.0,0.0,0.0,0.0,0.0,0.0,0.0,0.0,0.0,0.0,0.0,0.0,0.0,0.9201,0.0,0.0,0.0,0.0,0.0,0.0,0.0,0.0,0.0,0.0,0.0,0.0,0.0,0.0,0.0,0.0,0.0,0.0,0.0,0.0,0.0,0.0,0.0,-0.284,-0.2787,-0.2649,-0.2673,-0.2723,0.0,0.0,0.0,0.0,0.0,0.0,0.0,0.1744,0.25,0.2618,0.3392,0.3978,0.4367,0.4664,0.4447,0.3707,0.3064,0.0,0.0,0.0,0.0,0.0,0.0,0.0,0.0,0.0,0.0,0.0,0.0,0.0,0.0,0.0,0.0,0.0,0.0,0.0,0.0,0.0,0.0,0.0,0.0,0.0,0.0,0.0,0.0,0.0,0.0,0.0,0.0,0.0,0.0,0.0,0.0,0.0,0.0,0.0,0.0,0.0,0.0,0.0,0.0,0.0,0.0,0.0,0.0,0.0,0.0,0.0,0.0,0.0,0.0,0.0,0.0,0.0,0.0,0.0,0.0,0.0,0.0,0.0,0.0,1.231,1.2625,1.2875,1.3014,1.3135,1.1738,1.0911,1.0537,0.0,0.0,0.0,0.0,0.0,0.0,0.0,0.0,0.0,0.0,0.0,0.0,0.0,0.0,0.0,0.0,0.0,0.0,0.0,0.0,0.0,0.0,-0.3033,-0.3047,-0.3192,-0.2958,-0.2727,-0.2531,0.0,0.0,0.0,0.0,0.0,0.0881,0.1656,0.2391,0.31,0.4014,0.4529,0.4658,0.5091,0.496,0.4343,0.3752,0.3116,0.2546,0.0,0.0,0.0,0.0,0.0,0.0,0.0,0.0,0.0,0.0,0.0,0.0,0.0,0.0,0.0,0.0,0.0,0.0,0.0,0.0,0.0,0.0,0.0,0.0,0.0,0.0,0.0,0.0,0.0,0.0,0.0,0.0,0.0,0.0,0.0,0.0,0.0,0.0,0.0,0.0,0.0,0.7997,0.7542,0.0,0.0,0.0,0.0,0.0,0.0,0.0,0.0,0.0,0.0,0.0,0.0,0.0,0.0,1.212,1.2549,1.2934,1.3173,1.3039,1.3077,1.3118,1.3151,1.3306,1.3521,1.3381,0.0,1.2342,1.1642,0.0,0.0,0.0,0.0,0.0,0.0,0.0,0.0,0.0,0.0,0.0,0.0,0.0,0.0,0.0,0.0,0.0,0.0,0.0,0.0,0.0,-0.3227,-0.3252,-0.3342,-0.3361,-0.3125,-0.2534,-0.2565,0.0,0.0,0.0,0.0115,0.1134,0.1888,0.2808,0.3937,0.4466,0.479,0.4934,0.5326,0.5385,0.5118,0.5597,0.521,0.4264,0.4673,0.0,0.0,0.0,0.0,0.0,0.0,0.0,0.0,0.0,0.0,0.0,0.0,0.0,0.0,0.0,0.0,0.0,0.0,0.0,0.0,0.0,0.0,0.0,0.0,0.0,0.0,0.0,0.0,0.0,0.0,0.0,0.0,0.0,0.0,0.0,0.0,0.0,0.0,0.0,0.7954,0.8627,0.874,0.8795,0.8354,0.0,0.0,0.0,0.0,0.0,0.0,0.0,0.0,0.0,1.1988,1.2263,1.2611,1.2966,1.3263,1.3635,1.4142,1.4342,1.4616,1.4937,1.5104,1.5244,1.5357,1.5413,1.492,1.4142,1.3372,1.2804,1.2304,0.0,0.0,0.0,0.0,0.0,1.0269,0.0,0.0,0.0,0.0,0.0,0.0,0.0,0.0,0.0,0.0,0.0,0.0,-0.3445,-0.3483,-0.3602,-0.3753,-0.384,-0.3593,-0.2882,-0.2978,-0.2403,-0.0994,-0.0695,-0.0041,0.1114,0.2245,0.3339,0.4459,0.4814,0.5013,0.5173,0.5616,0.5779,0.5892,0.7135,0.698,0.5901,0.6646,0.6635,0.602,0.0,0.0,0.0,0.0,0.0,0.0,0.0,0.0,0.0,0.0,0.0,0.0,0.0,0.0,0.0,0.0,0.0,0.0,0.0,0.0,0.0,0.0,0.0,0.0,0.0,0.0,0.0,0.0,0.0,0.0,0.0,0.0,0.0,0.0,0.0,0.0,0.0,0.8281,0.9199,0.9667,0.9729,0.9481,0.0,0.0,0.0,0.0,0.0,0.0,1.206,1.2262,1.2702,1.3618,1.3622,1.3681,1.3988,1.4282,1.4649,1.5084,1.5524,1.5959,1.6393,1.6607,1.6707,1.6707,1.6707,1.6333,1.5645,1.4804,1.4041,1.3534,1.3205,1.27,1.2104,1.2311,1.2125,1.1864,0.0,0.0,0.0,0.0,0.0,0.0,0.0,0.0,0.0,0.0,0.0,-0.3421,-0.372,-0.3893,-0.4191,-0.4757,-0.4371,-0.3996,-0.3862,-0.2862,-0.2266,-0.2313,-0.0862,0.0181,0.0707,0.2617,0.3872,0.4311,0.5044,0.5406,0.5405,0.6002,0.6379,0.6596,0.7712,0.7753,0.7042,0.7471,0.7475,0.7083,0.5654,0.0,0.0,0.0,0.0,0.0,0.0,0.0,0.0,0.0,0.0,0.0,0.0,0.0,0.0,0.0,0.0,0.0,0.0,0.0,0.0,0.0,0.0,0.0,0.0,0.0,0.0,0.0,0.0,0.0,0.0,0.0,0.0,0.0,0.0,0.0,0.0,0.0,0.0,0.9735,1.1441,0.0,0.0,0.0,0.0,1.0858,1.1257,1.2065,1.3209,1.3527,1.4102,1.4912,1.5384,1.5818,1.6119,1.6406,1.6567,1.6593,1.6627,1.6653,1.6687,1.67,1.6707,1.6707,1.6707,1.668,1.6573,1.5671,1.497,1.4429,1.3894,1.3762,1.3723,1.3736,1.3566,1.3362,0.0,0.0,0.0,0.0,0.0,0.0,0.0,0.0,-0.4248,-0.389,-0.3991,-0.4081,-0.4117,-0.4469,-0.4851,-0.5108,-0.5047,-0.4655,-0.4056,-0.3945,-0.332,-0.2003,-0.0988,0.0403,0.2186,0.3525,0.4575,0.5411,0.581,0.6091,0.6225,0.6602,0.6854,0.6997,0.8296,0.8706,0.8242,0.8401,0.7947,0.6999,0.6164,0.5695,0.0,0.0,0.0,0.0,0.0,0.0,0.0,0.0,0.0,0.0,0.0,0.0,0.0,0.0,0.0,0.0,0.0,0.0,0.0,0.0,0.0,0.0,0.0,0.0,0.0,0.0,0.0,0.0,0.0,0.0,0.0,0.0,0.0,0.0,0.0,0.0,0.0,1.0081,1.1727,0.0,0.0,1.1957,1.2159,1.2054,1.313,1.4183,1.4856,1.5261,1.5658,1.6066,1.6473,1.6727,1.6834,1.6941,1.7088,1.7268,1.7081,1.7088,1.7268,1.7268,1.7268,1.7268,1.7268,1.7161,1.6967,1.6653,1.6179,1.5618,1.5232,1.5113,1.5139,1.5332,1.5338,1.5265,0.0,0.0,0.0,0.0,0.0,0.0,0.0,0.0,-0.4513,-0.4156,-0.4415,-0.4565,-0.4523,-0.5033,-0.5442,-0.5627,-0.5535,-0.52,-0.4577,-0.4433,-0.3727,-0.2403,-0.1117,0.0607,0.2862,0.3906,0.4873,0.5812,0.6247,0.6468,0.6541,0.687,0.7101,0.7431,0.8321,0.866,0.8428,0.8458,0.8151,0.7636,0.6792,0.6371,0.613,0.0,0.0,0.0,0.0,0.0,0.0,0.0,0.0,0.0,0.0,0.0,0.0,0.0,0.0,0.0,0.0,0.0,0.0,0.0,0.0,0.0,0.0,0.0,0.0,0.0,0.0,0.0,0.0,0.0,0.0,0.0,0.0,0.0,0.0,0.0,1.0679,1.0605,1.1705,1.2733,1.3332,1.32,1.3139,1.3147,1.4366,1.5074,1.4914,1.5208,1.5427,1.5688,1.587,1.6068,1.6068,1.5982,1.6249,1.6964,1.6682,1.6644,1.6823,1.7364,1.7041,1.6174,1.6605,1.6504,1.5909,1.6437,1.633,1.5959,1.6077,1.6126,1.6146,1.6346,1.642,1.6406,0.0,0.0,0.0,0.0,0.0,0.0,0.0,-0.5029,-0.4701,-0.433,-0.4626,-0.4882,-0.5024,-0.5477,-0.5932,-0.624,-0.5847,-0.5521,-0.5382,-0.4148,-0.3479,-0.3531,-0.1307,0.0778,0.2484,0.3777,0.4699,0.5294,0.6207,0.6502,0.6204,0.6523,0.7028,0.7827,0.7597,0.7472,0.7472,0.7472,0.8102,0.9036,0.7484,0.7148,0.7446,0.0,0.0,0.0,0.0,0.0,0.0,0.0,0.0,0.0,0.0,0.0,0.0,0.0,0.0,0.0,0.0,0.0,0.0,0.0,0.0,0.0,0.0,0.0,0.0,0.0,0.0,0.0,0.0,0.0,0.0,0.0,0.0,0.0,0.6627,0.8648,1.0469,1.1148,1.1392,1.2662,1.5382,1.4753,1.4119,1.427,1.4849,1.4575,1.3372,1.3271,1.3476,1.3685,1.3695,1.37,1.37,1.3613,1.4288,1.5615,1.5462,1.5334,1.5441,1.6849,1.598,1.3383,1.4781,1.4567,1.3372,1.477,1.531,1.5476,1.633,1.6734,1.6734,1.6734,1.6727,1.668,0.0,0.0,0.0,0.0,0.0,0.0,0.0,-0.5375,-0.5221,-0.4536,-0.5038,-0.5419,-0.5325,-0.5701,-0.6088,-0.6386,-0.5806,-0.543,-0.5393,-0.443,-0.3414,-0.2545,-0.1475,-0.0327,0.1001,0.2229,0.311,0.3716,0.3993,0.418,0.436,0.445,0.46,0.482,0.4912,0.4952,0.4952,0.4952,0.5176,0.5591,0.6922,0.7144,0.6587,0.0,0.0,0.0,0.0,0.0,0.0,0.0,0.0,0.0,0.0,0.0,0.0,0.0,0.0,0.0,0.0,0.0,0.0,0.0,0.0,0.0,0.0,0.0,0.0,0.0,0.0,0.0,0.0,0.0,0.0,0.0,0.0,0.8038,0.7623,0.935,1.0627,1.0502,1.1676,1.273,1.3404,1.3535,1.3578,1.3532,1.3914,1.3989,1.36,1.36,1.363,1.369,1.3964,1.4044,1.4044,1.3989,1.4188,1.4645,1.4296,1.4187,1.4181,1.4627,1.432,1.3512,1.3842,1.3744,1.3372,1.3696,1.3911,1.4116,1.6441,1.7341,1.7341,1.7341,1.7208,1.7014,0.0,0.0,0.0,0.0,0.0,0.0,0.0,-0.5567,-0.549,-0.5155,-0.5478,-0.5798,-0.5944,-0.6071,-0.6169,-0.6278,-0.5922,-0.5447,-0.4959,-0.4317,-0.3663,-0.2918,-0.1863,-0.0814,0.024,0.0922,0.1493,0.1837,0.1764,0.1879,0.2092,0.2134,0.2056,0.2056,0.2295,0.2932,0.3975,0.3975,0.3993,0.4108,0.556,0.5772,0.5283,0.4941,0.4841,0.4919,0.4628,0.5369,0.6511,0.6847,0.0,0.0,0.0,0.0,0.0,0.0,0.0,0.0,0.0,0.0,0.0,0.0,0.0,0.0,0.0,0.0,0.0,0.0,0.0,0.0,0.0,0.0,0.0,0.0,0.8041,0.843,0.8524,0.9392,1.0199,1.0586,1.1084,1.1842,1.293,1.2888,1.2743,1.2629,1.2929,1.2812,1.2112,1.2077,1.2081,1.2117,1.2302,1.2362,1.2399,1.2321,1.2633,1.3208,1.2887,1.2785,1.2785,1.3468,1.2951,0.0,1.2397,1.2329,1.1663,1.2234,1.2416,0.0,0.0,0.0,0.0,0.0,1.7075,1.6304,0.0,0.0,0.0,0.0,0.0,0.0,0.0,-0.5652,-0.5734,-0.5973,-0.5967,-0.6171,-0.6693,-0.6557,-0.6342,-0.6084,-0.6139,-0.5568,-0.4359,-0.4278,-0.4209,-0.4179,-0.28,-0.1584,-0.0436,-0.0455,-0.047,-0.0478,-0.0479,-0.0479,-0.048,-0.0098,-0.0,-0.0,-0.0,0.133,0.3538,0.3545,0.3581,0.3526,0.3526,0.3549,0.3521,0.297,0.2944,0.3202,0.287,0.3803,0.5364,0.6649,0.0,0.0,0.0,0.0,0.0,0.0,0.0,0.0,0.0,0.0,0.0,0.0,0.0,0.0,0.0,0.0,0.0,0.0,0.0,0.0,0.0,0.0,0.0,0.0,0.8613,0.8958,0.9411,0.9235,0.9567,1.1005,1.0159,1.0492,1.3002,1.2359,1.1773,1.168,1.1811,1.1296,0.9869,0.0,0.0,0.0,0.0,1.0012,0.9873,0.9747,1.0394,1.1684,1.1378,1.1289,1.1401,1.2634,1.1821,0.9521,1.0774,1.0536,0.9483,1.0556,1.1135,1.1543,1.4202,1.5204,1.531,1.6611,1.6132,0.0,0.0,0.0,0.0,0.0,0.0,0.0,0.0,-0.6102,-0.6292,-0.6197,-0.6548,-0.6934,-0.7147,-0.725,-0.7117,-0.6746,-0.6392,-0.5804,-0.5,-0.55,-0.5837,-0.5827,-0.643,-0.56,-0.3275,-0.3222,-0.3198,-0.321,-0.3257,-0.318,-0.318,-0.0998,-0.0,-0.0,-0.0,0.0311,0.0728,0.0738,0.0744,0.0747,0.0747,0.0732,0.0808,0.0679,0.0659,0.0735,0.0608,0.0791,0.1355,0.3096,0.4157,0.4834,0.4613,0.599,0.0,0.0,0.0,0.0,0.0,0.0,0.0,0.0,0.0,0.0,0.0,0.0,0.0,0.0,0.0,0.0,0.0,0.0,0.0,0.8699,0.9161,0.9487,0.969,0.99,1.006,1.007,0.9947,1.0162,1.0641,1.0548,1.038,1.0635,1.055,1.0305,1.0185,1.01,0.0,1.0188,1.0219,1.0222,1.0192,1.0164,1.0273,1.0642,0.0,0.0,1.0274,1.0507,1.0144,0.9564,0.9797,0.9724,0.9371,0.9553,1.0189,1.1261,1.3063,1.3696,1.3696,1.4019,1.3885,1.3628,0.0,0.0,0.0,0.0,0.0,0.0,0.0,-0.6383,-0.6699,-0.6955,-0.7141,-0.7362,-0.7777,-0.7591,-0.7255,-0.6846,-0.5942,-0.5494,-0.5709,-0.583,-0.62,-0.6709,-0.7471,-0.7227,-0.6075,-0.616,-0.6124,-0.5965,-0.5972,-0.5997,-0.5942,-0.463,-0.3317,-0.201,-0.2154,-0.1457,-0.0,-0.0,-0.0,-0.0,-0.0,-0.0,-0.0,-0.0,-0.0,-0.0,-0.0,-0.0,0.0097,0.1083,0.1617,0.1994,0.1966,0.2851,0.438,0.0,0.0,0.0,0.0,0.0,0.0,0.0,0.0,0.0,0.0,0.0,0.0,0.0,0.0,0.8045,0.0,0.0,0.8967,0.9373,0.9567,0.9819,1.0117,1.029,1.0304,1.0076,1.012,1.0164,1.0164,1.0164,1.0198,1.0276,1.0209,1.0198,1.0276,1.0273,1.0273,1.028,1.0348,1.0351,1.028,1.028,1.028,1.028,1.0202,1.0124,1.0046,0.9971,0.9852,0.9717,0.9717,0.9673,0.9591,0.9442,0.9745,1.0265,1.0949,1.2055,1.3264,1.3264,1.2837,1.2186,0.0,0.0,0.0,0.0,0.0,0.0,0.0,-0.6653,-0.6998,-0.7716,-0.7573,-0.7664,-0.8419,-0.796,-0.7384,-0.6889,-0.5822,-0.567,-0.6708,-0.6293,-0.6495,-0.7596,-0.7756,-0.7841,-0.7965,-0.8302,-0.8326,-0.8026,-0.8014,-0.8011,-0.8026,-0.8029,-0.6891,-0.4851,-0.5171,-0.4001,-0.171,-0.1087,-0.0884,-0.0784,-0.0224,-0.0,-0.0,-0.0,-0.0,-0.0,-0.0,0.0704,0.1493,0.0389,-0.0,-0.0,-0.0,-0.0,0.1083,0.6756,0.8327,0.0,0.0,0.0,0.0,0.0,0.0,0.0,0.0,0.0,0.7944,0.8291,0.8572,0.881,0.9131,0.9324,0.9534,1.006,1.0035,1.008,1.0439,1.0517,1.0493,1.0378,1.0341,1.0334,1.0365,1.0337,1.0334,1.0365,1.0337,1.0334,1.0365,1.0446,1.0453,1.0368,1.0477,1.048,1.0368,1.0368,1.0368,1.0365,1.0334,1.0256,1.0131,1.0076,0.9981,0.9863,0.9832,0.9805,0.9771,0.9656,0.952,0.9367,0.9245,1.0548,1.2455,1.2417,1.1647,1.0676,0.0,0.0,0.0,0.0,0.0,0.0,0.0,0.0,-0.7184,-0.7743,-0.775,-0.8023,-0.8769,-0.8663,-0.8199,-0.7306,-0.7095,-0.7413,-0.8268,-0.7811,-0.8166,-0.9481,-0.8496,-0.8024,-0.8041,-0.8062,-0.813,-0.8252,-0.813,-0.8133,-0.8252,-0.8262,-0.8057,-0.7856,-0.7937,-0.7963,-0.7765,-0.5095,-0.4016,-0.3799,-0.1117,-0.0,-0.0,-0.0,-0.0,-0.0,-0.0,0.3361,0.6975,0.1788,-0.0,-0.0,-0.0,-0.0,0.1254,0.7522,0.9316,0.9181,0.8362,0.8158,0.828,0.8585,0.8546,0.8491,0.0,0.0,0.8769,0.88,0.9005,0.9175,0.9349,0.9555,0.9851,1.004,1.0212,1.0432,1.0483,1.0609,1.0687,1.0673,1.0551,1.0521,1.066,1.0548,1.0524,1.066,1.0544,1.0527,1.0663,1.0558,1.0548,1.0666,1.0687,1.0687,1.067,1.067,1.067,1.067,1.0534,1.046,1.0432,1.0171,1.0039,1.0015,0.988,0.9747,0.9632,0.9615,0.952,0.9381,0.9361,0.9488,0.9669,0.9421,0.9261,0.9154,0.0,0.0,0.0,0.0,0.0,0.0,0.0,0.0,0.0,-0.7974,-0.8136,-0.8355,-0.8673,-0.838,-0.7973,-0.7558,-0.7435,-0.7799,-0.8667,-0.8923,-0.9531,-1.0631,-0.9744,-0.9118,-0.9118,-0.8524,-0.8163,-0.8136,-0.8163,-0.816,-0.814,-0.8235,-0.8279,-0.8292,-0.8491,-0.8635,-0.8659,-0.7564,-0.7059,-0.6953,-0.5712,-0.31,-0.0,-0.0,-0.0,0.04,0.3783,0.6319,0.0,0.5746,0.2843,0.0467,0.341,0.441,0.4936,0.7699,0.8521,0.8373,0.7842,0.8018,0.8347,0.8209,0.8442,0.8727,0.8916,0.8915,0.8973,0.9195,0.9442,0.9588,0.9741,1.0012,1.0232,0.0,1.0487,1.0626,1.0626,1.0602,1.0558,1.0473,1.0409,1.0463,1.0697,1.0582,1.0555,1.0707,1.066,1.0653,1.0717,1.066,1.0653,1.0717,1.0721,1.0721,1.0721,1.0721,1.0721,1.0721,1.0656,1.0578,1.0487,1.0361,1.0212,1.0039,0.9886,0.9788,0.9734,0.9734,0.9693,0.9629,0.9547,0.9473,0.9391,0.915,0.9011,0.894,0.0,0.0,0.0,0.0,0.0,0.0,0.0,0.0,0.0,0.0,-0.8316,-0.8385,-0.8502,-0.8145,-0.7866,-0.778,-0.7792,-0.8184,-0.9144,-0.9622,-1.0341,-1.1505,-1.0773,-1.0347,-1.04,-0.9713,-0.9268,-0.9183,-0.891,-0.8708,-0.8592,-0.8459,-0.833,-0.834,-0.8598,-0.8743,-0.8692,-0.8806,-0.8863,-0.8876,-0.8846,-0.6282,-0.2155,-0.0627,0.0398,0.1704,0.6503,0.7912,0.7595,0.7923,0.5051,0.1958,0.5235,0.6277,0.6433,0.7267,0.7612,0.7575,0.7342,0.7648,0.8082,0.777,0.8297,0.8758,0.8759,0.8894,0.9215,0.966,0.9834,0.9938,1.0175,1.0405,1.0561,1.051,1.0633,1.0727,1.0721,1.0555,1.0395,1.0293,1.0171,1.0212,1.0507,1.0473,1.0493,1.0646,1.0656,1.0677,1.0717,1.0721,1.0721,1.0721,1.0721,1.0721,1.0721,1.0721,1.0721,1.0721,1.0721,1.0639,1.0487,1.0405,1.0229,0.9981,0.9869,0.9822,0.9822,0.9822,0.9822,0.9812,0.9707,0.9646,0.9585,0.9361,0.9157,0.8991,0.0,0.0,0.0,0.0,0.0,0.0,0.0,0.0,0.0,0.0,0.0,0.0,0.0,-0.8427,-0.8358,-0.8017,-0.83,-0.9023,-1.0246,-0.9803,-1.0253,-1.1963,-1.1415,-1.1203,-1.1412,-1.1646,-1.186,-1.2059,-1.0759,-1.0159,-1.0155,-0.9017,-0.8476,-0.8482,-0.8638,-0.8794,-0.8933,-0.8937,-0.894,-0.8933,-0.8941,-0.8572,-0.7497,-0.2063,0.1506,0.3977,0.6552,0.7541,0.7367,0.6668,0.5742,0.4632,0.3669,0.3326,0.3804,0.6201,0.7024,0.7106,0.6962,0.7165,0.751,0.7688,0.8191,0.8546,0.8868,0.9123,0.95,1.0191,1.0283,1.0421,1.0695,1.0694,1.0738,1.0689,1.0656,1.0744,1.0724,1.047,1.0287,1.028,0.9897,0.9744,0.0,1.0202,1.0344,1.0487,1.05,1.0565,1.0711,1.0721,1.0721,1.0721,1.0721,1.0721,1.0721,1.0721,1.0721,1.0721,1.0721,1.0639,1.048,1.0195,0.9978,0.9829,0.9822,0.9822,0.9822,0.9822,0.9822,0.9822,0.9815,0.973,0.9608,0.9598,0.9405,0.9127,0.0,0.0,0.0,0.0,0.0,0.0,0.0,0.0,0.0,0.0,0.0,0.0,0.0,0.0,0.0,0.0,-0.828,-0.8803,-0.9624,-1.0359,-1.1093,-1.1924,-1.1803,-1.1839,-1.1921,-1.1729,-1.1652,-1.1727,-1.1487,-1.1363,-1.1269,-1.0171,-0.965,-0.9556,-0.8905,-0.8587,-0.8635,-0.8635,-0.8635,-0.8615,-0.8384,-0.6272,-0.3139,-0.2476,0.009,0.3547,0.0,0.6713,0.6935,0.6541,0.5965,0.5416,0.501,0.4888,0.5156,0.6651,0.7226,0.7491,0.8001,0.6789,0.5012,0.3095,0.4059,0.5682,0.6104,0.6302,0.6586,0.6947,0.6732,0.6493,0.6681,0.7467,0.8453,0.8919,0.8994,0.9371,1.0568,1.0578,1.0465,1.0015,0.993,0.0,0.0,0.0,0.0,1.0466,1.049,1.0558,1.0711,1.0721,1.0721,1.0721,1.0721,1.0721,1.0721,1.0721,1.0721,1.0717,1.0616,1.0541,1.048,1.0185,1.0022,0.9968,0.9866,0.9822,0.9822,0.9822,0.9768,0.969,0.9785,0.9734,0.9608,0.9608,0.9544,0.9435,0.0,0.0,0.0,0.0,0.0,0.0,0.0,0.0,0.0,0.0,0.0,0.0,0.0,0.0,0.0,0.0,0.0,-0.8233,-0.8938,-0.9706,-1.0419,-1.0934,-1.1168,-1.1329,-1.1346,-1.1242,-1.1126,-1.103,-1.1076,-1.1227,-1.1146,-1.0499,-1.0035,-0.978,-0.9011,-0.8526,-0.8319,-0.8265,-0.7929,-0.7283,-0.6926,-0.4452,-0.1049,-0.045,0.1023,0.0,0.4661,0.5616,0.6027,0.5952,0.5664,0.5219,0.4705,0.4607,0.5,0.6447,0.6973,0.7105,0.7707,0.6548,0.4302,0.0835,0.1238,0.2668,0.3021,0.3164,0.34,0.4381,0.3906,0.3568,0.3741,0.4609,0.5877,0.7245,0.7529,0.7733,0.8682,0.9942,1.0548,1.0156,0.9981,0.9876,0.0,0.0,0.0,1.031,1.0432,1.0534,1.0633,1.069,1.0721,1.0721,1.0721,1.0721,1.0721,1.0721,1.0721,1.0717,1.0514,1.0415,1.0405,1.0103,0.9968,0.9961,0.9863,0.9822,0.9822,0.9822,0.9768,0.9693,0.9785,0.9764,0.9686,0.9686,0.9686,0.9656,0.0,0.0,0.0,0.0,0.0,0.0,0.0,0.0,0.0,0.0,0.0,0.0,0.0,0.0,0.0,0.0,0.0,0.0,-0.829,-0.8132,-0.836,-0.9106,-0.9691,-0.999,-1.0081,-1.0373,-1.0344,-1.0054,-0.9985,-0.9888,-0.9898,-0.9921,-0.9549,-0.8995,-0.891,-0.854,-0.7851,-0.7714,-0.6678,-0.5202,-0.4549,-0.3339,-0.1406,0.3399,0.3905,0.2083,0.3544,0.4214,0.4538,0.4885,0.4755,0.4204,0.2651,0.2456,0.3351,0.5657,0.6186,0.597,0.6019,0.6062,0.509,0.1012,-0.0,-0.0,-0.0,0.0133,0.0648,0.2485,0.2185,0.1664,0.0,0.0,0.3191,0.5641,0.6048,0.585,0.5255,0.8025,1.0301,0.0,0.0,0.0,0.0,0.0,0.0,1.0063,0.0,1.0493,1.0504,1.0639,1.0721,1.0721,1.0721,1.0721,1.0721,1.0721,1.0721,1.0717,1.0422,1.028,1.027,0.9961,0.9822,0.9822,0.9822,0.9822,0.9822,0.9822,0.9819,0.9812,0.9819,0.9815,0.9812,0.9819,0.9822,0.9781,0.0,0.0,0.0,0.0,0.0,0.0,0.0,0.0,0.0,0.0,0.0,0.0,0.0,0.0,0.0,0.0,0.0,0.0,-0.7372,-0.7839,-0.8274,-0.8534,-0.9124,-0.9487,-0.9499,-0.998,-1.0089,-0.988,-1.0014,-1.0032,-0.9894,-0.8709,-0.8011,-0.7712,-0.6526,-0.6207,-0.6462,-0.5386,-0.4795,-0.4517,-0.3575,-0.1968,0.0082,0.1609,0.2856,0.3701,0.3596,0.3085,0.2504,0.3698,0.4089,0.3715,0.1959,0.2036,0.3147,0.5124,0.5962,0.5601,0.2457,0.1662,0.1364,0.0259,-0.0,-0.0,-0.0,0.1142,0.2325,0.2836,0.2583,0.2246,0.0,0.0,0.0,0.3232,0.3758,0.0,0.1579,0.2115,0.0,1.0101,0.0,1.0314,0.9876,1.0052,0.0,0.0,1.0402,1.0541,1.0656,1.07,1.0721,1.0721,1.0721,1.0721,1.0721,1.0721,1.0721,1.0717,1.0422,1.028,1.027,0.9961,0.9822,0.9822,0.9822,0.9822,0.9822,0.9822,0.9758,0.9676,0.9781,0.9754,0.9676,0.9781,0.9822,0.9812,0.0,0.0,0.0,0.0,0.0,0.0,0.0,0.0,0.0,0.0,0.0,0.0,0.0,0.0,0.0,0.0,0.0,0.0,0.0,-0.7354,-0.7536,-0.7589,-0.7946,-0.81,-0.7964,-0.8243,-0.8236,-0.7935,-0.8432,-0.8546,-0.8398,-0.7918,-0.739,-0.6777,-0.5919,-0.5427,-0.5192,-0.4706,-0.3862,0.0,0.0,-0.0761,0.1458,0.1694,0.2455,0.3365,0.3126,0.2071,0.0769,0.0796,0.0834,0.0955,0.1414,0.0955,0.0549,0.2504,0.4301,0.4928,0.1079,-0.0,-0.0,-0.0,-0.0,0.013,0.0505,0.1089,0.1836,0.2457,0.2546,0.2538,0.2435,0.2287,0.0,0.0,0.0,0.0,0.0257,-0.0,0.1457,0.0,0.7405,0.0,0.7933,0.8034,0.8212,0.0,0.9652,1.0633,1.0508,1.0714,1.0751,1.0734,1.0734,1.0731,1.0721,1.0721,1.0721,1.0717,1.0483,1.0341,1.0273,1.0032,0.9883,0.9822,0.0,0.9822,0.9822,0.9822,0.9774,0.971,0.9788,0.9771,0.971,0.9791,0.9822,0.9822,0.0,0.0,0.0,0.0,0.0,0.0,0.0,0.0,0.0,0.0,0.0,0.0,0.0,0.0,0.0,0.0,0.0,0.0,0.0,0.0,-0.6617,-0.6693,-0.6652,-0.6532,-0.6365,-0.618,-0.5932,-0.5596,-0.6261,-0.6468,-0.625,-0.6987,-0.6801,-0.5773,-0.5741,-0.5018,-0.3895,-0.4268,-0.2986,-0.0639,-0.0923,0.0284,0.2282,0.0,0.2358,0.2131,0.2071,0.095,-0.0843,-0.2683,-0.3185,-0.2497,0.0275,-0.0867,-0.3044,-0.1216,0.1715,0.365,0.0762,-0.0,-0.0,-0.0,-0.0,0.0254,0.1088,0.0687,0.0532,0.1792,0.2373,0.2511,0.2238,0.1956,0.1692,0.1611,0.0,0.105,0.0124,-0.0,-0.0,-0.0,0.2816,0.4693,0.4693,0.5098,0.5367,0.5366,0.8756,1.0472,0.978,0.9905,1.0245,1.0628,1.0761,1.0751,1.0731,1.0727,1.0724,1.0724,1.0565,1.0426,1.0304,1.0131,0.9988,0.988,0.0,0.0,0.9849,0.9849,0.9849,0.9852,0.9873,0.9883,0.988,0.9859,0.9849,0.9849,0.0,0.0,0.0,0.0,0.0,0.0,0.0,0.0,0.0,0.0,-0.7238,-0.7189,0.0,0.0,0.0,0.0,0.0,0.0,0.0,0.0,0.0,-0.6593,-0.6368,-0.6324,-0.6619,-0.6281,-0.5948,-0.5689,-0.5508,-0.5216,-0.483,-0.4537,-0.4151,-0.3608,-0.3159,-0.2674,-0.215,-0.1385,-0.0572,0.0254,0.0636,0.1082,0.1528,0.178,0.0,0.0,0.0192,-0.0987,-0.2414,-0.5097,-0.4546,-0.2896,-0.3806,-0.4353,-0.4529,-0.444,-0.1902,0.0726,0.0129,-0.0,-0.0,-0.0,-0.0,0.0245,0.1153,0.1162,0.0,0.1965,0.2106,0.2032,0.213,0.1534,0.1101,0.1349,0.0759,0.023,-0.0,-0.0,-0.0,0.0,0.0538,0.0941,0.0941,0.0,0.0,0.0,0.0,0.0,0.6419,0.6299,0.766,1.0662,1.0662,1.0662,1.0655,1.0761,1.0748,1.0744,1.0575,1.048,1.0446,1.0175,1.0103,1.0188,0.0,0.0,1.0008,1.0008,1.0008,1.0022,1.0151,1.0202,1.0185,1.0056,1.0008,0.9992,0.0,0.0,0.0,0.0,0.0,0.0,0.0,-0.7904,-0.753,-0.716,-0.6774,-0.6562,-0.6526,-0.6441,-0.6264,0.0,0.0,0.0,0.0,0.0,0.0,0.0,-0.6336,-0.6398,-0.6708,-0.6359,-0.6102,-0.6008,0.0,-0.5013,-0.4636,-0.4066,-0.3447,-0.2816,-0.2401,-0.1949,-0.1515,-0.0638,-0.0,0.0422,0.1044,0.1235,0.1174,0.0,0.0,0.0,0.0306,-0.0568,-0.1468,-0.3612,-0.4097,-0.4238,-0.674,-0.7373,-0.7107,-0.6172,-0.5772,-0.4703,-0.1012,-0.0,-0.0,-0.0,-0.0,-0.0,-0.0,0.0,0.0,0.0734,0.0704,0.0996,0.1967,0.1602,0.0,0.1237,0.0603,-0.0,-0.0,-0.0,0.0,-0.0,-0.0,-0.0,0.0,0.0,0.0,0.0,0.0,0.0,0.822,0.4564,0.3352,0.5101,0.6989,0.7935,0.7935,0.7922,0.8867,1.0645,1.0697,1.0609,1.0647,1.0503,1.03,1.0273,1.0124,0.0,1.0171,1.0171,1.0171,1.0178,1.0253,1.028,1.0273,1.0198,1.0117,1.0039,0.0,0.0,0.0,0.0,0.0,0.0,0.0,-0.7758,-0.7328,-0.7063,-0.6483,-0.6062,-0.6056,-0.6007,-0.5856,0.0,0.0,0.0,0.0,0.0,0.0,0.0,0.0,0.0,0.0,0.0,0.0,0.0,0.0,0.0,0.0,0.0,0.0,0.0,0.0,-0.183,-0.1372,-0.0597,-0.0056,0.0,0.0,0.1139,0.0,0.0,0.0,0.0,0.0,-0.0,-0.0638,-0.2097,-0.3703,-0.5416,-0.776,-0.8639,-0.8404,-0.7006,-0.8204,-0.8967,-0.3731,-0.1679,-0.0935,-0.0132,-0.0,-0.0234,-0.1159,-0.0482,0.0262,-0.0299,-0.0438,0.0146,0.1848,0.1653,0.1292,0.0,0.0738,0.0201,-0.0,-0.0,-0.0,0.0,-0.0,0.0,0.0,0.0,0.0,0.0,0.0,0.0,0.0,0.3091,-0.0,-0.0,0.2817,0.4293,0.4293,0.429,0.5637,0.8483,0.9163,0.951,0.9655,1.03,1.0623,1.0378,1.0317,0.0,0.0,1.0327,1.0327,1.0331,1.0361,1.0375,1.0371,1.0337,1.0229,1.0093,0.0,0.0,0.0,0.0,0.0,0.0,0.0,-0.7305,-0.7062,-0.7175,-0.6708,-0.6147,-0.562,-0.5361,-0.5152,0.0,0.0,0.0,0.0,0.0,0.0,0.0,0.0,0.0,0.0,0.0,0.0,0.0,0.0,0.0,0.0,0.0,0.0,0.0,0.0,0.0,0.0,-0.0559,0.0,0.0,0.0,0.0,0.0,0.0,0.0,0.0,0.0,-0.0943,-0.2047,-0.352,-0.4525,-0.5176,-0.5633,-0.607,-0.6675,-0.7336,0.0,0.0,-0.9368,-0.7341,-0.4129,-0.0778,-0.0,-0.0229,-0.1321,0.0,-0.2053,-0.0289,-0.0,0.0414,0.1947,0.158,0.1127,0.1315,0.1243,0.0944,0.0112,-0.0,-0.0,-0.0,0.0,0.0,0.0,0.0,0.0,0.0,0.0,0.0,0.0,0.0404,-0.0,-0.0,0.0269,0.0538,0.0538,0.0537,0.0671,0.1073,0.429,0.5897,0.6021,0.9285,1.0626,1.0697,0.0,0.0,0.0,1.0473,1.0473,1.0487,1.0626,1.068,1.0663,1.0524,1.0382,1.0239,0.0,0.0,0.0,0.0,0.0,0.0,-0.7532,-0.7229,-0.7034,-0.7175,-0.666,-0.6184,-0.5964,-0.5329,-0.4889,-0.489,0.0,0.0,0.0,0.0,0.0,0.0,0.0,0.0,0.0,0.0,0.0,0.0,0.0,0.0,0.0,0.0,0.0,0.0,0.0,0.0,0.0,0.0,0.0,0.0,0.0,0.0,0.0,0.0,0.0,0.0,0.0,0.0,-0.1963,-0.2473,-0.2898,-0.3317,-0.3363,-0.3723,-0.4344,-0.5389,-0.6762,-0.8017,-0.8837,-0.8925,-0.8167,-0.6396,-0.2929,-0.0682,-0.3087,0.0,-0.282,-0.1949,-0.0833,-0.0069,-0.0416,-0.0419,-0.029,0.008,0.0327,0.0348,-0.0,-0.0,-0.0,-0.0,0.0,0.0,0.0,0.0,0.0,0.0,0.0,0.0,0.0,-0.0,-0.0,-0.0,-0.0,-0.0,-0.0,-0.0,-0.0,-0.0,0.1478,0.2148,0.2144,0.3601,0.5867,0.8568,0.0,0.0,0.0,1.0629,1.0629,1.0636,1.0697,1.0721,1.07,1.0548,1.0402,1.0259,0.0,0.0,0.0,0.0,0.0,-0.6956,-0.7232,-0.6981,-0.6866,-0.7113,-0.6652,-0.6229,-0.6019,-0.541,-0.4943,-0.4698,-0.4499,0.0,0.0,0.0,0.0,0.0,0.0,0.0,0.0,0.0,-0.482,-0.4524,-0.401,0.0,0.0,0.0,0.0,0.0,0.0,0.0,0.0,0.0,0.0,0.0,0.0,0.0,0.0,0.0,0.0,0.0,0.0,0.0,0.0,0.0,0.0,-0.2397,-0.2339,-0.2718,-0.3361,-0.4201,-0.5808,-0.739,-0.7909,-0.9112,-1.0283,-0.9834,-0.6055,-0.2869,-0.435,0.0,-0.3324,-0.2779,-0.166,-0.1032,-0.1755,-0.1572,-0.1198,-0.0817,-0.0612,-0.0408,-0.0372,-0.0197,-0.0,0.0,0.0,0.0,0.0,0.0,0.0,0.0,0.0,0.0,0.0,-0.0,-0.0,-0.0,-0.0,-0.0,-0.0,-0.0,-0.0,-0.0,-0.0,-0.0,0.0134,0.2148,0.4424,0.6691,0.0,0.0,0.0,1.0721,1.0721,1.0714,1.067,1.0653,1.0633,1.0483,1.0341,1.0209,0.0,0.0,0.0,0.0,0.0,0.0,-0.6768,-0.6473,-0.6392,-0.6923,-0.6712,-0.6263,-0.5579,-0.5544,-0.5285,-0.448,-0.435,0.0,0.0,0.0,0.0,0.0,0.0,0.0,0.0,0.0,-0.466,-0.4388,-0.3536,-0.3147,-0.3201,0.0,0.0,0.0,0.0,0.0,0.0,0.0,0.0,0.0,0.0,0.0,0.0,0.0,0.0,0.0,0.0,0.0,0.0,0.0,0.0,0.0,0.0,-0.3312,-0.4112,-0.4158,-0.5095,-0.6367,-0.7696,-0.8709,-0.9518,-0.9778,-0.8971,-0.7452,0.0,0.0,-0.3791,-0.2122,-0.229,-0.2357,-0.1277,-0.1076,-0.1096,-0.1157,-0.1267,-0.1275,-0.1365,-0.0585,0.0,0.0,0.0,0.0,0.0,0.0,0.0,0.0,0.0,0.0,0.0,0.0,-0.0,-0.0,-0.0,-0.0,-0.0,-0.0,-0.0,-0.0,-0.0,-0.0,0.0269,0.7286,0.8636,0.0,0.0,0.0,0.0,1.0721,1.0721,1.0704,1.0555,1.0493,1.0477,1.0334,1.0202,1.0086,0.0,0.0,0.0,0.0,0.0,0.0,0.0,-0.6525,-0.6582,-0.7018,-0.6766,-0.6542,-0.646,-0.5879,-0.5372,-0.5109,-0.4711,0.0,0.0,0.0,0.0,0.0,0.0,0.0,0.0,0.0,-0.4044,-0.3435,-0.3348,-0.2985,-0.2381,-0.2379,-0.2373,0.0,0.0,0.0,0.0,0.0,0.0,0.0,0.0,0.0,0.0,0.0,0.0,0.0,0.0,0.0,0.0,0.0,0.0,0.0,0.0,0.0,0.0,-0.3252,-0.4147,-0.5263,-0.5966,-0.6916,-0.7592,-0.7302,-0.7279,-0.6812,-0.4999,0.0,-0.2322,-0.1905,-0.2287,-0.2559,-0.1951,-0.1681,-0.1575,-0.1519,-0.1341,-0.1246,0.0,0.0,0.0,0.0,0.0,0.0,0.0,0.0,0.0,0.0,0.0,0.0,0.0,0.0,-0.0,-0.0,-0.0,-0.0,-0.0,0.4849,0.4849,-0.0,0.2551,0.4973,0.7286,0.7134,0.0,0.0,0.0,0.0,0.0,1.0721,1.0721,1.0704,1.0551,1.0504,1.062,1.0239,1.0134,0.984,0.0,0.0,0.0,0.0,0.0,0.0,0.0,-0.6407,-0.6523,-0.6854,-0.6682,-0.6548,-0.6584,-0.6027,-0.5529,-0.5257,-0.4936,0.0,0.0,0.0,0.0,0.0,0.0,0.0,-0.4576,-0.4151,-0.3651,-0.3065,-0.304,-0.2674,-0.2057,-0.214,-0.2107,-0.202,-0.1523,0.0,0.0,0.0,0.0,0.0,0.0,0.0,0.0676,0.0,0.0,0.0,0.0,0.0,0.0,0.0,0.0,0.0,0.0,0.0,0.0,0.0,-0.3832,-0.461,-0.5052,-0.5779,-0.6251,-0.6129,-0.6077,0.0,0.0,-0.3359,-0.2486,-0.193,-0.2203,-0.2424,-0.2154,-0.1884,-0.1707,-0.157,-0.1322,-0.1216,0.0,0.0,0.0,0.0,0.0,0.0,0.0,0.0,0.0,0.0,0.0,0.0,0.0,0.0,-0.0,-0.0,0.2691,0.4039,0.4039,0.7141,0.7139,0.4034,0.3623,0.5912,1.0555,0.8349,0.0,0.0,0.0,0.0,0.0,1.066,1.0666,1.0697,1.0439,1.0513,1.0412,0.8711,0.9013,0.9787,0.0,0.0,0.0,0.0,0.0,0.0,0.0,-0.6222,-0.6285,-0.6532,-0.6446,-0.6312,-0.6137,-0.6017,-0.5705,-0.5106,0.0,0.0,0.0,0.0,0.0,0.0,0.0,0.0,-0.421,-0.3831,-0.35,-0.3154,-0.2654,-0.2302,-0.2061,-0.1903,-0.1646,-0.1349,-0.1169,-0.1078,0.0,0.0,0.0,0.0,0.0,0.0,0.0,0.0,0.0,0.0,0.0,0.0,0.0,0.0,0.0,0.0,0.0,0.0,0.0,0.0,0.0,0.0,0.0,-0.5102,-0.5469,-0.5899,-0.543,-0.453,-0.3489,-0.3796,0.0,-0.2254,-0.211,-0.2221,-0.2018,-0.1749,-0.1629,-0.1466,-0.1289,-0.1112,0.0,0.0,0.0,0.0,0.0,0.0,0.0,0.0,0.0,0.0,0.0,0.0,0.0,0.0,0.0,-0.0,0.7007,1.0695,1.0705,0.7397,0.739,1.0672,0.3891,0.4159,1.0394,1.0531,0.0,0.0,0.0,0.0,0.0,1.0538,1.0561,1.0653,1.0246,1.0178,1.0012,0.6467,0.6912,0.9063,0.0,0.0,0.0,0.0,0.0,0.0,0.0,0.0,0.0,0.0,-0.6222,-0.6191,-0.6238,-0.5907,-0.5617,0.0,0.0,0.0,0.0,0.0,0.0,0.0,0.0,0.0,-0.4129,-0.3536,-0.309,-0.2756,-0.2719,-0.2342,-0.1633,-0.1918,-0.1536,-0.0704,-0.0753,-0.0416,0.0,0.0,0.0,0.0,0.0,0.0,0.0,0.0,0.0,0.0,0.0754,0.0442,0.0,0.0,0.0,0.0,0.0,0.0,0.0,0.0,-0.3299,-0.35,-0.4185,0.0,-0.4648,-0.4433,-0.4275,-0.412,0.0,-0.3704,-0.3501,-0.3198,-0.3162,-0.3096,-0.2491,-0.2221,-0.2041,-0.2041,-0.1496,-0.1025,0.0,0.0,0.0,0.0,0.0,0.0,0.0,0.0,0.0,0.0,0.0,0.0,0.0,0.0,0.0,-0.0,0.694,1.0724,1.0705,0.9831,0.9831,1.0695,0.8998,0.7636,0.6713,0.9395,0.0,0.0,0.0,0.0,1.0534,1.0388,1.0361,1.0392,1.0171,1.0263,1.0433,0.911,0.5933,0.2346,0.0,0.0,0.0,0.0,0.0,0.0,0.0,0.0,0.0,0.0,0.0,-0.6052,-0.6284,-0.5905,0.0,0.0,0.0,0.0,0.0,0.0,0.0,0.0,0.0,-0.4021,-0.3863,-0.3303,-0.285,-0.2555,-0.2512,-0.216,-0.1615,-0.1747,-0.125,-0.0244,-0.0288,0.014,0.0,0.0,0.0,0.0,0.081,0.0,0.0,0.0,0.0,0.0,0.1103,0.0902,0.0,-0.0098,-0.1017,-0.2018,0.0,0.0,0.0,0.0,-0.3519,-0.3688,-0.4184,-0.4184,-0.4036,-0.4097,-0.3842,-0.3554,-0.3558,-0.3191,-0.2966,-0.3465,-0.2941,-0.2218,-0.1479,-0.1291,0.0,0.0,-0.0882,0.0,0.0,0.0,0.0,0.0,0.0,0.0,0.0,0.0,0.0,0.0,0.0,0.0,0.0,0.0,-0.0,-0.0,0.3702,0.7311,1.0702,1.0663,1.0649,1.0665,1.0633,0.9548,0.79,0.9661,0.0,0.0,0.0,0.0,1.0402,1.0253,1.0246,1.031,1.01,1.0208,1.027,0.6593,0.3087,-0.0,0.0,0.0,0.0,0.0,0.0,0.0,0.0,0.0,0.0,0.0,0.0,0.0,0.0,0.0,0.0,0.0,0.0,0.0,0.0,0.0,0.0,0.0,-0.428,-0.3983,-0.3602,-0.3101,-0.2739,-0.2474,-0.2204,-0.1951,-0.1669,-0.1446,-0.0739,0.0304,0.0291,0.0608,0.0,0.0,0.0,0.0,0.0989,0.0,0.0,0.0,0.0,0.0,0.0,0.0,0.0,0.038,-0.0844,-0.2301,-0.3086,0.0,0.0,0.0,0.0,0.0,-0.4353,-0.391,-0.3602,-0.4333,-0.3877,-0.3159,-0.298,-0.2713,-0.2657,-0.3115,-0.2143,-0.0943,-0.0204,0.007,0.0,0.0,0.0,0.0,0.0,0.0,0.0,0.0,0.0,0.0,0.0,0.0,0.0,0.0,0.0,0.0,0.0,0.0,0.0,-0.0,-0.0,0.2895,0.9001,0.9562,1.0197,1.069,1.0456,1.0453,1.0649,1.0283,1.0233,0.0,0.0,0.0,1.0397,1.0114,1.0144,1.0136,0.9908,0.951,0.8321,0.2232,-0.0,-0.0,0.0,0.0,0.0,0.0,0.0,0.0,0.0,0.0,0.0,0.0,0.0,0.0,0.0,0.0,0.0,0.0,0.0,0.0,0.0,0.0,0.0,-0.4602,-0.4215,-0.3858,-0.3532,-0.3006,-0.259,-0.2346,-0.216,-0.1877,-0.1431,-0.0865,0.0052,0.1107,0.0885,0.1044,0.1508,0.141,0.1344,0.1256,0.1256,0.0,0.0,0.0,0.0,0.0,0.0,0.0,0.0,0.0475,-0.0239,-0.0965,-0.2225,0.0,0.0,0.0,0.0,0.0,-0.3852,-0.3852,-0.3858,-0.4379,-0.4203,-0.3663,-0.2855,-0.3311,-0.3411,-0.1846,-0.151,-0.1293,-0.0571,0.0824,0.1716,0.0,0.0,0.0,0.0,0.0,0.0,0.0,0.0,0.0,0.0,0.0,0.0,0.0,0.0,0.0,0.0,0.0,0.0,-0.0,-0.0,0.0512,0.1689,0.4643,0.7614,1.0412,1.0351,1.0341,1.024,1.031,1.0297,0.0,0.0,1.01,1.011,0.9954,0.9811,0.9875,0.9834,0.6443,0.1486,0.0371,-0.0,-0.0,0.0,0.0,0.0,0.0,0.0,0.0,0.0,0.0,0.0,0.0,0.0,0.0,0.0,0.0,0.0,0.0,0.0,0.0,0.0,0.0,-0.5214,-0.4736,-0.4274,-0.3849,-0.3397,-0.2924,-0.2585,-0.2356,-0.2109,-0.1888,-0.1676,-0.016,0.0759,0.1169,0.1159,0.1312,0.1568,0.1597,0.1569,0.1478,0.0,0.0,0.0,0.0,0.0,0.0,0.0,0.0,0.0,0.0,-0.071,-0.1023,-0.2007,0.0,0.0,0.0,0.0,0.0,-0.3522,-0.3519,-0.3492,-0.3796,-0.3533,-0.3102,-0.2565,-0.2364,-0.1756,-0.0134,-0.0272,-0.0351,0.0,0.0,0.0,0.0,0.0,0.0,0.0,0.0,0.0,0.0,0.0,0.0,0.0,0.0,0.0,0.0,0.0,0.0,0.0,0.0,0.0,0.0,-0.0,-0.0,-0.0,0.1635,0.3292,0.4756,0.8374,1.0042,1.0045,0.9992,1.0076,1.0148,0.0,0.9961,0.9985,0.9804,0.7662,0.4447,0.4447,0.2717,-0.0,-0.0,-0.0,-0.0,0.0,0.0,0.0,0.0,0.0,0.0,0.0,0.0,0.0,0.0,0.0,0.0,0.0,0.0,0.0,0.0,0.0,0.0,0.0,-0.5435,-0.5277,-0.4812,-0.4371,-0.3873,-0.3328,-0.2874,-0.2569,-0.234,-0.2004,-0.1783,-0.1546,0.0274,0.1142,0.1259,0.1367,0.1568,0.1758,0.187,0.1837,0.1791,0.0,0.0,0.0,0.0,0.0,0.0,0.0,0.0,0.0,0.0,0.0,0.0,0.0,0.0,0.0,-0.2992,-0.3049,-0.313,-0.3299,-0.3244,-0.3182,-0.3153,-0.2893,-0.2577,-0.2039,-0.1459,-0.0636,0.0955,0.0889,0.0,0.0,0.0,0.0,0.0,0.0,0.0,0.0,0.0,0.0,0.0,0.0,0.0,0.0,0.0,0.0,0.0,0.0,0.0,0.0,0.0,0.0,0.0,0.0376,-0.0,-0.0,0.1481,0.1496,-0.0,0.5103,0.8366,1.0069,0.9828,0.99,0.9998,0.9784,0.9764,0.9791,0.9811,0.6808,0.2099,0.0617,-0.0,-0.0,-0.0,-0.0,-0.0,0.0,0.0,0.0,0.0,0.0,0.0,0.0,0.0,0.0,0.0,0.0,0.0,0.0,0.0,0.0,0.0,0.0,0.0,0.0,-0.5404,-0.5227,-0.4812,-0.4409,-0.3913,-0.3314,-0.2786,-0.2415,-0.2224,-0.1859,-0.1284,-0.0426,0.0267,0.0943,0.1663,0.1556,0.1861,0.2515,0.2323,0.2279,0.2235,0.2279,0.0,0.0,0.0,0.0,0.0,0.0,0.0,0.0,0.0,0.0,0.0,0.0,0.0,-0.2863,-0.2956,-0.3054,-0.313,-0.313,-0.3244,-0.3241,-0.2792,-0.2837,-0.2562,-0.1168,-0.1683,-0.1825,0.0593,0.1718,0.2089,0.0,0.0,0.0,0.0,0.0,0.0,0.0,0.0,0.0,0.0,0.0,0.0,0.0,0.0,0.0,0.0,0.0,0.0,0.0,0.0,0.0,0.0,0.0,-0.0,-0.0,0.606,0.606,-0.0,0.0493,0.3935,0.9764,0.9774,0.9767,0.9869,0.9771,0.9794,0.9814,0.9818,0.9565,0.8436,0.2346,-0.0,-0.0,-0.0,-0.0,-0.0,0.0,0.0,0.0,0.0,0.0,0.0,0.0,0.0,0.0,0.0,0.0,0.0,0.0,0.0,0.0,0.0,0.0,0.0,0.0,-0.5372,-0.5189,-0.4864,-0.4403,-0.3976,-0.3663,-0.3124,-0.2641,-0.2322,-0.1935,-0.1259,-0.0275,0.0947,0.1553,0.1665,0.186,0.2138,0.2465,0.2366,0.2368,0.2415,0.2504,0.2417,0.0,0.0,0.0,0.0,0.0,0.0,0.0,0.0,-0.0912,-0.126,-0.1612,-0.2038,-0.2351,-0.201,-0.2125,-0.2348,-0.2068,-0.2305,-0.2658,-0.2829,-0.2613,-0.2117,-0.1087,-0.0742,-0.0346,0.0628,0.1005,0.0934,0.0,0.0,0.0,0.0,0.0,0.0,0.0,0.0,0.0,0.0,0.0,0.0,0.0,0.0,0.0,0.0,0.0,0.0,0.0,0.0,0.0,0.0,0.0,0.5524,0.5524,0.8316,0.8426,0.5866,0.5983,0.7401,0.9761,0.9805,0.869,0.6884,0.8942,0.9846,0.9442,0.5438,0.6066,0.9205,0.2594,-0.0,-0.0,-0.0,-0.0,-0.0,0.0,0.0,0.0,0.0,0.0,0.0,0.0,0.0,0.0,0.0,0.0,0.0,0.0,0.0,0.0,0.0,0.0,0.0,-0.5302,-0.5214,-0.5023,-0.4788,-0.4333,-0.3986,-0.3788,-0.3319,-0.2901,-0.2564,-0.1882,-0.1084,-0.0217,0.124,0.1869,0.1715,0.1961,0.224,0.2562,0.2352,0.2415,0.2595,0.2732,0.2595,0.0,0.0,0.0,0.0,0.0,0.0,0.0,0.0,-0.1188,-0.1409,-0.1541,-0.186,-0.205,-0.1556,-0.1703,-0.2015,-0.1734,-0.204,-0.2468,-0.2885,-0.2755,-0.2295,-0.1584,-0.0524,0.0273,0.0384,0.0394,0.01,-0.0712,0.0,0.0,0.0,0.0,0.0,0.0,0.0,0.0,0.0,0.0,0.0,0.0,0.0,0.0,0.0,0.0,0.0,0.0,0.0,0.0,0.0,0.0,0.0,0.8892,0.9359,0.8984,0.7891,0.9051,0.964,0.9637,0.7587,0.6621,0.6438,0.6626,0.6663,0.6388,0.1838,0.2706,0.6449,0.4079,0.1851,-0.0,-0.0,-0.0,-0.0,0.0,0.0,0.0,0.0,0.0,0.0,0.0,0.0,0.0,0.0,0.0,0.0,0.0,0.0,0.0,0.0,0.0,0.0,-0.4884,-0.4832,-0.4704,-0.4494,-0.4183,-0.3861,-0.3499,-0.3313,-0.3078,-0.2913,-0.1568,-0.0649,-0.005,0.1008,0.1693,0.201,0.1882,0.2196,0.2868,0.2462,0.2462,0.2734,0.2868,0.2732,0.2506,0.0,0.0,0.0,0.0,0.0,0.0,0.0,-0.1299,-0.1455,-0.1724,-0.1868,-0.1946,-0.181,-0.1958,-0.224,-0.241,-0.2701,-0.2934,-0.2802,-0.3224,-0.3322,-0.2442,-0.1458,-0.0558,-0.0104,-0.0,-0.0,-0.0,0.0,0.0,0.0,0.0,0.0,0.0,0.0,0.0,0.0,0.0,0.0,0.0,0.0,0.0,0.0,0.0,0.0,0.0,0.0,0.0,0.0,0.0,0.0,0.8787,0.8867,0.7413,0.4569,0.7888,0.9332,0.9091,0.2823,0.3535,0.9365,0.2826,-0.0,-0.0,-0.0,-0.0,0.0617,0.718,0.5688,-0.0,-0.0,-0.0,-0.0,0.0,0.0,0.0,0.0,0.0,0.0,0.0,0.0,0.0,0.0,0.0,0.0,0.0,0.0,0.0,0.0,0.0,0.0,-0.4884,-0.4692,-0.4538,-0.4447,-0.4118,-0.3889,-0.3792,-0.3193,-0.2793,-0.2465,-0.1605,-0.0753,0.005,0.1002,0.1537,0.1824,0.2104,0.2383,0.2665,0.2474,0.2564,0.2911,0.289,0.2871,0.275,0.0,0.0,0.0,0.0,0.0,0.0,0.0,0.0,0.0,-0.1526,-0.16,-0.1567,-0.113,-0.1295,-0.157,-0.1177,-0.1306,0.0,-0.2007,0.0,0.0,-0.1266,-0.1142,-0.1093,-0.0632,-0.0218,-0.0,-0.0,0.0,0.0,0.0,0.0,0.0,0.0,0.0,0.0,0.0,0.0,0.0,0.0,0.0,0.0,0.0,0.0,0.0,0.0,0.0,0.0,0.0,0.0,0.0,0.2613,0.684,0.8442,0.7613,0.8574,0.8096,0.6105,0.1859,0.1049,0.2825,0.0815,-0.0,-0.0,-0.0,-0.0,0.0243,0.2186,0.1712,-0.0,-0.0,-0.0,-0.0,0.0,0.0,0.0,0.0,0.0,0.0,0.0,0.0,0.0,0.0,-0.5472,-0.5187,0.0,0.0,0.0,0.0,0.0,0.0,0.0,-0.4403,-0.421,-0.4058,-0.3775,-0.3508,-0.3313,-0.2786,-0.2362,-0.2071,-0.165,-0.093,0.0099,0.0704,0.1199,0.1582,0.1859,0.2137,0.2375,0.2317,0.244,0.2697,0.2795,0.2809,0.274,0.0,0.0,0.0,0.0,0.0,0.0,0.0,0.0,0.0,-0.1512,-0.1589,-0.1518,-0.1052,-0.1262,-0.1541,-0.1155,-0.1313,0.0,-0.2076,-0.1705,-0.1182,-0.075,0.0,0.0,0.0,-0.0778,-0.045,-0.011,0.0,0.0,0.0,0.0,0.0,0.0,0.0,0.0,0.0,0.0,0.0,0.0,0.0,0.0,0.0,0.0,0.0,0.0,0.0,0.0,0.0,0.0,0.0,-0.0,0.3582,0.594,0.7165,0.8339,0.7392,0.4603,0.1484,-0.0,-0.0,-0.0,-0.0,-0.0,-0.0,-0.0,-0.0,-0.0,-0.0,-0.0,-0.0,-0.0,-0.0,0.0,0.0,0.0,0.0,0.0,0.0,0.0,0.0,0.0,0.0,-0.5533,-0.5094,0.0,0.0,0.0,0.0,0.0,0.0,0.0,-0.4021,-0.3728,-0.3467,-0.3251,-0.2898,-0.2381,-0.2149,-0.1941,-0.1658,-0.1684,-0.1077,-0.0,0.033,0.0786,0.1389,0.1439,0.1623,0.2035,0.2067,0.2158,0.2296,0.2642,0.2704,0.2556,0.2642,0.0,0.0,0.0,0.0,0.0,0.0,0.0,0.0,-0.1658,-0.1652,-0.1648,-0.1399,-0.1598,-0.1922,-0.1821,-0.2122,-0.2441,-0.2455,-0.1216,0.0,-0.0496,-0.158,-0.2411,-0.1556,0.0,0.0,0.0,0.0,0.0,0.0,0.0,0.0,0.0,0.0,0.0,0.0,0.0,0.0,0.0,0.0,0.0,0.0,0.0,0.0,0.0,0.0,0.0,0.0,0.0,0.0,-0.0,0.0223,0.1671,0.0,0.7413,0.7533,0.481,0.1456,-0.0,-0.0,-0.0,-0.0,-0.0,-0.0,-0.0,-0.0,-0.0,-0.0,-0.0,-0.0,-0.0,-0.0,0.0,0.0,0.0,0.0,0.0,0.0,0.0,0.0,0.0,0.0,0.0,0.0,0.0,0.0,0.0,0.0,0.0,0.0,0.0,-0.3723,-0.3429,-0.3035,-0.267,-0.241,-0.2173,-0.1866,-0.1643,-0.1478,-0.146,-0.0979,-0.0,0.066,0.1096,0.1391,0.1576,0.1789,0.2072,0.2133,0.2354,0.2664,0.2898,0.3017,0.3062,0.3056,0.2837,0.0,0.0,0.0,0.0,0.0,0.0,0.0,-0.1407,-0.1507,-0.1612,-0.1658,-0.1883,-0.1879,-0.1157,-0.0778,0.0,-0.0616,-0.0267,-0.0,-0.0102,-0.0421,-0.0642,-0.0847,0.0,0.0,0.0,0.0,0.0,0.0,0.0,0.0,0.0,0.0,0.0,0.0,0.0,0.0,0.0,0.0,0.0,0.0,0.0,0.0,0.0,0.0,0.0,0.0,0.0,0.43,-0.0,0.2396,0.2628,0.0,0.6362,0.8565,0.7762,0.2465,-0.0,-0.0,-0.0,-0.0,-0.0,-0.0,-0.0,-0.0,-0.0,-0.0,-0.0,-0.0,-0.0,-0.0,0.0,0.0,0.0,0.0,0.0,0.0,0.0,0.0,0.0,0.0,0.0,0.0,0.0,0.0,0.0,0.0,0.0,0.0,0.0,0.0,-0.2874,-0.2537,-0.2027,-0.1839,-0.1973,-0.1578,-0.1242,-0.0914,-0.0809,-0.0431,0.009,0.0747,0.1143,0.1345,0.1559,0.176,0.1994,0.2217,0.2455,0.2656,0.2893,0.3042,0.3093,0.3183,0.2918,0.232,0.1366,0.0,0.0,0.0,0.0,0.0,0.0,0.0,-0.1986,-0.204,-0.2179,-0.2193,-0.1687,0.0,0.0,-0.0,0.0,-0.0,-0.0,-0.0,-0.0105,0.0,0.0,0.0,0.0,0.0,0.0,0.0,0.0,0.0,0.0,0.0,0.0,0.0,0.0,0.0,0.0,0.0,0.0,0.0,0.0,0.0,0.0,0.0,0.0,0.0,0.6548,0.6677,0.3833,0.4074,0.4194,0.398,0.5769,0.657,0.6463,0.4639,0.2436,0.0111,0.1548,0.1334,-0.0,-0.0,-0.0,-0.0,-0.0,-0.0,-0.0,-0.0,-0.0,-0.0,0.0,0.0,0.0,0.0,0.0,0.0,0.0,0.0,0.0,0.0,0.0,0.0,0.0,0.0,0.0,0.0,0.0,0.0,0.0,0.0,0.0,-0.2033,-0.1451,-0.1323,-0.1687,-0.1229,-0.0749,-0.0256,-0.0,0.0305,0.0544,0.0985,0.1293,0.1432,0.1657,0.1837,0.1977,0.2414,0.2594,0.2637,0.2922,0.304,0.2992,0.318,0.2883,0.2242,0.1171,0.0048,-0.0955,-0.1178,0.0,0.0,0.0,0.0,-0.2309,-0.2347,-0.2451,-0.259,-0.2515,-0.1311,-0.0,-0.0,-0.0,0.0,-0.0,-0.0,-0.0,0.0,0.0,0.0,0.0,0.0,0.0,0.0,0.0,0.0,0.0,0.0,0.0,0.0,0.0,0.0,0.0,0.0,0.0,0.0,0.0,0.0,0.0,0.0,0.2441,0.7788,0.7997,0.8043,0.804,0.5807,0.5917,0.8266,0.5833,0.4663,0.4755,0.7014,0.5543,0.152,0.359,0.3407,0.145,0.0445,-0.0,-0.0,-0.0,-0.0,-0.0,-0.0,-0.0,-0.0,0.0,0.0,0.0,0.0,0.0,0.0,0.0,0.0,0.0,0.0,-0.5813,0.0,0.0,0.0,0.0,0.0,0.0,0.0,0.0,0.0,0.0,-0.1667,-0.1262,-0.1085,-0.1179,-0.0526,-0.0,0.0312,0.0622,0.118,0.1938,0.1934,0.1988,0.201,0.2279,0.2462,0.2598,0.275,0.2893,0.2968,0.3242,0.3254,0.3164,0.2992,0.2711,0.2268,0.1433,0.0428,-0.0566,-0.1045,-0.1381,0.0,0.0,0.0,-0.197,-0.2358,-0.2551,-0.2678,-0.2907,0.0,-0.0,0.0,-0.0,-0.0,0.0,0.0,0.0,0.0,0.0,0.0,0.0,0.0,0.0,0.0,0.0,0.0,0.0,0.0,0.0,0.0,0.0,0.0,0.0,0.0,0.0,0.0,0.0,0.0,0.0,-0.0,0.2426,0.7847,0.8036,0.8032,0.8049,0.7833,0.7792,0.803,0.7623,0.7506,0.7489,0.7839,0.7602,0.685,0.52,0.5684,0.7362,0.2078,-0.0,-0.0,-0.0,-0.0,-0.0,-0.0,-0.0,-0.0,0.0,0.0,0.0,0.0,0.0,0.0,0.0,0.0,0.0,0.0,0.0,-0.5233,0.0,0.0,0.0,0.0,0.0,0.0,0.0,0.0,0.0,-0.0938,-0.0565,-0.0278,-0.0081,0.0043,0.0355,0.0781,0.1153,0.1627,0.2163,0.2419,0.2576,0.2612,0.2783,0.3034,0.3303,0.3336,0.3437,0.3557,0.3419,0.3219,0.3064,0.2795,0.239,0.195,0.134,0.0691,-0.0048,-0.0801,-0.1202,-0.1374,-0.1447,0.0,0.0,0.0,-0.281,-0.3098,-0.3259,-0.1671,-0.0,0.0,-0.0,-0.0,-0.0,0.0,0.0,0.0,0.0,0.0,0.0,0.0,0.0,0.0,0.0,0.0,0.0,0.0,0.0,0.0,0.0,0.0,0.0,0.0,0.0,0.0,0.0,0.0,0.4356,0.4452,0.5564,0.7922,0.7995,0.7975,0.7962,0.8113,0.8046,0.7958,0.8021,0.8024,0.7968,0.7975,0.7952,0.7988,0.6876,0.7381,0.8676,0.6048,0.3029,-0.0,-0.0,-0.0,-0.0,-0.0,-0.0,-0.0,0.0,0.0,0.0,0.0,0.0,0.0,0.0,0.0,0.0,0.0,0.0,0.0,0.0,0.0,0.0,0.0,0.0,0.0,0.0,0.0,0.0,-0.0386,-0.0038,0.032,0.068,0.0518,0.0663,0.1113,0.1547,0.1891,0.2182,0.2706,0.3019,0.322,0.3304,0.3562,0.3866,0.3821,0.3916,0.3955,0.3531,0.3313,0.3236,0.2671,0.218,0.1637,0.1134,0.072,0.0297,-0.0471,-0.0942,-0.1226,-0.1468,-0.1798,0.0,0.0,0.0,-0.3401,0.0,0.0,-0.0735,-0.0143,-0.0,-0.0,0.0,0.0,0.0,0.0,0.0,0.0,0.0,0.0,0.0,0.0,0.0,0.0,0.0,0.0,0.0,0.0,0.0,0.0,0.0,0.0,0.0,0.0,0.0,0.0,0.7749,0.8032,0.8016,0.8012,0.7985,0.7962,0.8038,0.8038,0.8038,0.8038,0.8038,0.8048,0.7965,0.7559,0.7617,0.8031,0.7981,0.7865,0.7759,0.8526,0.6285,0.2132,0.0637,-0.0,-0.0,-0.0,-0.0,-0.0,0.0,0.0,0.0,0.0,0.0,0.0,0.0,0.0,0.0,0.0,0.0,0.0,-0.3987,-0.3565,-0.298,-0.2192,-0.1997,-0.1739,-0.1323,-0.117,-0.0857,-0.0312,-0.0,0.0,0.0713,0.1008,0.1163,0.1205,0.1612,0.1965,0.2322,0.285,0.3332,0.3785,0.4055,0.4091,0.398,0.4134,0.4125,0.3997,0.3717,0.3761,0.39,0.2809,0.2152,0.1704,0.0838,0.0478,0.0318,-0.016,-0.0585,-0.1004,-0.1327,-0.1516,-0.1783,0.0,0.0,0.0,0.0,-0.3442,0.0,-0.0515,-0.0,0.0,0.0,0.0,0.0,0.0,0.0,0.0,0.0,0.0,0.0,0.0,0.0,0.0,0.0,0.0,0.0,0.0,0.0,0.0,0.0,0.0,0.0,0.0,0.0,0.0,0.7955,0.8016,0.7985,0.7975,0.7975,0.7962,0.8038,0.8038,0.8038,0.8038,0.8038,0.8038,0.7939,0.6326,0.6431,0.7962,0.8034,0.6532,0.445,0.7617,0.8675,0.7921,0.2198,-0.0,-0.0,-0.0,-0.0,-0.0,0.0,0.0,0.0,0.0,0.0,0.0,0.0,0.0,0.0,0.0,0.0,0.0,0.0,-0.3271,-0.276,-0.2043,-0.1519,-0.1118,-0.0745,-0.0589,-0.0314,0.0196,0.0534,0.08,0.1012,0.1184,0.1344,0.1478,0.1703,0.206,0.2571,0.3001,0.3493,0.3949,0.4258,0.4488,0.4561,0.4619,0.4676,0.4689,0.4245,0.4171,0.4184,0.3357,0.265,0.208,0.0,0.0,0.0,0.1915,0.1475,0.0963,0.028,-0.0605,-0.1464,-0.2138,-0.2496,-0.2719,-0.3166,0.0,0.0,-0.2278,-0.1558,-0.0981,0.0,0.0,0.0,0.0,0.0,0.0,0.0,0.0,0.0,0.0,0.0,0.0,0.0,0.0,0.0,0.0,0.0,0.0,0.0,0.0,0.0,0.0,0.0,0.0,0.7808,0.7992,0.7972,0.7952,0.7952,0.8048,0.8038,0.8038,0.8038,0.8038,0.8038,0.7952,0.7972,0.7363,0.7378,0.8019,0.7985,0.6436,0.3955,0.3462,0.3176,0.2986,0.0818,-0.0,-0.0,-0.0,-0.0,-0.0,0.0,0.0,0.0,0.0,0.0,0.0,0.0,0.0,0.0,-0.4096,0.0,0.0,0.0,0.0,-0.2261,-0.1766,-0.1146,-0.0688,-0.0452,-0.0082,0.0247,0.0534,0.0805,0.1075,0.1377,0.137,0.1488,0.1647,0.1851,0.2197,0.2666,0.3105,0.3482,0.3799,0.4298,0.4606,0.478,0.484,0.4928,0.5049,0.4584,0.4538,0.478,0.4092,0.355,0.0,0.0,0.0,0.0,0.0,0.0,0.2062,0.1605,0.0409,-0.1023,-0.1685,-0.2015,-0.2267,-0.2751,-0.3051,0.0,0.0,0.0,-0.2139,0.0,0.0,0.0,0.0,0.0,0.0,0.0,0.0,0.0,0.0,0.0,0.0,0.0,0.0,0.0,0.0,0.0,0.0,0.0,0.0,0.0,0.0,0.0,0.0,0.6467,0.7466,0.7955,0.8038,0.8038,0.8038,0.8038,0.8038,0.8038,0.8038,0.8038,0.7952,0.7972,0.7982,0.8002,0.8032,0.8042,0.5974,0.2514,0.0706,-0.0,-0.0,-0.0,-0.0,-0.0,-0.0,-0.0,-0.0,0.0,0.0,0.0,0.0,0.0,0.0,0.0,0.0,-0.3258,-0.3517,0.0,0.0,0.0,0.0,0.0,-0.1312,-0.0804,-0.0473,-0.0491,0.0268,0.0716,0.0716,0.0851,0.1164,0.1703,0.1658,0.1647,0.1716,0.2064,0.2338,0.2664,0.3094,0.3334,0.3443,0.4158,0.4545,0.4626,0.4694,0.4841,0.5026,0.4644,0.4967,0.562,0.4984,0.0,0.0,0.424,0.4014,0.0,0.3926,0.0,0.0,0.0,0.1324,-0.035,-0.1018,-0.1568,-0.2032,0.0,0.0,0.0,0.0,0.0,0.0,0.0,0.0,0.0,0.0,0.0,0.0,0.0,0.0,0.0,0.0,0.0,0.0,0.0,0.0,0.0,0.0,0.0,0.0,0.0,0.0,0.0,0.0,0.0,0.4148,0.4145,0.6548,0.8038,0.8038,0.8038,0.8038,0.8038,0.8038,0.8038,0.8041,0.8041,0.8041,0.8041,0.7965,0.7975,0.7979,0.8012,0.5056,0.0202,0.0101,-0.0,-0.0,-0.0,-0.0,-0.0,-0.0,-0.0,-0.0,0.0,0.0,0.0,0.0,0.0,-0.3306,-0.3084,-0.2862,-0.2682,0.0,0.0,0.0,-0.2337,-0.1523,-0.0951,-0.0877,-0.0415,-0.0046,0.0225,0.0627,0.094,0.1208,0.1433,0.1658,0.1928,0.1928,0.2106,0.2427,0.2401,0.2726,0.3322,0.3515,0.3708,0.3978,0.4364,0.4543,0.4654,0.4582,0.4626,0.4697,0.4766,0.5071,0.0,0.0,0.0,0.0,0.0,0.4637,0.4492,0.0,0.4741,0.4516,0.0,0.293,0.2228,0.0701,0.0174,-0.0174,-0.1347,0.0,0.0,0.0,0.0,0.0,0.0,0.0,0.0,0.0,0.0,0.0,0.0,0.0,0.0,0.0,0.0,0.0,0.0,0.0,0.0,0.0,0.0,0.0,0.0,0.0,0.0,0.0,0.5867,0.6452,0.6856,0.755,0.8038,0.8038,0.8038,0.8038,0.8038,0.8038,0.8048,0.7962,0.7962,0.7975,0.8002,0.8009,0.8019,0.8036,0.8046,0.7122,0.548,0.1617,-0.0,-0.0,-0.0,-0.0,-0.0,-0.0,-0.0,-0.0,0.0,0.0,0.0,0.0,0.0,-0.2996,-0.2821,-0.2598,-0.242,0.0,0.0,0.0,-0.1329,-0.0777,-0.0388,-0.0233,0.0046,0.0414,0.0944,0.1075,0.1254,0.1614,0.1839,0.2035,0.2207,0.226,0.2463,0.2894,0.2754,0.2995,0.3679,0.3688,0.3796,0.4132,0.4319,0.4318,0.4222,0.4164,0.4426,0.0,0.482,0.0,0.0,0.5562,0.544,0.0,0.0,0.0,0.5209,0.5225,0.5343,0.0,0.0,0.0,0.3539,0.2238,0.148,0.0938,-0.0,-0.0803,-0.1535,-0.2034,0.0,0.0,0.0,-0.2745,0.0,0.0,0.0,0.0,0.0,0.0,0.0,0.0,0.0,0.0,0.0,0.0,0.0,0.0,0.0,0.0,0.0,0.0,0.0,0.0,0.5657,0.6253,0.7761,0.7821,0.7811,0.7855,0.7913,0.7943,0.7943,0.8018,0.7959,0.7972,0.6851,0.6348,0.6366,0.7503,0.8032,0.7841,0.5682,0.4663,0.4457,0.1313,-0.0,-0.0,-0.0,-0.0,-0.0,-0.0,-0.0,-0.0,0.0,0.0,-0.352,-0.317,-0.2954,-0.2826,-0.2794,-0.2485,-0.2174,0.0,-0.1318,-0.0626,-0.0096,-0.0,0.0191,0.0552,0.0597,0.0915,0.1637,0.1539,0.1624,0.2031,0.2158,0.2331,0.2519,0.2571,0.2761,0.3221,0.3019,0.3213,0.3822,0.3688,0.3789,0.4026,0.4195,0.4055,0.3685,0.3698,0.0,0.5282,0.4748,0.5111,0.0,0.0,0.5694,0.5948,0.582,0.584,0.5895,0.5583,0.546,0.0,0.0,0.0,0.4106,0.3516,0.2594,0.1704,0.1406,0.0287,-0.0904,-0.1339,0.0,0.0,-0.2675,-0.2383,0.0,0.0,0.0,0.0,0.0,0.0,0.0,0.0,0.0,0.0,0.0,0.0,0.0,0.0,0.0,0.0,0.0,0.0,0.1014,0.3435,0.3879,0.5006,0.747,0.7598,0.7595,0.758,0.7716,0.7787,0.779,0.7861,0.7952,0.7955,0.5629,0.4119,0.3616,0.6065,0.7098,0.6894,0.212,-0.0,-0.0,-0.0,-0.0,-0.0,-0.0,-0.0,-0.0,-0.0,-0.0,-0.0,0.0,-0.3432,-0.3034,-0.2682,-0.2556,-0.2361,-0.2014,-0.1601,-0.1285,-0.1031,-0.0662,-0.0208,0.0313,0.0696,0.102,0.1192,0.1292,0.1428,0.1682,0.1775,0.193,0.2209,0.2368,0.2556,0.2805,0.2882,0.3045,0.3357,0.3207,0.3355,0.3787,0.3789,0.393,0.4186,0.4467,0.4477,0.431,0.0,0.0,0.4928,0.4484,0.0,0.4915,0.5388,0.5477,0.5277,0.5403,0.5467,0.5566,0.6143,0.5951,0.5621,0.0,0.0,0.0,0.4683,0.4181,0.3628,0.2299,0.1032,0.0,0.0,0.0,0.0,-0.2298,-0.1612,0.0,0.0,0.0,0.0,0.0,0.0,0.0,0.0,0.0,0.0,0.0,0.0,0.0,0.0,0.0,0.0,0.0,0.0,0.0998,0.3387,0.5359,0.6722,0.7369,0.7533,0.7636,0.7571,0.7584,0.7645,0.7749,0.7714,0.7805,0.8034,0.7447,0.4949,0.0807,0.1312,0.1515,0.1515,0.0404,-0.0,-0.0,-0.0,-0.0,-0.0,-0.0,-0.0,-0.0,-0.0,-0.0,-0.0,-0.3258,-0.2948,-0.2637,-0.2328,-0.2191,-0.1957,-0.1472,-0.1211,-0.0789,-0.0,0.0208,0.0426,0.0852,0.1028,0.124,0.1405,0.1452,0.1544,0.182,0.1935,0.2061,0.235,0.2498,0.2663,0.2968,0.3066,0.3321,0.3717,0.3583,0.3701,0.4128,0.4049,0.4138,0.4355,0.4508,0.4574,0.4467,0.0,0.4575,0.4961,0.4463,0.0,0.5096,0.5174,0.5292,0.5359,0.5362,0.5428,0.5529,0.6171,0.6198,0.0,0.0,0.6539,0.6571,0.0,0.4996,0.4114,0.0,0.0,0.0,0.0115,0.0,0.0,0.0,-0.1403,0.0,0.0,0.0,0.0,0.0,0.0,0.0,0.0,0.0,0.0,0.0,0.0,0.0,0.0,0.0,0.0,0.0,0.0,0.0892,0.3149,0.5518,0.6939,0.7065,0.7193,0.7241,0.7279,0.7394,0.7506,0.7512,0.778,0.7911,0.8,0.5264,0.2601,-0.0,-0.0,-0.0,-0.0,-0.0,-0.0,-0.0,-0.0,-0.0,-0.0,-0.0,-0.0,-0.0,-0.0,-0.0,-0.0,-0.2668,-0.2521,-0.229,-0.1994,-0.1819,-0.1576,-0.1202,-0.0896,-0.0307,0.0823,0.1004,0.1187,0.1574,0.1404,0.139,0.1685,0.1662,0.1757,0.2084,0.2109,0.2237,0.2469,0.257,0.2757,0.3047,0.3187,0.3505,0.3984,0.3868,0.4026,0.4361,0.4277,0.4351,0.4467,0.4549,0.4577,0.4498,0.0,0.0,0.5098,0.0,0.5055,0.5686,0.5125,0.5277,0.5638,0.5483,0.5428,0.5476,0.616,0.6309,0.6306,0.6441,0.6769,0.0,0.0,0.0,0.0,0.0,0.0,0.0,0.0,0.0,0.0119,0.0,0.0,0.0,0.0,0.0,0.0,0.0,0.0,0.0,0.0,0.0,0.0,0.0,0.0,0.0,0.0,0.0,0.0,0.0,0.0,0.1803,0.3553,0.5526,0.6647,0.6668,0.681,0.6881,0.6865,0.7163,0.7326,0.7329,0.7636,0.7406,0.6429,0.2046,-0.0,-0.0,-0.0,-0.0,-0.0,-0.0,-0.0,-0.0,-0.0,-0.0,-0.0,-0.0,-0.0,-0.0,-0.0,-0.0,-0.0,-0.2439,-0.2251,-0.1996,-0.1789,-0.1566,-0.1398,-0.1197,-0.0103,0.0803,0.1215,0.1336,0.1805,0.2731,0.2269,0.2162,0.2761,0.252,0.0,0.2544,0.0,0.2609,0.2727,0.2773,0.2978,0.3343,0.3491,0.3658,0.3841,0.3971,0.4023,0.3893,0.4273,0.4395,0.4255,0.4773,0.4852,0.4559,0.0,0.5185,0.0,0.5249,0.5709,0.0,0.5693,0.5641,0.5837,0.548,0.5428,0.5494,0.0,0.619,0.5913,0.0,0.7114,0.6725,0.7057,0.0,0.0,0.0,0.0,0.0,0.0,0.1295,0.0,0.0,0.0,0.0,0.0,0.0,0.0,0.0,0.0,0.0,0.0,0.0,0.0,0.0,0.0,0.0,0.0,0.0,0.0,0.0,0.0,0.0,0.5889,0.623,0.6469,0.6651,0.6767,0.6791,0.6788,0.7059,0.7125,0.7135,0.7151,0.5127,0.0931,0.0285,-0.0,-0.0,-0.0,-0.0,-0.0,-0.0,-0.0,-0.0,-0.0,-0.0,-0.0,-0.0,-0.0,-0.0,-0.0,-0.0,-0.0,-0.1851,-0.1786,-0.1648,-0.1468,-0.1304,-0.1074,-0.0519,0.0429,0.1159,0.14,0.1403,0.1787,0.296,0.0,0.0,0.0,0.0,0.294,0.0,0.0,0.3278,0.3776,0.3244,0.3222,0.3747,0.3663,0.3724,0.3935,0.4075,0.4181,0.4206,0.4433,0.4511,0.4492,0.4814,0.0,0.4742,0.0,0.5491,0.0,0.0,0.0,0.0,0.5717,0.5579,0.5717,0.5586,0.5545,0.5703,0.0,0.6093,0.0,0.0,0.0,0.0,0.0,0.0,0.0,0.0,0.0,0.0,0.0,0.0,0.0,0.1397,0.0,0.1963,0.0,0.0,0.0,0.0,0.0,0.0,0.0,0.0,0.0,0.0,0.0,0.0,0.0,0.0,0.0,0.0,0.0,0.0,0.0,0.0,0.4866,0.6412,0.6472,0.6561,0.6599,0.5621,0.5062,0.5043,0.3719,0.1989,-0.0,-0.0,-0.0,-0.0,-0.0,-0.0,-0.0,-0.0,-0.0,-0.0,-0.0,-0.0,-0.0,-0.0,-0.0,-0.0,-0.0,-0.0,-0.0,-0.1325,-0.1365,-0.1372,-0.1222,-0.1152,-0.0801,0.0162,0.0828,0.129,0.1403,0.0,0.0,0.326,0.2835,0.0,0.0,0.3929,0.3734,0.0,0.0,0.3822,0.0,0.0,0.0,0.0,0.4019,0.4041,0.4191,0.4258,0.4368,0.4584,0.464,0.4723,0.4758,0.4867,0.49,0.4988,0.0,0.5511,0.5807,0.6255,0.635,0.6241,0.58,0.5621,0.5647,0.5647,0.5715,0.5796,0.5779,0.6106,0.0,0.6092,0.0,0.0,0.0,0.0,0.0,0.6022,0.0,0.0,0.0,0.0,0.0,0.0,0.0,0.0,0.0,0.0,0.0,0.0,0.0,0.0923,0.055,0.0,0.0,0.0,0.0,0.0,0.0,0.0,0.0,0.0,0.0,0.0,0.0,0.3243,0.0,0.5507,0.6086,0.6369,0.643,0.5102,0.3787,0.2664,0.0867,-0.0,-0.0,-0.0,-0.0,-0.0,-0.0,-0.0,-0.0,-0.0,-0.0,-0.0,-0.0,-0.0,-0.0,-0.0,-0.0,-0.0,-0.0,-0.0,-0.0,-0.0896,-0.1033,-0.1172,-0.111,-0.1171,-0.0754,0.0669,0.0,0.0,0.0,0.0,0.0,0.0,0.0,0.0,0.0,0.0,0.4737,0.4599,0.0,0.4134,0.0,0.0,0.4241,0.0,0.4664,0.4791,0.4803,0.4558,0.4619,0.4803,0.4861,0.4886,0.4911,0.5029,0.5067,0.5074,0.5345,0.5437,0.5448,0.5599,0.5606,0.5686,0.0,0.594,0.5793,0.5793,0.0,0.0,0.6142,0.6146,0.0,0.0,0.0,0.0,0.0,0.0,0.0,0.0,0.0,0.0,0.4442,0.0,0.0,0.0,0.0,0.4722,0.0,0.0,0.0,0.0,0.1787,0.1098,0.0771,-0.0121,0.0,0.0,0.0,0.0,0.0,0.0,0.0,0.0,0.0,0.0,0.209,0.2163,0.2643,0.3834,0.5397,0.6332,0.6329,0.6247,0.4218,0.0168,-0.0,-0.0,-0.0,-0.0,-0.0,-0.0,-0.0,-0.0,-0.0,-0.0,-0.0,-0.0,-0.0,-0.0,-0.0,-0.0,-0.0,-0.0,-0.0,-0.0,-0.0,-0.0274,-0.0327,-0.0544,-0.0881,0.0,0.0,0.0,0.1258,0.0,0.0,0.0,0.0,0.0,0.5157,0.5266,0.0,0.0,0.56,0.5738,0.5403,0.0,0.0,0.0,0.5036,0.0,0.0,0.0,0.4796,0.4738,0.4744,0.4822,0.4976,0.5044,0.5043,0.5238,0.5322,0.0,0.0,0.0,0.0,0.0,0.7492,0.6976,0.0,0.0,0.5952,0.5952,0.6017,0.0,0.6108,0.6142,0.6183,0.6332,0.6561,0.6767,0.6919,0.6944,0.0,0.0,0.0,0.6216,0.5159,0.0,0.0,0.0,0.0,0.0,0.0,0.0,0.0,0.0,0.245,0.1656,0.1147,0.0518,-0.0058,0.0,0.0,0.0,0.0,0.0,0.0,0.0,0.0,0.0,-0.1057,-0.0529,0.0542,0.0,0.2996,0.3661,0.4137,0.5523,0.5621,0.421,0.1356,-0.0,-0.0,-0.0,-0.0,-0.0,-0.0,-0.0,-0.0,-0.0,-0.0,-0.0,-0.0,-0.0,-0.0,-0.0,-0.0,-0.0,-0.0,-0.0,-0.0,0.0347,0.0348,0.0,0.0,0.0,0.0,0.0,0.0,0.0,0.0,0.3604,0.0,0.5924,0.0,0.6157,0.0,0.6632,0.6378,0.643,0.6119,0.0,0.6034,0.5715,0.0,0.0,0.0,0.0,0.0,0.51,0.5142,0.5347,0.5202,0.5118,0.5178,0.5243,0.5494,0.5903,0.0,0.6253,0.0,0.0,0.8449,0.0,0.0,0.6997,0.7087,0.0,0.7227,0.7306,0.6817,0.6703,0.6777,0.6294,0.6335,0.6633,0.6633,0.708,0.7384,0.6753,0.7253,0.0,0.6457,0.7012,0.0,0.6596,0.0,0.0,0.0,0.0,0.0,0.0,0.0,0.2046,0.1431,0.096,0.0393,0.0,-0.111,0.0,0.0,0.0,0.0,0.0,0.0,-0.2186,-0.2445,-0.1934,-0.1056,0.0,0.0,0.1399,0.1961,0.3337,0.4025,0.4042,0.1346,-0.0,-0.0,-0.0,-0.0,-0.0,-0.0,-0.0,-0.0,-0.0,-0.0,-0.0,-0.0,-0.0,-0.0,-0.0,-0.0,-0.0,-0.0,-0.0,-0.0,0.0,0.0,0.0,0.0,0.0463,0.0,0.0,0.0,0.3566,0.0,0.417,0.5412,0.5716,0.6309,0.694,0.7584,0.7343,0.0,0.6742,0.6437,0.0,0.0,0.5914,0.5778,0.562,0.0,0.0,0.0,0.0,0.5741,0.6358,0.5555,0.5246,0.5375,0.5128,0.0,0.6792,0.6135,0.6539,0.7624,0.8503,0.8533,0.8115,0.8833,0.0,0.913,0.9224,0.9296,0.9145,0.8161,0.7859,0.7629,0.6718,0.6416,0.6416,0.6412,0.7099,0.7629,0.6718,0.8244,0.9683,0.8263,0.0,0.0,0.0,0.0,0.6935,0.0,0.0,0.0,0.0,0.0,0.2246,0.1647,0.1202,0.0561,-0.0449,-0.0709,0.0,0.0,0.0,0.0,0.0,-0.2171,-0.2299,-0.2114,-0.2053,-0.1909,0.0,0.0,-0.0368,-0.0,-0.0,-0.0,-0.0,-0.0,-0.0,-0.0,-0.0,-0.0,-0.0,-0.0,-0.0,-0.0,-0.0,-0.0,-0.0,-0.0,-0.0,-0.0,-0.0,-0.0,-0.0,-0.0,-0.0,-0.0,0.1483,0.1419,0.1348,0.0,0.1395,0.1526,0.0,0.0,0.0,0.0,0.4805,0.5724,0.6762,0.7344,0.7697,0.776,0.7685,0.0,0.0,0.0,0.0,0.6383,0.6495,0.6451,0.6141,0.6214,0.0,0.6916,0.0,0.6477,0.6413,0.5909,0.5577,0.5449,0.5811,0.6296,0.6792,0.6806,0.6877,0.7013,0.9114,0.909,0.0,0.0,1.0248,1.0073,0.9535,0.9296,0.9296,0.8993,0.8389,0.7859,0.8389,0.8008,0.7553,0.8313,0.8694,0.8846,0.8618,0.903,0.9376,0.8983,0.9273,0.9394,0.0,0.0,0.0,0.0,0.0,0.0,0.0,0.0,0.0,0.232,0.1317,0.0505,-0.0056,0.0,0.0,-0.1008,0.0,0.0,-0.1819,-0.2002,-0.2096,-0.2164,-0.211,-0.2106,0.0,0.0,0.0,-0.0,-0.0,-0.0,-0.0,-0.0,-0.0,-0.0,-0.0,-0.0,-0.0,-0.0,-0.0,-0.0,-0.0,-0.0,-0.0,-0.0,-0.0,-0.0,-0.0,-0.0,-0.0,-0.0,-0.0,-0.0,0.1772,0.0,0.0,0.2128,0.0,0.0,0.2659,0.0,0.0,0.4862,0.5806,0.0,0.7191,0.7724,0.7977,0.7824,0.7811,0.0,0.7265,0.0,0.0,0.6692,0.6773,0.6688,0.6287,0.6207,0.0,0.7074,0.0,0.7081,0.6847,0.6531,0.6348,0.6338,0.639,0.6654,0.711,0.7478,0.7358,0.7134,0.8991,0.0,0.0,0.9946,1.0678,1.0696,1.0622,1.0576,1.0571,1.0121,0.9588,0.914,0.9296,0.8917,0.8542,0.9145,0.9599,0.9895,0.9448,0.9976,1.0496,1.0045,1.0168,1.0118,0.9421,0.8714,0.8004,0.0,0.0,0.0,0.0,0.0,0.0,0.2509,0.1449,0.0628,0.0,0.0,0.0,0.0,-0.0992,0.0,-0.1569,-0.1793,-0.1929,-0.2053,-0.2058,-0.2176,0.0,0.0,0.0,-0.0501,-0.0154,-0.0,-0.0,-0.0,-0.0,-0.0,-0.0,-0.0,-0.0,-0.0,-0.0,-0.0,-0.0,-0.0,-0.0,-0.0,-0.0,-0.0,-0.0,-0.0,-0.0,-0.0,-0.0,-0.0,0.0,0.0,0.0,0.0,0.0,0.0,0.0,0.4611,0.0,0.5616,0.0,0.7567,0.7145,0.7684,0.7987,0.7851,0.0,0.7723,0.7448,0.7411,0.7278,0.7,0.682,0.6603,0.6325,0.6129,0.635,0.0,0.7265,0.7478,0.7583,0.7212,0.7191,0.7462,0.6836,0.0,0.0,0.8056,0.7843,0.7344,0.8259,0.839,0.8181,0.9667,1.0308,1.0565,1.1694,1.2224,1.215,1.1316,1.0938,1.0634,0.9895,0.9599,0.9523,0.9674,1.0346,1.0789,0.9895,1.095,1.2077,1.1236,1.1111,1.1065,1.0686,0.9351,0.8043,0.7662,0.6673,0.5826,0.0,0.0,0.0,0.2536,0.0,0.0,0.0,0.0,0.0,0.0,0.0,0.0,0.0,-0.1513,-0.1757,-0.1867,-0.1869,-0.2039,0.0,0.0,0.0,-0.1183,-0.0539,0.0,-0.0,0.0,-0.0,-0.0,-0.0,-0.0,-0.0,-0.0,-0.0,-0.0,-0.0,-0.0,-0.0,-0.0,-0.0,-0.0,-0.0,-0.0,-0.0,-0.0,-0.0,-0.0,0.0,0.0,0.0,0.0,0.0,0.3964,0.58,0.5252,0.4994,0.5899,0.6588,0.7012,0.7263,0.7744,0.8028,0.8001,0.7997,0.0,0.0,0.0,0.0,0.7302,0.7034,0.6807,0.6627,0.6341,0.652,0.0,0.7069,0.7366,0.801,0.7327,0.7159,0.7509,0.7175,0.0,0.7384,0.8116,0.0,0.6783,0.7484,0.7283,0.6761,0.791,0.8268,0.8533,1.0415,1.162,1.2305,1.2077,1.1465,1.0938,1.1545,1.1242,1.0714,1.1545,1.1922,1.1996,1.1848,1.2003,1.2224,1.2077,1.2035,1.1608,0.9981,0.9322,0.8584,0.6876,0.6391,0.6103,0.5826,0.0,0.0,0.0,0.0,0.0,0.0,0.0,0.0,0.0,0.0,0.0,0.0,0.0,0.0,0.0,0.0,0.0,0.0,0.0,0.0,0.0,0.0,0.0,0.0,0.0,-0.0,-0.0,-0.0,-0.0,-0.0,-0.0,-0.0,-0.0,-0.0,-0.0,-0.0,-0.0,-0.0,-0.0,-0.0,-0.0,-0.0,-0.0,-0.0,-0.0,0.0,0.0,0.0,0.0,0.0,0.0,0.0,0.6068,0.0,0.6891,0.7137,0.7341,0.7508,0.7808,0.8038,0.8038,0.8038,0.7943,0.7716,0.7638,0.7495,0.7261,0.7044,0.0,0.6705,0.6471,0.6759,0.7473,0.7463,0.7685,0.8125,0.766,0.7488,0.7479,0.7188,0.7194,0.0,0.0,0.0,0.6742,0.6727,0.6572,0.6412,0.7403,0.7783,0.8084,1.011,1.1087,1.162,1.215,1.1996,1.1694,1.215,1.1996,1.1694,1.215,1.2305,1.2305,1.2305,1.2305,1.2305,1.2305,1.2305,1.1922,1.0415,0.9669,0.8841,0.7403,0.6641,0.621,0.5829,0.5198,0.0,0.0,0.0,0.0,0.0,0.0,0.0,0.0,0.0,0.0,0.0,0.0,0.0,0.0,0.0,0.0,0.0,0.0,0.0,0.0,0.0,0.0,0.0,0.0,0.0,-0.0,-0.0,-0.0,-0.0,-0.0,-0.0,-0.0,-0.0,-0.0,-0.0,-0.0,-0.0,-0.0,-0.0,-0.0,-0.0,-0.0,-0.0,-0.0,0.0,0.5413,0.0,0.0,0.5489,0.0,0.6161,0.6783,0.7311,0.7741,0.7862,0.7862,0.7862,0.7967,0.8038,0.8038,0.8038,0.794,0.7709,0.7634,0.7492,0.7248,0.7068,0.6888,0.6705,0.6583,0.6893,0.0,0.7884,0.8043,0.8192,0.8025,0.7719,0.0,0.0,0.0,0.0,0.0,0.6434,0.6649,0.6225,0.6122,0.6416,0.7176,0.7629,0.8008,0.9814,1.0634,1.0938,1.1996,1.2305,1.2305,1.2305,1.2305,1.2305,1.2305,1.2305,1.2305,1.2305,1.2305,1.2305,1.2305,1.2351,1.2074,1.0801,0.9933,0.9052,0.7714,0.6872,0.6224,0.5947,0.5598,0.0,0.0,0.0,0.0,0.0,0.0,0.0,0.0,0.0,0.0,0.0,0.0,0.0,0.0,0.0,-0.1651,-0.1647,-0.165,0.0,0.0,0.0,-0.1403,-0.1087,0.0,-0.0,0.0,-0.0,-0.0,-0.0,-0.0,-0.0,-0.0,-0.0,-0.0,-0.0,-0.0,-0.0,-0.0,-0.0,-0.0,-0.0,-0.0,-0.0,-0.0,0.0,0.0,0.0,0.0,0.0,0.0,0.0,0.7115,0.707,0.7898,0.8018,0.8018,0.8018,0.8031,0.8038,0.8038,0.8038,0.8028,0.8001,0.7746,0.7587,0.7556,0.7275,0.699,0.6705,0.6685,0.6785,0.0,0.0,0.8385,0.0,0.8124,0.7642,0.0,0.0,0.0,0.0,0.6541,0.6399,0.6051,0.6034,0.6122,0.6338,0.6412,0.7022,0.7936,0.9069,1.0045,1.0938,1.1996,1.2305,1.2305,1.2305,1.2305,1.2305,1.2305,1.2305,1.2305,1.2305,1.2305,1.2305,1.2305,1.2505,1.217,0.9949,0.9525,0.9072,0.6902,0.6338,0.6257,0.624,0.597,0.5485,0.0,0.0,0.0,0.0,0.0,0.0,0.0,0.0,0.0,0.0,0.0,0.0,0.0,0.0,-0.205,-0.2056,-0.1649,-0.1276,-0.0906,0.0,-0.1327,-0.1124,-0.0333,0.0,-0.0,-0.0,-0.0,-0.0,-0.0,-0.0,-0.0,-0.0,-0.0,-0.0,-0.0,-0.0,-0.0,-0.0,-0.0,-0.0,-0.0,-0.0,-0.0,0.0,0.0,0.0,0.0,0.0,0.0,0.0,0.7353,0.7575,0.7932,0.8038,0.8038,0.8038,0.8038,0.8038,0.8038,0.8038,0.8001,0.7909,0.7712,0.756,0.7465,0.7173,0.6959,0.6841,0.6749,0.6884,0.0,0.0,0.0,0.0,0.0,0.0,0.0,0.0,0.6662,0.646,0.6293,0.6235,0.6169,0.6169,0.6207,0.6338,0.6338,0.6567,0.7099,0.8689,0.9593,1.0121,1.1774,1.2305,1.2305,1.2305,1.2305,1.2305,1.2305,1.2425,1.2565,1.2565,1.2705,1.2799,1.2612,1.2318,1.1582,0.9844,0.9008,0.8265,0.6713,0.6322,0.6338,0.6338,0.621,0.5822,0.0,0.0,0.0,0.0,0.0,0.0,0.0,0.0,0.0,0.0,0.0,0.0,0.0,0.0,0.0,-0.194,-0.1719,-0.1433,-0.0926,0.0,-0.1977,-0.2391,-0.0815,-0.0,-0.0,-0.0,-0.0,-0.0,-0.0,-0.0,-0.0,-0.0,-0.0,-0.0,-0.0,-0.0,-0.0,-0.0,-0.0,-0.0,-0.0,-0.0,-0.0,0.7604,0.0,0.8144,0.0,0.7691,0.7905,0.7293,0.7701,0.8092,0.8045,0.8038,0.8038,0.8038,0.8038,0.8038,0.8038,0.8038,0.7994,0.7885,0.7743,0.7594,0.7444,0.7193,0.0,0.6929,0.6824,0.6909,0.7188,0.7604,0.0,0.0,0.0,0.0,0.0,0.6536,0.6453,0.6479,0.6218,0.6162,0.6338,0.6338,0.6338,0.6338,0.6338,0.649,0.6945,0.8313,0.9221,0.997,1.1397,1.2077,1.2305,1.2305,1.2305,1.2318,1.2405,1.2346,1.2369,1.2775,1.2557,1.2178,1.2376,1.1732,1.08,0.9443,0.8599,0.7776,0.6662,0.6332,0.6338,0.6338,0.6338,0.6012,0.5269,0.0,0.0,0.0,0.0,0.0,0.0,0.2226,0.1668,0.1044,0.0,0.0,0.0,0.0,0.0,-0.2219,-0.2038,0.0,0.0,0.0,0.0,0.0,-0.1358,-0.0329,-0.0,-0.0,-0.0,-0.0,-0.0,-0.0,-0.0,-0.0,-0.0,-0.0,-0.0,-0.0,-0.0,-0.0,-0.0,-0.0,-0.0,-0.0,-0.0,0.8616,0.924,0.9674,0.8835,0.8462,0.8269,0.8269,0.8265,0.8214,0.8058,0.8038,0.8038,0.8038,0.8038,0.8038,0.8038,0.8038,0.8038,0.8035,0.7892,0.7746,0.0,0.0,0.7227,0.6936,0.6926,0.6851,0.6702,0.0,0.0,0.7793,0.0,0.6955,0.6791,0.6631,0.6486,0.6338,0.6335,0.6335,0.6338,0.6338,0.6338,0.6338,0.6338,0.6949,0.7783,0.7783,0.9059,1.0783,1.0783,1.1465,1.2305,1.2305,1.2305,1.2365,1.2728,1.196,1.1313,1.2798,1.1496,1.0029,1.1238,1.0854,0.9888,0.853,0.8319,0.7975,0.6553,0.6264,0.6338,0.6338,0.6338,0.6133,0.5607,0.0,0.0,0.0,0.0,0.0,0.0,0.2953,0.2161,0.1607,0.0,0.0,0.0,0.0,0.0,0.0,0.0,0.0,-0.161,-0.2228,0.0,-0.3224,-0.2119,-0.1069,-0.0,-0.0,-0.0,-0.0,-0.0,-0.0,-0.0,-0.0,-0.0,-0.0,-0.0,-0.0,-0.0,-0.0,-0.0,-0.0,-0.0,-0.0,-0.0,0.8598,0.8874,0.9028,0.8652,0.8397,0.8272,0.8272,0.818,0.8133,0.8187,0.8106,0.8038,0.8038,0.8038,0.8038,0.0,0.8038,0.8038,0.0,0.7896,0.779,0.7746,0.7506,0.7326,0.7234,0.7126,0.7,0.6858,0.0,0.0,0.0,0.7228,0.6812,0.6627,0.6661,0.664,0.6556,0.6451,0.6407,0.6396,0.6298,0.6338,0.6338,0.6338,0.649,0.6872,0.7557,0.8689,0.9895,1.0565,1.1596,1.2605,1.2605,1.2465,1.2318,1.2418,1.2503,1.2602,1.3101,1.2325,1.1539,1.1699,1.0511,0.9176,0.848,0.7761,0.71,0.6397,0.6339,0.6376,0.6278,0.6339,0.6116,0.5277,0.572,0.0,0.0,0.0,0.0,0.0,0.357,0.2456,0.0,-0.0285,0.0,0.0,0.0,0.0,0.0,0.0,0.0,0.0,-0.2339,0.0,-0.322,-0.2884,-0.1782,-0.0,-0.0,-0.0,-0.0,-0.0,-0.0,-0.0,-0.0,-0.0,-0.0,-0.0,-0.0,-0.0,-0.0,-0.0,-0.0,-0.0,-0.0,-0.0,0.8562,0.8665,0.8611,0.8574,0.8445,0.8333,0.8279,0.8187,0.814,0.8177,0.8099,0.8038,0.8038,0.8038,0.0,0.8038,0.8038,0.8038,0.8038,0.795,0.7872,0.7811,0.7584,0.7431,0.7279,0.0,0.0,0.7007,0.7362,0.7534,0.7523,0.7039,0.6793,0.6696,0.6725,0.6702,0.6695,0.66,0.6559,0.6549,0.6461,0.6427,0.6427,0.6427,0.6427,0.6503,0.713,0.8068,0.8999,0.9611,1.095,1.2279,1.2279,1.2472,1.2645,1.2645,1.2668,1.2792,1.3206,1.2189,1.107,1.1255,0.9762,0.8127,0.7812,0.7181,0.6617,0.6322,0.6332,0.6366,0.6278,0.6332,0.6205,0.5565,0.5944,0.5976,0.5075,0.0,0.0,0.0,0.0,0.0,0.0,0.0668,0.0,0.0,0.0,0.0,0.0,0.0,0.0,-0.1166,-0.2125,0.0,-0.3165,-0.3188,-0.2152,-0.0,-0.0,-0.0,-0.0,-0.0,-0.0,-0.0,-0.0,-0.0,-0.0,-0.0,-0.0,-0.0,-0.0,-0.0,-0.0,-0.0,-0.0,-0.0,0.8665,0.8584,0.0,0.0,0.856,0.0,0.8289,0.8262,0.8208,0.8072,0.8045,0.8038,0.8038,0.8038,0.8038,0.8038,0.0,0.0,0.0,0.8038,0.7875,0.7734,0.7692,0.7546,0.7122,0.7148,0.7061,0.7139,0.7139,0.7139,0.7136,0.6917,0.6857,0.6939,0.6881,0.6816,0.6729,0.6719,0.6715,0.6715,0.6705,0.6702,0.6702,0.6702,0.6702,0.6702,0.6702,0.7353,0.8164,0.8164,0.9634,1.1427,1.1513,1.2265,1.318,1.322,1.2662,1.2282,1.3307,1.137,0.926,1.0179,0.8738,0.7051,0.6766,0.6692,0.6607,0.6332,0.6352,0.6352,0.6352,0.6352,0.6274,0.6342,0.6338,0.629,0.6221,0.0,0.0,0.0,0.0,0.0,0.0,0.2338,-0.0226,0.0,0.0,0.0,0.0,0.0,-0.1358,-0.1464,-0.1503,-0.1948,-0.2941,-0.301,-0.1989,-0.0,-0.0,-0.0,-0.0,-0.0,-0.0,-0.0,-0.0,-0.0,-0.0,-0.0,-0.0,-0.0,-0.0,-0.0,-0.0,-0.0,-0.0,-0.0,0.0,0.0,0.8367,0.8509,0.8319,0.8174,0.8258,0.817,0.8123,0.8204,0.8113,0.8038,0.8038,0.8038,0.8038,0.8038,0.8038,0.8038,0.8038,0.8038,0.8024,0.7888,0.7741,0.7647,0.7607,0.726,0.7075,0.7139,0.7139,0.7139,0.7139,0.7017,0.7004,0.7088,0.7051,0.7037,0.7031,0.7008,0.6963,0.6953,0.6749,0.6702,0.6702,0.6702,0.6702,0.6702,0.6702,0.7353,0.8164,0.8164,0.9243,1.0699,1.1524,1.2159,1.2588,1.3087,1.3166,1.3218,1.3559,1.1833,1.0129,1.0499,0.8742,0.6929,0.6742,0.661,0.6508,0.6437,0.6424,0.6424,0.6424,0.6424,0.6386,0.6278,0.6338,0.6053,0.5373,0.5864,0.5889,0.0,0.5351,0.5989,0.6237,0.4337,0.2784,0.0,0.0,0.0,0.0,-0.1387,-0.1152,-0.0386,-0.0402,-0.0496,-0.0752,-0.0782,-0.0542,-0.0,-0.0,-0.0,-0.0,-0.0,-0.0,-0.0,-0.0,-0.0,-0.0,-0.0,-0.0,-0.0,-0.0,-0.0,-0.0,-0.0,-0.0,-0.0,0.8862,0.8743,0.8557,0.8492,0.835,0.8225,0.8174,0.8092,0.8069,0.8153,0.8092,0.8038,0.8038,0.8038,0.8038,0.8038,0.8038,0.8038,0.8038,0.8038,0.8038,0.8038,0.7896,0.7811,0.7711,0.7426,0.7292,0.7139,0.7139,0.7139,0.7139,0.7139,0.7139,0.7139,0.7139,0.7139,0.7136,0.7061,0.7114,0.7107,0.6936,0.6902,0.6902,0.6902,0.6902,0.6902,0.6902,0.7236,0.7658,0.7658,0.8564,0.9672,1.0349,1.1363,1.236,1.2674,1.3289,1.3649,1.2997,1.1701,1.0284,0.9283,0.7916,0.682,0.6807,0.6685,0.6576,0.6576,0.6576,0.6556,0.6485,0.6471,0.6427,0.6285,0.5948,0.5526,0.507,0.5485,0.5626,0.5154,0.5839,0.6396,0.6471,0.5629,0.4899,0.4376,0.0,0.0,-0.1218,-0.1286,-0.0958,-0.0,-0.0,-0.0,-0.0,-0.0,-0.0,-0.0,-0.0,-0.0,-0.0,-0.0,-0.0,-0.0,-0.0,-0.0,-0.0,-0.0,-0.0,-0.0,-0.0,-0.0,-0.0,-0.0,-0.0,-0.0,0.8872,0.8903,0.8788,0.8526,0.8465,0.8357,0.8082,0.8038,0.8038,0.8038,0.8038,0.8038,0.8038,0.8038,0.8038,0.8038,0.8038,0.8038,0.8038,0.8038,0.8038,0.8038,0.8017,0.7935,0.7714,0.7619,0.7389,0.7139,0.7139,0.7139,0.7139,0.7139,0.7139,0.7139,0.7139,0.7139,0.7139,0.7139,0.7139,0.7139,0.7139,0.7139,0.7139,0.7139,0.7139,0.7139,0.7139,0.7139,0.7139,0.7139,0.7753,0.8627,0.8803,1.0269,1.1809,1.198,1.2772,1.3334,1.2236,1.1144,0.9826,0.7632,0.6919,0.677,0.6898,0.681,0.6709,0.6729,0.6715,0.6661,0.6529,0.6488,0.6424,0.6203,0.5473,0.4996,0.4902,0.0,0.5159,0.5159,0.5978,0.6536,0.6612,0.6491,0.6224,0.5832,0.2813,0.0341,0.0,-0.1077,-0.082,-0.0247,-0.0084,-0.0,-0.0,-0.0,-0.0,-0.0,-0.0,-0.0,-0.0,-0.0,-0.0,-0.0,-0.0,-0.0,-0.0,-0.0,-0.0,-0.0,-0.0,-0.0,-0.0,-0.0,-0.0,-0.0,0.8855,0.873,0.8537,0.8489,0.8384,0.8245,0.8065,0.8038,0.8038,0.8038,0.8038,0.8038,0.8038,0.8038,0.8038,0.8038,0.8038,0.8038,0.8038,0.8038,0.8038,0.8038,0.8018,0.7946,0.7914,0.7619,0.7295,0.7139,0.7139,0.7139,0.7139,0.7139,0.7139,0.7139,0.7139,0.7139,0.7139,0.7139,0.7139,0.7139,0.7139,0.7139,0.7139,0.7139,0.7139,0.7139,0.7139,0.7139,0.7139,0.7139,0.7228,0.7577,0.854,0.9148,0.9579,1.0611,1.1042,1.1295,1.202,1.0758,0.8765,0.7336,0.6926,0.6898,0.6922,0.681,0.6736,0.6868,0.679,0.6695,0.6668,0.6559,0.6265,0.5575,0.5162,0.4812,0.4258,0.0,0.511,0.519,0.5997,0.6532,0.6688,0.6595,0.5716,0.3787,0.4688,0.3744,-0.0,-0.0763,-0.1099,-0.112,-0.0346,-0.0,-0.0,-0.0,-0.0,-0.0,-0.0,-0.0,-0.0,-0.0,-0.0,-0.0,-0.0,-0.0,-0.0,-0.0,-0.0,-0.0,-0.0,-0.0,-0.0,-0.0,-0.0,-0.0,0.8866,0.8693,0.8482,0.8482,0.8364,0.8218,0.8062,0.8038,0.8038,0.8038,0.8038,0.8038,0.8038,0.8038,0.8038,0.8038,0.8038,0.8038,0.8038,0.8038,0.8038,0.8038,0.8038,0.7933,0.7801,0.766,0.738,0.7139,0.7139,0.7139,0.7139,0.7139,0.7139,0.7139,0.7139,0.7139,0.7139,0.7139,0.7139,0.7139,0.7139,0.7139,0.7139,0.7139,0.7139,0.7139,0.7139,0.7139,0.7139,0.7139,0.7139,0.7228,0.7753,0.8364,0.8978,0.9492,0.9666,0.984,1.0351,0.9226,0.7822,0.7145,0.6987,0.6949,0.7024,0.6929,0.6865,0.701,0.6987,0.6912,0.6837,0.6698,0.6465,0.5842,0.5361,0.0,0.0,0.4917,0.5275,0.5359,0.6128,0.6776,0.6922,0.6763,0.5744,0.3513,0.3056,0.2096,0.0089,-0.079,-0.1057,-0.063,-0.0178,-0.0,-0.0,-0.0,-0.0,-0.0,-0.0,-0.0,-0.0,-0.0,-0.0,-0.0,-0.0,-0.0,-0.0,-0.0,-0.0,-0.0,-0.0,-0.0,-0.0,-0.0,-0.0,-0.0,0.8879,0.8693,0.8482,0.8482,0.8364,0.8231,0.8109,0.8092,0.8092,0.8092,0.8092,0.8079,0.8041,0.8038,0.8038,0.8038,0.8038,0.8038,0.8038,0.8038,0.8038,0.8038,0.8007,0.7865,0.7604,0.766,0.7414,0.7139,0.7139,0.7139,0.7139,0.7139,0.7139,0.7139,0.7139,0.7139,0.7139,0.7139,0.7139,0.7139,0.7139,0.7139,0.7139,0.7139,0.7139,0.7139,0.7139,0.7139,0.7139,0.7139,0.7139,0.7139,0.7139,0.7753,0.8452,0.8452,0.8452,0.8452,0.8452,0.7841,0.7139,0.7139,0.7058,0.7007,0.7115,0.7054,0.7007,0.7115,0.7139,0.7095,0.6956,0.6831,0.6622,0.6147,0.0,0.0,0.0,0.5241,0.5618,0.5817,0.6427,0.6987,0.7126,0.692,0.6198,0.455,0.1696,-0.0,-0.0,-0.0632,-0.0732,-0.0,-0.0,-0.0,-0.0,-0.0,-0.0,-0.0,-0.0,-0.0,-0.0,-0.0,-0.0,-0.0,-0.0,-0.0,-0.0,-0.0,-0.0,-0.0,-0.0,-0.0,-0.0,-0.0,-0.0,-0.0,0.8879,0.8693,0.8482,0.8482,0.8364,0.8269,0.8255,0.8252,0.8252,0.8252,0.8252,0.8201,0.8055,0.8038,0.8038,0.8038,0.8038,0.8038,0.8038,0.8038,0.8038,0.8038,0.8007,0.7856,0.7604,0.7461,0.7309,0.7139,0.7139,0.7139,0.7139,0.7139,0.7139,0.7139,0.7139,0.7139,0.7139,0.7139,0.7139,0.7139,0.7139,0.7139,0.7139,0.7139,0.7139,0.7139,0.7139,0.7139,0.7139,0.7139,0.7139,0.7139,0.7139,0.7139,0.7228,0.7228,0.7228,0.7228,0.7228,0.7139,0.7139,0.7139,0.7132,0.7129,0.7139,0.7132,0.7129,0.7139,0.7139,0.7095,0.6956,0.6919,0.6691,0.5954,0.0,0.0,0.5667,0.5598,0.5823,0.6721,0.6837,0.6987,0.7126,0.7068,0.6992,0.6828,0.2599,-0.0,-0.0,-0.0091,-0.0094,-0.0,-0.0,-0.0,-0.0,-0.0,-0.0,-0.0,-0.0,-0.0,-0.0,-0.0,-0.0,-0.0,-0.0,-0.0,-0.0,-0.0,-0.0,-0.0,-0.0,-0.0,-0.0,-0.0,-0.0,-0.0,0.8632,0.8414,0.8265,0.8448,0.8286,0.816,0.8255,0.8187,0.8126,0.8126,0.8126,0.8106,0.8045,0.8038,0.8038,0.8038,0.8038,0.8038,0.8038,0.8038,0.8038,0.8038,0.7984,0.7983,0.7832,0.7587,0.7342,0.7285,0.7187,0.7139,0.7139,0.7139,0.7139,0.7139,0.7139,0.7489,0.8189,0.8464,0.8556,0.8556,0.8556,0.8025,0.7139,0.7139,0.7577,0.8101,0.7404,0.7577,0.8105,0.7312,0.7139,0.7139,0.7139,0.7139,0.7139,0.7139,0.7139,0.7139,0.7139,0.7139,0.7139,0.7139,0.7139,0.7139,0.7139,0.7139,0.7139,0.7139,0.7139,0.7126,0.7068,0.699,0.6738,0.6336,0.0,0.6197,0.6194,0.627,0.655,0.6954,0.7058,0.7119,0.7268,0.7295,0.6809,0.573,0.357,0.1572,0.0091,-0.0,-0.0,-0.0,-0.0,-0.0,-0.0,-0.0,-0.0,-0.0,-0.0,-0.0,-0.0,-0.0,-0.0,-0.0,-0.0,-0.0,-0.0,-0.0,-0.0,-0.0,-0.0,-0.0,-0.0,-0.0,-0.0,-0.0,0.8533,0.8316,0.8191,0.8438,0.8275,0.8147,0.8255,0.818,0.813,0.8174,0.814,0.8113,0.8113,0.8069,0.8038,0.8038,0.8038,0.8038,0.8038,0.8038,0.8038,0.8038,0.8038,0.797,0.7914,0.7672,0.7429,0.737,0.7265,0.7214,0.7214,0.7214,0.7214,0.721,0.7514,0.8101,0.8978,0.9598,0.996,1.0149,0.9529,0.8995,0.8548,0.7929,0.836,0.9318,0.8532,0.8536,0.8803,0.7929,0.7404,0.7139,0.7139,0.7139,0.7149,0.72,0.7177,0.7139,0.7139,0.7139,0.7139,0.7139,0.7139,0.7139,0.7139,0.7139,0.7139,0.7139,0.7139,0.7139,0.7139,0.7099,0.6981,0.689,0.693,0.6893,0.6804,0.6984,0.7177,0.7272,0.7285,0.7326,0.7434,0.7444,0.6942,0.5751,0.5027,0.3287,0.0187,-0.0,-0.0,-0.0,-0.0,-0.0,-0.0,-0.0,-0.0,-0.0,-0.0,-0.0,-0.0,-0.0,-0.0,-0.0,-0.0,-0.0,-0.0,-0.0,-0.0,-0.0,-0.0,-0.0,-0.0,-0.0,-0.0,-0.0,0.8652,0.8472,0.8316,0.8459,0.8364,0.8272,0.8272,0.8269,0.8319,0.8462,0.836,0.8272,0.8272,0.8133,0.8041,0.8038,0.8038,0.8038,0.8038,0.8038,0.8038,0.8038,0.8038,0.797,0.7818,0.7675,0.7529,0.7373,0.7373,0.7373,0.7373,0.7373,0.7373,0.7458,0.8448,0.8894,0.8978,1.0096,1.1073,1.1646,0.9685,1.0043,1.1554,0.9685,0.9579,1.0611,1.0611,0.9836,0.889,0.889,0.8105,0.7139,0.7143,0.7143,0.7173,0.7326,0.7265,0.7143,0.7143,0.7143,0.7143,0.7143,0.7143,0.7139,0.7143,0.7143,0.7143,0.7143,0.7143,0.7143,0.7143,0.7272,0.7373,0.7373,0.7502,0.76,0.76,0.76,0.76,0.76,0.76,0.76,0.76,0.7513,0.7435,0.7553,0.7246,0.5055,0.0286,-0.0,-0.0,-0.0,-0.0,-0.0,-0.0,-0.0,-0.0,-0.0,-0.0,-0.0,-0.0,-0.0,-0.0,-0.0,-0.0,-0.0,-0.0,-0.0,-0.0,-0.0,-0.0,-0.0,-0.0,-0.0,-0.0,-0.0,0.8404,0.8411,0.8431,0.8476,0.8364,0.8272,0.8272,0.8177,0.8163,0.8316,0.8296,0.8272,0.8272,0.8231,0.816,0.8048,0.8038,0.8038,0.8038,0.8038,0.8038,0.8038,0.8038,0.8018,0.7974,0.7727,0.7627,0.7678,0.7483,0.7436,0.7533,0.7533,0.7984,0.8882,0.898,1.0046,1.1625,1.171,1.2381,1.3322,1.1849,1.0804,1.0144,1.0111,0.9836,0.9405,0.9405,0.9148,0.8803,0.7929,0.7401,0.716,0.7268,0.7302,0.7333,0.7489,0.7499,0.7461,0.7461,0.7461,0.7438,0.7329,0.7221,0.7197,0.7414,0.738,0.7333,0.7441,0.7461,0.7461,0.7461,0.7502,0.7533,0.7533,0.757,0.76,0.76,0.76,0.7638,0.7736,0.7658,0.7638,0.774,0.7667,0.7597,0.7492,0.7276,0.4997,0.0297,-0.0,-0.0,-0.0,-0.0,-0.0,-0.0,-0.0,-0.0,-0.0,-0.0,-0.0,-0.0,-0.0,-0.0,-0.0,-0.0,-0.0,-0.0,-0.0,-0.0,-0.0,-0.0,-0.0,-0.0,-0.0,-0.0,-0.0,0.8448,0.8513,0.8554,0.8492,0.8411,0.8316,0.8197,0.8099,0.8116,0.8326,0.8306,0.8316,0.8431,0.834,0.8235,0.814,0.8075,0.8038,0.8038,0.8038,0.8038,0.8038,0.8038,0.8038,0.8038,0.7889,0.7811,0.7714,0.7528,0.7488,0.7682,0.7685,0.8149,0.8879,0.9622,1.0529,1.151,1.2797,1.3411,1.3448,1.2244,1.1305,1.0549,1.0101,0.9749,0.9579,0.9579,0.9323,0.8803,0.8017,0.7531,0.7268,0.7478,0.7506,0.7492,0.7641,0.7645,0.76,0.76,0.76,0.759,0.7553,0.7431,0.737,0.7556,0.7529,0.7489,0.758,0.76,0.76,0.76,0.7645,0.7682,0.7682,0.7733,0.7773,0.7773,0.7773,0.7804,0.7892,0.7824,0.7807,0.7892,0.7815,0.7333,0.6161,0.6969,0.6208,0.3285,0.1105,-0.0,-0.0,-0.0,-0.0,-0.0,-0.0,-0.0,-0.0,-0.0,-0.0,-0.0,-0.0,-0.0,-0.0,-0.0,-0.0,-0.0,-0.0,-0.0,-0.0,-0.0,-0.0,-0.0,-0.0,-0.0,-0.0,0.8682,0.871,0.8662,0.8509,0.8472,0.8367,0.8082,0.8038,0.8143,0.8425,0.835,0.8374,0.8642,0.8431,0.8265,0.8252,0.8123,0.8038,0.8038,0.8038,0.8038,0.8038,0.8038,0.8038,0.8038,0.8004,0.7931,0.7731,0.7634,0.7634,0.7731,0.7931,0.8028,0.8111,1.0197,1.056,0.9714,1.3182,1.3843,1.2434,1.1473,1.151,1.1815,0.9859,0.9607,1.0294,1.0467,0.9703,0.8765,0.8765,0.8158,0.7421,0.7719,0.7723,0.7648,0.779,0.774,0.7638,0.7638,0.7638,0.7672,0.7797,0.7736,0.7638,0.7638,0.7628,0.7624,0.7638,0.7638,0.7638,0.7638,0.7743,0.7831,0.7831,0.7946,0.8038,0.8038,0.8038,0.8038,0.8038,0.8038,0.8038,0.8038,0.8028,0.6973,0.4514,0.6399,0.7643,0.7723,0.33,0.0605,0.0402,0.0403,0.0404,0.0404,0.0404,0.0202,-0.0,-0.0,-0.0,-0.0,-0.0,-0.0,-0.0,-0.0,-0.0,-0.0,-0.0,-0.0,-0.0,-0.0,-0.0,-0.0,-0.0,-0.0,-0.0,0.8703,0.871,0.8662,0.8509,0.8391,0.8255,0.8069,0.8038,0.8106,0.8292,0.8289,0.8296,0.836,0.8309,0.8221,0.8099,0.8058,0.8038,0.8038,0.8038,0.8038,0.8038,0.8038,0.8038,0.8038,0.8007,0.7991,0.7892,0.7892,0.7892,0.7892,0.7991,0.8576,0.9543,0.974,1.0233,1.09,1.1457,1.18,1.1897,1.1159,1.0563,1.0144,1.0288,0.9459,0.8211,0.9097,0.8746,0.787,0.787,0.7625,0.7421,0.7719,0.779,0.7794,0.7946,0.7967,0.7943,0.7943,0.7943,0.795,0.798,0.7967,0.7943,0.7943,0.7851,0.7797,0.7919,0.7943,0.7943,0.7943,0.797,0.7991,0.7991,0.8018,0.8038,0.8038,0.8038,0.8038,0.8038,0.8038,0.8038,0.8038,0.8048,0.7727,0.7208,0.575,0.5147,0.5897,0.615,0.5352,0.3213,0.312,0.3122,0.3115,0.3115,0.2113,-0.0,-0.0,-0.0,-0.0,-0.0,-0.0,-0.0,-0.0,-0.0,-0.0,-0.0,-0.0,-0.0,-0.0,-0.0,-0.0,-0.0,-0.0,-0.0,0.8696,0.8652,0.8557,0.8408,0.8319,0.8218,0.8062,0.8038,0.8096,0.8252,0.8272,0.8296,0.8364,0.8313,0.8208,0.8055,0.8038,0.8038,0.8038,0.8038,0.8038,0.8038,0.8038,0.8038,0.8038,0.8038,0.8038,0.8038,0.8038,0.8038,0.8038,0.8038,0.8333,0.9114,0.951,0.9702,0.9793,1.0913,1.0736,0.9817,1.0205,1.015,0.9737,0.9362,0.8574,0.7571,0.8206,0.808,0.7611,0.7678,0.7648,0.7621,0.7848,0.7919,0.7936,0.8018,0.8038,0.8038,0.8038,0.8038,0.8038,0.8038,0.8038,0.8038,0.8038,0.7977,0.7943,0.8024,0.8038,0.8038,0.8038,0.8038,0.8038,0.8038,0.8038,0.8038,0.8038,0.8038,0.8038,0.8038,0.8038,0.8038,0.8038,0.798,0.7977,0.7965,0.6691,0.6077,0.6637,0.7481,0.7381,0.5937,0.5954,0.5859,0.5939,0.5937,0.5233,0.3831,0.1209,-0.0,-0.0,-0.0,-0.0,-0.0,-0.0,-0.0,-0.0,-0.0,-0.0,-0.0,-0.0,-0.0,-0.0,-0.0,-0.0,-0.0,0.8693,0.8574,0.8418,0.8292,0.8248,0.8187,0.8058,0.8038,0.8085,0.8214,0.8231,0.8275,0.8394,0.8303,0.818,0.8052,0.8038,0.8038,0.8038,0.8038,0.8038,0.8038,0.8038,0.8038,0.8038,0.8038,0.8038,0.8038,0.8038,0.8038,0.8038,0.8038,0.8038,0.8038,0.9118,0.9004,0.8096,1.0338,0.9807,0.7719,0.8921,0.9523,0.9571,0.819,0.7638,0.7638,0.7638,0.7638,0.7658,0.7801,0.7831,0.7838,0.7991,0.8038,0.8038,0.8038,0.8038,0.8038,0.8038,0.8038,0.8038,0.8038,0.8038,0.8038,0.8038,0.8038,0.8038,0.8038,0.8038,0.8038,0.8038,0.8038,0.8038,0.8038,0.8038,0.8038,0.8038,0.8038,0.8038,0.8038,0.8038,0.8038,0.8038,0.8038,0.8048,0.7965,0.7969,0.7969,0.7969,0.7975,0.7975,0.7969,0.7995,0.8002,0.7982,0.7972,0.7975,0.7985,0.3519,0.0906,-0.0,-0.0,-0.0,-0.0,-0.0,-0.0,-0.0,-0.0,-0.0,-0.0,-0.0,-0.0,-0.0,-0.0,-0.0,-0.0,0.873,0.852,0.834,0.8282,0.816,0.8065,0.8041,0.8038,0.8045,0.8069,0.8072,0.8079,0.8099,0.8082,0.8062,0.8041,0.8038,0.8038,0.8038,0.8038,0.8038,0.8038,0.8038,0.8038,0.8038,0.8038,0.8038,0.8038,0.8038,0.8038,0.8038,0.8038,0.8038,0.8038,0.8237,0.8062,0.7741,0.8326,0.8137,0.7631,0.7948,0.8013,0.7991,0.7832,0.7784,0.7784,0.7784,0.7784,0.7804,0.7957,0.7919,0.7838,0.7991,0.8038,0.8038,0.8038,0.8038,0.8038,0.8038,0.8038,0.8038,0.8038,0.8038,0.8038,0.8038,0.8038,0.8038,0.8038,0.8038,0.8038,0.8038,0.8038,0.8038,0.8038,0.8038,0.8038,0.8038,0.8038,0.8038,0.8038,0.8038,0.8038,0.8038,0.8038,0.8041,0.8045,0.8045,0.8045,0.8045,0.8045,0.8045,0.8045,0.8048,0.8048,0.8045,0.8045,0.7955,0.7975,0.726,0.4524,-0.0,-0.0,-0.0,-0.0,-0.0,-0.0,-0.0,-0.0,-0.0,-0.0,-0.0,-0.0,-0.0,-0.0,-0.0,-0.0,0.8516,0.8323,0.8163,0.8143,0.8085,0.8038,0.8038,0.8038,0.8038,0.8038,0.8038,0.8038,0.8038,0.8038,0.8038,0.8038,0.8038,0.8038,0.8038,0.8038,0.8038,0.8038,0.8038,0.8038,0.8038,0.8038,0.8038,0.8038,0.8038,0.8038,0.8038,0.8038,0.8038,0.8038,0.8038,0.7902,0.7841,0.794,0.7902,0.7851,0.7913,0.7902,0.7855,0.7916,0.794,0.794,0.794,0.794,0.7946,0.8018,0.7994,0.795,0.8018,0.8038,0.8038,0.8038,0.8038,0.8038,0.8038,0.8038,0.8038,0.8038,0.8038,0.8038,0.8038,0.8038,0.8038,0.8038,0.8038,0.8038,0.8038,0.8038,0.8038,0.8038,0.8038,0.8038,0.8038,0.8038,0.8038,0.8038,0.8038,0.8038,0.8038,0.8038,0.8038,0.8038,0.8038,0.8038,0.8038,0.8038,0.8038,0.8038,0.8038,0.8038,0.8038,0.8038,0.8045,0.7955,0.7965,0.5937,0.2209,0.0704,-0.0,-0.0,-0.0,-0.0,-0.0,-0.0,-0.0,-0.0,-0.0,-0.0,-0.0,-0.0,-0.0,-0.0]},{"header":{"parameterUnit":"m.s-1","parameterCategory":1,"la1":30.6,"la2":28.766,"lo1":-90.7593,"lo2":-88.6598,"dy":0.0162,"dx":0.0183,"nx":116,"ny":114,"refTime":"2023-06-08T06:00:00:Z","depth":0,"parameterNumber":3,"parameterNumberName":"V-component_of_WINDS"},"data":[0.0,0.0,0.0,0.0,0.0,0.0,0.0,0.0,0.0,0.0,0.0,0.0,0.0,0.0,0.0,0.0,0.0,0.0,0.0,0.0,0.0,0.0,0.0,0.0,0.0,0.0,0.0,0.0,0.0,0.0,0.0,0.0,0.0,0.0,0.0,0.0,0.0,0.0,0.0,0.0,0.0,0.0,0.0,0.0,0.0,0.0,0.0,0.0,0.0,0.0,0.0,0.0,0.0,0.0,0.0,0.0,0.0,0.0,0.0,0.0,0.0,0.0,0.0,0.0,0.0,0.0,0.0,0.0,0.0,0.0,0.0,0.0,0.0,0.0,0.0,0.0,0.0,0.0,0.0,0.0,0.0,0.0,0.0,0.0,0.0,0.0,0.0,0.0,0.0,0.0,0.0,0.0,0.0,0.0,0.0,0.0,0.0,0.0,0.0,0.0,0.0,0.0,0.0,0.0,0.0,0.0,0.0,0.0,0.0,0.0,0.0,0.0,0.0,0.0,0.0,0.0,0.0,0.0,0.0,0.0,0.0,0.0,0.0,0.0,0.0,0.0,0.0,0.0,0.0,0.0,0.0,0.0,0.0,0.0,0.0,0.0,0.0,0.0,0.0,0.0,0.0,0.0,0.0,0.0,0.0,0.0,0.0,0.0,0.0,0.0,0.0,0.0,0.0,0.0,0.0,0.0,0.0,0.0,0.0,0.0,0.0,0.0,0.0,0.0,0.0,0.0,0.0,0.0,0.0,0.0,0.0,0.0,0.0,0.0,0.0,0.0,0.0,0.0,0.0,0.0,0.0,0.0,0.0,0.0,0.0,0.0,0.0,0.0,0.0,0.0,0.0,0.0,0.0,0.0,0.0,0.0,0.0,0.0,0.0,0.0,0.0,0.0,0.0,0.0,0.0,0.0,0.0,0.0,0.0,0.0,0.0,0.0,0.0,0.0,0.0,0.0,0.0,0.0,0.0,0.0,0.0,0.0,0.0,0.0,0.0,0.0,0.0,0.0,0.0,0.0,0.0,0.0,0.0,0.0,0.0,0.0,0.0,0.0,0.0,0.0,0.0,0.0,0.0,0.0,0.0,0.0,0.0,0.0,0.0,0.0,0.0,0.0,0.0,0.0,0.0,0.0,0.0,0.0,0.0,0.0,0.0,0.0,0.0,0.0,0.0,0.0,0.0,0.0,0.0,0.0,0.0,0.0,0.0,0.0,0.0,0.0,0.0,0.0,0.0,0.0,0.0,0.0,0.0,0.0,0.0,0.0,0.0,0.0,0.0,0.0,0.0,0.0,0.0,0.0,0.0,0.0,0.0,0.0,0.0,0.0,0.0,0.0,0.0,0.0,0.0,0.0,0.0,0.0,0.0,0.0,0.0,0.0,0.0,0.0,0.0,0.0,0.0,0.0,0.0,0.0,0.0,0.0,0.0,0.0,0.0,0.0,0.0,0.0,0.0,0.0,0.0,0.0,0.0,0.0,0.0,0.0,0.0,0.0,0.0,0.0,0.0,0.0,0.0,0.0,0.0,0.0,0.0,0.0,0.0,0.0,0.0,0.0,0.0,0.0,0.0,0.0,0.0,0.0,0.0,0.0,0.0,0.0,0.0,0.0,0.0,0.0,0.0,0.0,0.0,0.0,0.0,0.0,0.0,0.0,0.0,0.0,0.0,0.0,0.0,0.0,0.0,0.0,0.0,0.0,0.0,0.0,0.0,0.0,0.0,0.0,0.0,0.0,0.0,0.0,0.0,0.0,0.0,0.0,0.0,0.0,0.0,0.0,0.0,0.0,0.0,0.0,0.0,0.0,0.0,0.0,0.0,0.0,0.0,0.0,0.0,0.0,0.0,0.0,0.0,0.0,0.0,0.0,0.0,0.0,0.0,0.0,0.0,0.0,0.0,0.0,0.0,0.0,0.0,0.0,0.0,0.0,0.0,0.0,0.0,0.0,0.0,0.0,0.0,0.0,0.0,0.0,0.0,0.0,0.0,0.0,0.0,0.0,0.0,0.0,0.0,0.0,0.0,0.0,0.0,0.0,0.0,0.0,0.0,0.0,0.0,0.0,0.0,0.0,0.0,0.0,0.0,0.0,0.0,0.0,0.0,0.0,0.0,0.0,0.0,0.0,0.0,0.0,0.0,0.0,0.0,0.0,0.0,0.0,0.0,0.0,0.0,0.0,0.0,0.0,0.0,0.0,0.0,0.0,0.0,0.0,0.0,0.0,0.0,0.0,0.0,0.0,0.0,0.0,0.0,0.0,0.0,0.0,0.0,0.0,0.0,0.0,0.0,0.0,0.0,0.0,0.0,0.0,0.0,0.0,0.0,0.0,0.0,0.0,0.0,0.0,0.0,0.0,0.0,0.0,0.0,0.0,0.0,0.0,0.0,0.0,0.0,0.0,0.0,0.0,0.0,0.0,0.0,0.0,0.0,0.0,0.0,0.0,0.0,0.0,0.0,0.0,0.0,0.0,0.0,0.0,0.0,0.0,0.0,0.0,0.0,0.0,0.0,0.0,0.0,0.0,0.0,0.0,0.0,0.0,0.0,0.0,0.0,0.0,0.0,0.0,0.0,0.0,0.0,0.0,0.0,0.0,0.0,0.0,0.0,0.0,0.0,0.0,0.0,0.0,0.0,0.0,0.0,0.0,0.0,0.0,0.0,0.0,0.0,0.0,0.0,0.0,0.0,0.0,0.0,0.0,0.0,0.0,0.0,0.0,0.0,0.0,0.0,0.0,0.0,0.0,0.0,0.0,0.0,0.0,0.0,0.0,0.0,0.0,0.0,0.0,0.0,0.0,0.0,0.0,0.0,0.0,0.0,0.0,0.0,0.0,0.0,0.0,0.0,0.0,0.0,0.0,0.0,0.0,0.0,0.0,0.0,0.0,0.0,0.0,0.0,0.0,0.0,0.0,0.0,0.0,0.0,0.0,0.0,0.0,0.0,0.0,0.0,0.0,0.0,0.0,0.0,0.0,0.0,0.0,0.0,0.0,0.0,0.0,0.0,0.0,0.0,0.0,0.0,0.0,0.0,0.0,0.0,0.0,0.0,0.0,0.0,0.0,0.0,0.0,0.0,0.0,0.0,0.0,0.0,0.0,0.0,0.0,0.0,0.0,0.0,0.0,0.0,0.0,0.0,0.0,0.0,0.0,0.0,0.0,0.0,0.0,0.0,0.0,0.0,0.0,0.0,0.0,0.0,0.0,0.0,0.0,0.0,0.0,0.0,0.0,0.0,0.0,0.0,0.0,0.0,0.0,0.0,0.0,0.0,0.0,0.0,0.0,0.0,0.0,0.0,0.0,0.0,0.0,0.0,0.0,0.0,0.0,0.0,0.0,0.0,0.0,0.0,0.0,0.0,0.0,0.0,0.0,0.0,0.0,0.0,0.0,0.0,0.0,0.0,0.0,0.0,0.0,0.0,0.0,0.0,0.0,0.0,0.0,0.0,0.0,0.0,0.0,0.0,0.0,0.0,0.0,0.0,0.0,0.0,0.0,0.0,0.0,0.0,0.0,0.0,0.0,0.0,0.0,0.0,0.0,0.0,0.0,0.0,0.0,0.0,0.0,0.0,0.0,0.0,0.0,0.0,0.0,0.0,0.0,0.0,0.0,0.0,0.0,0.0,0.0,0.0,0.0,0.0,0.0,0.0,0.0,0.0,0.0,0.0,0.0,0.0,0.0,0.0,0.0,0.0,0.0,0.0,0.0,0.0,0.0,0.0,0.0,0.0,0.0,0.0,0.0,0.0,0.0,0.0,0.0,0.0,0.0,0.0,0.0,0.0,0.0,0.0,0.0,0.0,0.0,0.0,0.0,0.0,0.0,0.0,0.0,0.0,0.0,0.0,0.0,0.0,0.0,0.0,0.0,0.0,0.0,0.0,0.0,0.0,0.0,0.0,0.0,0.0,0.0,0.0,0.0,0.0,0.0,0.0,0.0,0.0,0.0,0.0,0.0,0.0,0.0,0.0,0.0,0.0,0.0,0.0,0.0,0.0,0.0,0.0,0.0,0.0,0.0,0.0,0.0,0.0,0.0,0.0,0.0,0.0,0.0,0.0,0.0,0.0,0.0,0.0,0.0,0.0,0.0,0.0,0.0,0.0,0.0,0.0,0.0,0.0,0.0,0.0,0.0,0.0,0.0,0.0,0.0,0.0,0.0,0.0,0.0,0.0,0.0,0.0,0.0,0.0,0.0,0.0,0.0,0.0,0.0,0.0,0.0,0.0,0.0,0.0,0.0,0.0,0.0,0.0,0.0,0.0,0.0,0.0,0.0,0.0,0.0,0.0,0.0,0.0,0.0,0.0,0.0,0.0,0.0,0.0,0.0,0.0,0.0,0.0,0.0,0.0,0.0,0.0,0.0,0.0,0.0,0.0,0.0,0.0,0.0,0.0,0.0,0.0,0.0,0.0,0.0,0.0,0.0,0.0,0.0,0.0,0.0,0.0,0.0,0.0,0.0,0.0,0.0,0.0,0.0,0.0,0.0,0.0,0.0,0.0,0.0,0.0,0.0,0.0,0.0,0.0,0.0,0.0,0.0,0.0,0.0,0.0,0.0,0.0,0.0,0.0,0.0,0.0,0.0,0.0,0.0,0.0,0.0,0.0,0.0,0.0,0.0,0.0,0.0,0.0,0.0,0.0,0.0,0.0,0.0,0.0,0.0,0.0,0.0,0.0,0.0,0.0,0.0,0.0,0.0,0.0,0.0,0.0,0.0,0.0,0.0,0.0,0.0,0.0,0.0,0.0,0.0,0.0,0.0,0.0,0.0,0.0,0.0,0.0,0.0,0.0,0.0,0.0,0.0,0.0,0.0,0.0,0.0,0.0,0.0,0.0,0.0,0.0,0.0,0.0,0.0,0.0,0.0,0.0,0.0,0.0,0.0,0.0,0.0,0.0,0.0,0.0,0.0,0.0,0.0,0.0,0.0,0.0,0.0,0.0,0.0,0.0,0.0,0.0,0.0,0.0,0.0,0.0,0.0,0.0,0.0,0.0,0.0,0.0,0.0,0.0,0.0,0.0,0.0,0.0,0.0,0.0,0.0,0.0,0.0,0.0,0.0,0.0,0.0,0.0,0.0,0.0,0.0,0.0,0.0,0.0,0.0,0.0,0.0,0.0,0.0,0.0,0.0,0.0,0.0,0.0,0.0,0.0,0.0,0.0,0.0,0.0,0.0,0.0,0.0,0.0,0.0,0.0,0.0,0.0,0.0,0.0,0.0,0.0,0.0,0.0,0.0,0.0,0.0,0.0,0.0,0.0,0.0,0.0,0.0,0.0,0.0,0.0,0.0,0.0,0.0,0.0,0.0,0.0,0.0,0.0,0.0,0.0,0.0,0.0,0.0,0.0,0.0,0.0,0.0,0.0,0.0,0.0,0.0,0.0,0.0,0.0,0.0,0.0,0.0,0.0,0.0,0.0,0.0,0.0,0.0,0.0,0.0,0.0,0.0,0.0,0.0,0.0,0.0,0.0,0.0,0.0,0.0,0.0,0.0,0.0,0.0,0.0,0.0,0.0,0.0,0.0,0.0,0.0,0.0,0.0,0.0,0.0,0.0,0.0,0.0,0.0,0.0,0.0,0.0,0.0,0.0,0.0,0.0,0.0,0.0,0.0,0.0,0.0,0.0,0.0,0.0,0.0,0.0,0.0,0.0,0.0,0.0,0.0,0.0,0.0,0.0,0.0,0.0,0.0,0.0,0.0,0.0,0.0,0.0,0.0,0.0,0.0,0.0,0.0,0.0,0.0,0.0,0.0,0.0,0.0,0.0,0.0,0.0,0.0,0.0,0.0,0.0,0.0,0.0,0.0,0.0,0.0,0.0,0.0,0.0,0.0,0.0,0.0,0.0,0.0,0.0,0.0,0.0,0.0,0.0,0.0,0.0,0.0,0.0,0.0,0.0,0.0,0.0,0.0,0.0,0.0,0.0,0.0,0.0,0.0,0.0,0.0,0.0,0.0,0.0,0.0,0.0,0.0,0.0,0.0,0.0,0.0,0.0,0.0,0.0,0.0,0.0,0.0,0.0,0.0,0.0,0.0,0.0,0.0,0.0,0.0,0.0,0.0,0.0,0.0,0.0,0.0,0.0,0.0,0.0,0.0,0.0,-2.208,0.0,0.0,0.0,0.0,0.0,0.0,0.0,0.0,0.0,0.0,0.0,0.0,0.0,0.0,0.0,0.0,0.0,0.0,0.0,0.0,0.0,0.0,0.0,0.0,0.0,0.0,0.0,0.0,0.0,0.0,0.0,0.0,0.0,0.0,0.0,0.0,0.0,0.0,-1.5149,-1.5429,-1.6179,-1.7338,-1.7312,-1.6951,-1.6342,0.0,0.0,0.0,0.0,0.0,0.0,0.0,0.0,0.0,0.0,0.0,0.0,0.0,0.0,0.0,0.0,0.0,0.0,0.0,0.0,0.0,0.0,0.0,0.0,0.0,0.0,0.0,0.0,0.0,0.0,0.0,0.0,0.0,0.0,0.0,0.0,0.0,0.0,0.0,0.0,0.0,0.0,0.0,0.0,0.0,0.0,0.0,0.0,0.0,0.0,0.0,0.0,0.0,0.0,0.0,0.0,0.0,0.0,0.0,0.0,0.0,0.0,0.0,0.0,0.0,0.0,0.0,0.0,0.0,0.0,0.0,-2.4125,0.0,0.0,0.0,0.0,0.0,0.0,0.0,0.0,0.0,0.0,0.0,0.0,0.0,0.0,0.0,0.0,0.0,0.0,0.0,0.0,0.0,0.0,0.0,-1.5325,-1.5414,-1.5419,-1.5553,-1.5644,0.0,0.0,0.0,0.0,0.0,0.0,0.0,-1.5606,-1.5562,-1.5642,-1.667,-1.7943,-1.9497,-2.0612,-2.048,-1.9296,-1.8557,0.0,0.0,0.0,0.0,0.0,0.0,0.0,0.0,0.0,0.0,0.0,0.0,0.0,0.0,0.0,0.0,0.0,0.0,0.0,0.0,0.0,0.0,0.0,0.0,0.0,0.0,0.0,0.0,0.0,0.0,0.0,0.0,0.0,0.0,0.0,0.0,0.0,0.0,0.0,0.0,0.0,0.0,0.0,0.0,0.0,0.0,0.0,0.0,0.0,0.0,0.0,0.0,0.0,0.0,0.0,0.0,0.0,0.0,0.0,0.0,0.0,0.0,0.0,0.0,-3.2492,-3.3104,-3.3761,-3.4126,-3.3996,-3.0578,-2.8991,-2.8755,0.0,0.0,0.0,0.0,0.0,0.0,0.0,0.0,0.0,0.0,0.0,0.0,0.0,0.0,0.0,0.0,0.0,0.0,0.0,0.0,0.0,0.0,-1.5786,-1.624,-1.6232,-1.6991,-1.7464,-1.7454,0.0,0.0,0.0,0.0,0.0,-1.7536,-1.6813,-1.6744,-1.7362,-1.9513,-2.1081,-2.2152,-2.4476,-2.5518,-2.5274,-2.1551,-1.9953,-2.0014,0.0,0.0,0.0,0.0,0.0,0.0,0.0,0.0,0.0,0.0,0.0,0.0,0.0,0.0,0.0,0.0,0.0,0.0,0.0,0.0,0.0,0.0,0.0,0.0,0.0,0.0,0.0,0.0,0.0,0.0,0.0,0.0,0.0,0.0,0.0,0.0,0.0,0.0,0.0,0.0,0.0,-2.1532,-2.2871,0.0,0.0,0.0,0.0,0.0,0.0,0.0,0.0,0.0,0.0,0.0,0.0,0.0,0.0,-3.2418,-3.3342,-3.4595,-3.6193,-3.5826,-3.5687,-3.5797,-3.5889,-3.6311,-3.6897,-3.5553,0.0,-3.2793,-3.1345,0.0,0.0,0.0,0.0,0.0,0.0,0.0,0.0,0.0,0.0,0.0,0.0,0.0,0.0,0.0,0.0,0.0,0.0,0.0,0.0,0.0,-1.6603,-1.7334,-1.7814,-1.9557,-2.0011,-1.8617,-1.948,0.0,0.0,0.0,-1.7578,-1.7894,-1.7967,-1.9072,-2.124,-2.3247,-2.4935,-2.6299,-2.8391,-2.9413,-2.9402,-2.7821,-2.5608,-2.3007,-2.2468,0.0,0.0,0.0,0.0,0.0,0.0,0.0,0.0,0.0,0.0,0.0,0.0,0.0,0.0,0.0,0.0,0.0,0.0,0.0,0.0,0.0,0.0,0.0,0.0,0.0,0.0,0.0,0.0,0.0,0.0,0.0,0.0,0.0,0.0,0.0,0.0,0.0,0.0,0.0,-2.3433,-2.5597,-2.6506,-2.7269,-2.7326,0.0,0.0,0.0,0.0,0.0,0.0,0.0,0.0,0.0,-3.1026,-3.2155,-3.3506,-3.5145,-3.5952,-3.7209,-3.8854,-3.9405,-4.0157,-4.1038,-4.1497,-4.1882,-4.2194,-4.1779,-4.0441,-3.8334,-3.5765,-3.4476,-3.4036,0.0,0.0,0.0,0.0,0.0,-2.9824,0.0,0.0,0.0,0.0,0.0,0.0,0.0,0.0,0.0,0.0,0.0,0.0,-1.7317,-1.8344,-1.9435,-2.0499,-2.2348,-2.2686,-2.0837,-2.1533,-2.1094,-1.8958,-1.8718,-1.8711,-1.8893,-2.009,-2.2014,-2.4659,-2.6619,-2.8429,-3.0106,-3.1852,-3.2776,-3.2994,-3.3566,-3.1161,-2.6619,-2.5697,-2.4549,-2.3277,0.0,0.0,0.0,0.0,0.0,0.0,0.0,0.0,0.0,0.0,0.0,0.0,0.0,0.0,0.0,0.0,0.0,0.0,0.0,0.0,0.0,0.0,0.0,0.0,0.0,0.0,0.0,0.0,0.0,0.0,0.0,0.0,0.0,0.0,0.0,0.0,0.0,-2.6264,-2.8739,-2.9532,-3.0395,-3.0534,0.0,0.0,0.0,0.0,0.0,0.0,-3.1417,-3.2364,-3.3973,-3.6424,-3.6923,-3.7588,-3.8432,-3.9239,-4.0249,-4.1442,-4.2653,-4.3846,-4.5039,-4.5626,-4.5902,-4.5902,-4.5902,-4.4874,-4.2983,-3.9859,-3.8059,-3.7184,-3.7032,-3.5864,-3.4418,-3.5008,-3.4721,-3.4212,0.0,0.0,0.0,0.0,0.0,0.0,0.0,0.0,0.0,0.0,0.0,-1.8237,-1.983,-2.1526,-2.3179,-2.4762,-2.5111,-2.5232,-2.5095,-2.3734,-2.2503,-2.1556,-2.0783,-2.0761,-2.159,-2.39,-2.5528,-2.6468,-2.8978,-3.1056,-3.274,-3.4481,-3.5724,-3.6479,-3.7077,-3.4971,-3.0807,-2.8126,-2.6505,-2.554,-2.3328,0.0,0.0,0.0,0.0,0.0,0.0,0.0,0.0,0.0,0.0,0.0,0.0,0.0,0.0,0.0,0.0,0.0,0.0,0.0,0.0,0.0,0.0,0.0,0.0,0.0,0.0,0.0,0.0,0.0,0.0,0.0,0.0,0.0,0.0,0.0,0.0,0.0,0.0,-3.0413,-3.2994,0.0,0.0,0.0,0.0,-3.245,-3.3161,-3.4308,-3.5805,-3.6666,-3.8224,-4.0694,-4.2268,-4.3461,-4.4287,-4.5076,-4.5516,-4.559,-4.5681,-4.5755,-4.5847,-4.5883,-4.5902,-4.5902,-4.5902,-4.5828,-4.5535,-4.3057,-4.113,-3.9643,-3.8964,-3.8596,-3.8486,-3.8523,-3.8044,-3.7474,0.0,0.0,0.0,0.0,0.0,0.0,0.0,0.0,-1.8964,-1.8502,-1.9398,-2.0516,-2.1683,-2.3823,-2.5857,-2.7558,-2.8264,-2.8192,-2.714,-2.6011,-2.4798,-2.3489,-2.2635,-2.3063,-2.4983,-2.6328,-2.8483,-3.1492,-3.2949,-3.4545,-3.6227,-3.7926,-3.8873,-3.9185,-4.0327,-3.9681,-3.7563,-3.3695,-3.1009,-2.9152,-2.67,-2.5425,0.0,0.0,0.0,0.0,0.0,0.0,0.0,0.0,0.0,0.0,0.0,0.0,0.0,0.0,0.0,0.0,0.0,0.0,0.0,0.0,0.0,0.0,0.0,0.0,0.0,0.0,0.0,0.0,0.0,0.0,0.0,0.0,0.0,0.0,0.0,0.0,0.0,-3.3761,-3.6092,0.0,0.0,-3.5996,-3.634,-3.6025,-3.7598,-3.9234,-4.0818,-4.1647,-4.2729,-4.414,-4.5259,-4.5957,-4.625,-4.6544,-4.6948,-4.7443,-4.6929,-4.6948,-4.7443,-4.7443,-4.7443,-4.7443,-4.7443,-4.715,-4.6617,-4.5755,-4.4452,-4.291,-4.2136,-4.1805,-4.1879,-4.2411,-4.243,-4.2228,0.0,0.0,0.0,0.0,0.0,0.0,0.0,0.0,-1.9945,-1.9763,-2.1225,-2.2949,-2.4706,-2.7155,-2.9363,-3.1116,-3.0994,-3.026,-2.8898,-2.7219,-2.5708,-2.4394,-2.4369,-2.5286,-2.7233,-2.9173,-3.1658,-3.4732,-3.5886,-3.7156,-3.857,-3.998,-4.0793,-4.1091,-4.2315,-4.2565,-4.1895,-3.8956,-3.6023,-3.3075,-3.0323,-2.8736,-2.7649,0.0,0.0,0.0,0.0,0.0,0.0,0.0,0.0,0.0,0.0,0.0,0.0,0.0,0.0,0.0,0.0,0.0,0.0,0.0,0.0,0.0,0.0,0.0,0.0,0.0,0.0,0.0,0.0,0.0,0.0,0.0,0.0,0.0,0.0,0.0,-3.5764,-3.7291,-3.9514,-4.0384,-3.8995,-3.974,-4.0438,-4.0764,-4.2625,-4.4406,-4.59,-4.6461,-4.7129,-4.7927,-4.8484,-4.8728,-4.8728,-4.8468,-4.8564,-4.8919,-4.8107,-4.7997,-4.8513,-4.8364,-4.8458,-4.8692,-4.8568,-4.8272,-4.7895,-4.7737,-4.7093,-4.6022,-4.4779,-4.4305,-4.436,-4.4911,-4.5112,-4.5076,0.0,0.0,0.0,0.0,0.0,0.0,0.0,-1.9982,-2.0363,-2.1283,-2.2996,-2.5414,-2.8863,-3.146,-3.3641,-3.5391,-3.316,-3.1314,-3.0525,-2.7343,-2.5151,-2.4355,-2.6022,-2.7411,-2.8388,-3.2516,-3.5097,-3.596,-3.7596,-3.8854,-3.9733,-4.0612,-4.1439,-4.223,-4.3085,-4.3484,-4.3484,-4.3484,-4.1203,-3.728,-3.411,-3.2244,-3.1013,0.0,0.0,0.0,0.0,0.0,0.0,0.0,0.0,0.0,0.0,0.0,0.0,0.0,0.0,0.0,0.0,0.0,0.0,0.0,0.0,0.0,0.0,0.0,0.0,0.0,0.0,0.0,0.0,0.0,0.0,0.0,0.0,0.0,-3.1518,-3.6369,-4.0121,-4.089,-4.3271,-4.4524,-4.3741,-4.474,-4.5823,-4.6676,-4.8194,-4.9602,-5.0789,-5.0856,-5.1185,-5.1979,-5.2016,-5.2035,-5.2035,-5.125,-5.066,-5.0288,-4.9415,-4.9005,-4.8971,-4.8587,-4.8818,-4.9512,-4.9113,-4.9177,-4.9475,-4.9075,-4.893,-4.8714,-4.6762,-4.5975,-4.5975,-4.5975,-4.5957,-4.5828,0.0,0.0,0.0,0.0,0.0,0.0,0.0,-2.0417,-2.0941,-2.134,-2.4487,-2.7558,-2.9821,-3.2333,-3.4526,-3.6219,-3.2929,-3.1191,-3.2228,-2.7972,-2.5929,-2.7048,-2.8145,-3.0018,-3.2778,-3.5183,-3.743,-3.9493,-4.0546,-4.1509,-4.2374,-4.3248,-4.3763,-4.4014,-4.4849,-4.5218,-4.5218,-4.5218,-4.4564,-4.3194,-3.9258,-3.6753,-3.511,0.0,0.0,0.0,0.0,0.0,0.0,0.0,0.0,0.0,0.0,0.0,0.0,0.0,0.0,0.0,0.0,0.0,0.0,0.0,0.0,0.0,0.0,0.0,0.0,0.0,0.0,0.0,0.0,0.0,0.0,0.0,0.0,-3.8226,-3.7893,-4.0497,-4.3023,-4.46,-4.6828,-4.7928,-4.7135,-4.8397,-4.9378,-4.9634,-5.0602,-5.1311,-5.1658,-5.1658,-5.1771,-5.1997,-5.2572,-5.2874,-5.2874,-5.2666,-5.2491,-5.2365,-5.155,-5.1155,-5.1136,-5.1011,-5.0773,-5.0428,-5.0338,-4.9981,-4.9475,-4.9386,-4.9326,-4.9227,-4.8087,-4.7645,-4.7645,-4.7645,-4.7278,-4.6746,0.0,0.0,0.0,0.0,0.0,0.0,0.0,-2.0245,-2.0852,-2.1681,-2.5232,-2.8498,-3.058,-3.316,-3.4988,-3.5603,-3.275,-3.0891,-3.0874,-2.8463,-2.7826,-2.9622,-3.1586,-3.3916,-3.6679,-3.8426,-4.0226,-4.2069,-4.2541,-4.3025,-4.3543,-4.4421,-4.4836,-4.4855,-4.5704,-4.6274,-4.6608,-4.6608,-4.6822,-4.6949,-4.4478,-4.1732,-3.8822,-3.6306,-3.4447,-3.2916,-3.0965,-3.0845,-3.0963,-2.6715,0.0,0.0,0.0,0.0,0.0,0.0,0.0,0.0,0.0,0.0,0.0,0.0,0.0,0.0,0.0,0.0,0.0,0.0,0.0,0.0,0.0,0.0,0.0,0.0,-3.9084,-4.3368,-4.5438,-4.6164,-4.6972,-4.8247,-4.9997,-5.0786,-4.9996,-5.1216,-5.2077,-5.2104,-5.2836,-5.3366,-5.3529,-5.3918,-5.3937,-5.3548,-5.4368,-5.4634,-5.4245,-5.3903,-5.365,-5.3471,-5.2665,-5.2247,-5.2247,-5.2076,-5.1945,0.0,-5.1638,-5.1353,-5.1028,-5.0472,-5.0266,0.0,0.0,0.0,0.0,0.0,-4.7886,-4.735,0.0,0.0,0.0,0.0,0.0,0.0,0.0,-1.9876,-2.0502,-2.2098,-2.5342,-2.842,-3.0825,-3.3346,-3.4639,-3.407,-3.2333,-3.0412,-2.8319,-2.9062,-3.0433,-3.2289,-3.5574,-3.819,-3.9939,-4.1736,-4.3044,-4.3806,-4.3904,-4.3943,-4.3962,-4.4765,-4.5117,-4.5156,-4.6055,-4.6876,-4.7603,-4.77,-4.8187,-4.8896,-4.8896,-4.6388,-4.2373,-3.9968,-3.8481,-3.7539,-3.6469,-3.6187,-3.589,-3.3049,0.0,0.0,0.0,0.0,0.0,0.0,0.0,0.0,0.0,0.0,0.0,0.0,0.0,0.0,0.0,0.0,0.0,0.0,0.0,0.0,0.0,0.0,0.0,0.0,-4.2814,-4.7184,-5.2701,-5.2375,-5.1621,-5.1773,-5.288,-5.3353,-5.2637,-5.3533,-5.4225,-5.4365,-5.4976,-5.5523,-5.5972,0.0,0.0,0.0,0.0,-5.678,-5.5992,-5.528,-5.4745,-5.4384,-5.3531,-5.311,-5.3066,-5.2626,-5.2774,-5.3317,-5.2958,-5.2966,-5.3105,-5.1886,-5.1285,-5.1015,-4.9527,-4.8963,-4.893,-4.8586,-4.8213,0.0,0.0,0.0,0.0,0.0,0.0,0.0,0.0,-2.0274,-2.1073,-2.2158,-2.4653,-2.7055,-2.8935,-3.0197,-3.1451,-3.279,-3.0729,-2.9513,-2.9877,-3.0802,-3.2686,-3.5779,-3.7916,-3.9843,-4.161,-4.3357,-4.4338,-4.4513,-4.5156,-4.5475,-4.5475,-4.5751,-4.5898,-4.5937,-4.6914,-4.744,-4.7651,-4.8354,-4.8744,-4.89,-4.89,-4.7944,-4.6301,-4.4428,-4.3159,-4.2083,-3.9819,-4.0285,-4.1384,-3.7254,-3.721,-3.7994,-3.2822,-3.0113,0.0,0.0,0.0,0.0,0.0,0.0,0.0,0.0,0.0,0.0,0.0,0.0,0.0,0.0,0.0,0.0,0.0,0.0,0.0,-4.3733,-4.8835,-5.3124,-5.4953,-5.6145,-5.6335,-5.5004,-5.5701,-5.6198,-5.6049,-5.6226,-5.6694,-5.7382,-5.6921,-5.6986,-5.7761,-5.728,0.0,-5.778,-5.7953,-5.7973,-5.78,-5.7646,-5.7527,-5.742,0.0,0.0,-5.6118,-5.5339,-5.4732,-5.4241,-5.418,-5.3776,-5.3145,-5.2179,-5.1223,-5.0278,-4.9618,-4.9386,-4.9386,-4.9295,-4.9232,-4.9141,0.0,0.0,0.0,0.0,0.0,0.0,0.0,-1.9941,-2.0619,-2.1891,-2.3917,-2.5888,-2.7577,-2.8579,-2.9371,-2.995,-2.8568,-2.8598,-3.0803,-3.2648,-3.5161,-3.8541,-4.0806,-4.2614,-4.3918,-4.5266,-4.5744,-4.5312,-4.6138,-4.6332,-4.5906,-4.5978,-4.5994,-4.603,-4.6982,-4.7673,-4.8203,-4.9082,-4.9726,-5.0156,-5.0156,-4.9883,-4.9277,-4.7129,-4.5762,-4.4824,-4.3516,-4.3867,-4.4472,-4.1353,-4.116,-4.1515,-3.7507,-3.5236,-3.3268,0.0,0.0,0.0,0.0,0.0,0.0,0.0,0.0,0.0,0.0,0.0,0.0,0.0,0.0,-3.6667,0.0,0.0,-4.6129,-4.8218,-5.2256,-5.5684,-5.7376,-5.8357,-5.8434,-5.7146,-5.7396,-5.7646,-5.7646,-5.7646,-5.7838,-5.828,-5.7896,-5.7838,-5.828,-5.8261,-5.8261,-5.83,-5.8684,-5.8704,-5.83,-5.83,-5.83,-5.83,-5.7857,-5.7415,-5.6973,-5.6549,-5.5876,-5.5107,-5.5107,-5.4857,-5.4395,-5.3549,-5.2581,-5.1606,-5.0966,-5.0214,-4.9504,-4.9504,-4.9636,-4.98,0.0,0.0,0.0,0.0,0.0,0.0,0.0,-1.946,-1.9899,-2.1343,-2.2799,-2.4309,-2.5913,-2.6873,-2.732,-2.7127,-2.6817,-2.8185,-3.19,-3.437,-3.731,-4.0982,-4.3434,-4.5045,-4.5757,-4.6491,-4.6626,-4.6103,-4.6641,-4.6621,-4.6103,-4.6123,-4.6109,-4.6152,-4.7218,-4.8154,-4.8974,-4.9832,-5.0656,-5.1342,-5.1367,-5.1269,-5.0898,-4.8691,-4.7422,-4.6758,-4.6426,-4.6069,-4.56,-4.4569,-4.3965,-4.332,-4.1406,-3.998,-3.8188,-3.3963,-3.2787,0.0,0.0,0.0,0.0,0.0,0.0,0.0,0.0,0.0,-3.6209,-3.8592,-4.0329,-4.1896,-4.3425,-4.6875,-5.0216,-5.2363,-5.4811,-5.7165,-5.9204,-5.9646,-5.9511,-5.8858,-5.8646,-5.8607,-5.8781,-5.8627,-5.8607,-5.8781,-5.8627,-5.8607,-5.8781,-5.9242,-5.9281,-5.88,-5.9415,-5.9435,-5.88,-5.88,-5.88,-5.8781,-5.8607,-5.8165,-5.7453,-5.7146,-5.6607,-5.5934,-5.5761,-5.5607,-5.5415,-5.4761,-5.3991,-5.3126,-5.2433,-5.127,-4.9955,-4.9803,-4.9949,-5.0225,0.0,0.0,0.0,0.0,0.0,0.0,0.0,0.0,-1.9604,-2.0438,-2.0727,-2.1459,-2.2994,-2.3326,-2.4154,-2.5904,-2.6711,-2.919,-3.411,-3.5598,-3.8419,-4.321,-4.4747,-4.5509,-4.5605,-4.572,-4.6105,-4.6797,-4.6105,-4.6124,-4.6797,-4.6855,-4.6891,-4.6945,-4.8733,-4.9579,-4.9729,-5.0603,-5.1033,-5.1128,-5.1199,-5.0781,-5.0058,-4.9101,-4.8691,-4.8418,-4.6855,-4.5227,-4.4041,-4.5512,-4.4902,-4.3633,-4.4238,-4.3105,-4.1035,-3.8252,-3.5699,-3.3106,-3.0151,-2.9417,-2.9606,-3.019,-3.1619,-3.4377,0.0,0.0,-4.3101,-4.8068,-4.9798,-5.0739,-5.17,-5.3509,-5.5162,-5.622,-5.7915,-5.9165,-5.9454,-6.0165,-6.0608,-6.0531,-5.9838,-5.9665,-6.0454,-5.9819,-5.9685,-6.0454,-5.98,-5.9704,-6.0473,-5.9877,-5.9819,-6.0492,-6.0608,-6.0608,-6.0512,-6.0512,-6.0512,-6.0512,-5.9742,-5.9319,-5.9165,-5.7684,-5.6934,-5.6799,-5.603,-5.528,-5.4626,-5.453,-5.3991,-5.3203,-5.3087,-5.2469,-5.1542,-5.0833,-5.0585,-5.0624,0.0,0.0,0.0,0.0,0.0,0.0,0.0,0.0,0.0,-2.0244,-2.0264,-2.068,-2.1879,-2.2118,-2.2993,-2.4914,-2.5928,-2.8361,-3.2921,-3.5457,-3.8586,-4.264,-4.4412,-4.5322,-4.5322,-4.5994,-4.6297,-4.6144,-4.6297,-4.6278,-4.6163,-4.6701,-4.6951,-4.7028,-4.8778,-4.9605,-4.974,-5.061,-5.1037,-5.1091,-5.1127,-5.0686,-4.9902,-4.9082,-4.7578,-4.5838,-4.5527,-4.4258,0.0,-4.3647,-4.3383,-4.2829,-4.3323,-4.286,-4.1701,-3.961,-3.8042,-3.6633,-3.5011,-3.4049,-3.4111,-3.665,-3.8079,-4.0196,-4.5342,-4.6954,-4.8414,-5.2145,-5.3549,-5.4376,-5.5241,-5.678,-5.803,0.0,-5.9473,-6.0262,-6.0262,-6.0127,-5.9877,-5.9396,-5.9031,-5.9338,-6.0666,-6.0012,-5.9858,-6.0723,-6.0454,-6.0416,-6.0781,-6.0454,-6.0416,-6.0781,-6.08,-6.08,-6.08,-6.08,-6.08,-6.08,-6.0435,-5.9992,-5.9473,-5.8761,-5.7915,-5.6934,-5.6069,-5.5511,-5.5203,-5.5203,-5.4972,-5.4607,-5.4145,-5.3722,-5.326,-5.1895,-5.1106,-5.0702,0.0,0.0,0.0,0.0,0.0,0.0,0.0,0.0,0.0,0.0,-1.9831,-2.0119,-2.1043,-2.1497,-2.2368,-2.3944,-2.4903,-2.7193,-3.137,-3.4402,-3.7608,-4.1136,-4.3208,-4.4376,-4.4604,-4.5698,-4.6069,-4.5648,-4.6378,-4.6417,-4.5802,-4.678,-4.724,-4.7298,-4.8759,-4.9586,-4.9933,-5.0587,-5.0914,-5.0991,-5.0818,-5.0253,-4.9367,-4.7886,-4.5623,-4.3365,-4.4172,-4.2691,-4.0485,-4.1238,-4.1136,-4.0754,-4.1153,-4.1382,-4.12,-3.9692,-3.8712,-3.8082,-3.777,-3.7589,-3.8437,-4.2439,-4.4228,-4.6129,-5.0317,-5.1761,-5.2934,-5.5493,-5.6494,-5.7091,-5.7703,-5.9011,-5.9896,-5.9608,-6.03,-6.0839,-6.08,-5.9858,-5.8954,-5.8377,-5.7684,-5.7915,-5.9588,-5.9396,-5.9511,-6.0377,-6.0435,-6.055,-6.0781,-6.08,-6.08,-6.08,-6.08,-6.08,-6.08,-6.08,-6.08,-6.08,-6.08,-6.0339,-5.9473,-5.9011,-5.8011,-5.6607,-5.5972,-5.5703,-5.5703,-5.5703,-5.5703,-5.5645,-5.5049,-5.4703,-5.4357,-5.3087,-5.1933,-5.0991,0.0,0.0,0.0,0.0,0.0,0.0,0.0,0.0,0.0,0.0,0.0,0.0,0.0,-2.0989,-2.1917,-2.2957,-2.3768,-2.6019,-3.0183,-3.2315,-3.5177,-3.913,-4.1161,-4.2554,-4.3347,-4.4235,-4.5047,-4.5802,-4.6145,-4.6301,-4.6282,-4.7491,-4.8067,-4.8105,-4.899,-4.9875,-5.0664,-5.0683,-5.0702,-5.0664,-5.0067,-4.924,-4.8012,-4.4992,-4.3138,-4.2274,-4.3197,-4.0197,-3.6211,-3.8806,-3.8421,-3.7055,-3.8105,-3.8999,-3.9505,-3.8607,-3.6995,-3.5726,-3.6669,-3.8658,-4.1533,-4.5943,-4.8948,-5.176,-5.521,-5.602,-5.6769,-5.9306,-5.9845,-5.9861,-5.9892,-6.0646,-6.0896,-5.9854,-6.0435,-6.0935,-6.0819,-5.9377,-5.8338,-5.83,-5.6126,-5.5261,0.0,-5.7857,-5.8665,-5.9473,-5.955,-5.9915,-6.0742,-6.08,-6.08,-6.08,-6.08,-6.08,-6.08,-6.08,-6.08,-6.08,-6.08,-6.0339,-5.9435,-5.7819,-5.6588,-5.5742,-5.5703,-5.5703,-5.5703,-5.5703,-5.5703,-5.5703,-5.5665,-5.5184,-5.4491,-5.4434,-5.3337,-5.176,0.0,0.0,0.0,0.0,0.0,0.0,0.0,0.0,0.0,0.0,0.0,0.0,0.0,0.0,0.0,0.0,-2.2905,-2.4688,-2.7754,-3.0516,-3.3154,-3.5636,-3.8607,-4.0289,-4.057,-4.2655,-4.3869,-4.4153,-4.4821,-4.5155,-4.5198,-4.6358,-4.6908,-4.6967,-4.8049,-4.8702,-4.8971,-4.8971,-4.8971,-4.8856,-4.7548,-4.6848,-4.6339,-4.3602,-4.1328,-3.9548,0.0,-3.7589,-3.568,-3.6628,-3.6132,-3.5191,-3.5646,-3.5919,-3.6118,-3.633,-3.7175,-3.8536,-4.0686,-4.3477,-4.6704,-5.0608,-5.3048,-5.5216,-5.8078,-5.8725,-5.8949,-5.9813,-5.909,-5.8115,-5.7523,-5.6717,-5.6559,-5.795,-5.8433,-5.9165,-6.0708,-5.9992,-5.8604,-5.6799,-5.6319,0.0,0.0,0.0,0.0,-5.9358,-5.9492,-5.9877,-6.0742,-6.08,-6.08,-6.08,-6.08,-6.08,-6.08,-6.08,-6.08,-6.0781,-6.0204,-5.9781,-5.9435,-5.7761,-5.6838,-5.653,-5.5953,-5.5703,-5.5703,-5.5703,-5.5395,-5.4953,-5.5491,-5.5203,-5.4491,-5.4491,-5.4126,-5.351,0.0,0.0,0.0,0.0,0.0,0.0,0.0,0.0,0.0,0.0,0.0,0.0,0.0,0.0,0.0,0.0,0.0,-2.3088,-2.5241,-2.7601,-2.9628,-3.131,-3.4117,-3.5932,-3.6541,-3.8571,-3.9782,-4.0113,-4.1335,-4.1901,-4.1963,-4.3316,-4.4347,-4.5044,-4.5822,-4.657,-4.7182,-4.6874,-4.6754,-4.6642,-4.4997,-4.421,-4.3718,-4.1228,-3.9069,0.0,-3.6008,-3.4962,-3.418,-3.4193,-3.3846,-3.3423,-3.3479,-3.3848,-3.4483,-3.5652,-3.7621,-4.0296,-4.4275,-4.7342,-5.0442,-5.4681,-5.6725,-5.82,-6.0158,-6.0366,-5.9884,-5.8958,-5.7661,-5.6313,-5.5225,-5.4042,-5.3663,-5.5033,-5.6236,-5.7766,-5.9882,-5.9408,-5.8331,-5.6874,-5.6607,-5.6011,0.0,0.0,0.0,-5.8473,-5.9165,-5.9742,-6.03,-6.0627,-6.08,-6.08,-6.08,-6.08,-6.08,-6.08,-6.08,-6.0781,-5.9627,-5.9069,-5.9011,-5.73,-5.653,-5.6492,-5.5934,-5.5703,-5.5703,-5.5703,-5.5395,-5.4972,-5.5491,-5.5376,-5.4934,-5.4934,-5.4934,-5.4761,0.0,0.0,0.0,0.0,0.0,0.0,0.0,0.0,0.0,0.0,0.0,0.0,0.0,0.0,0.0,0.0,0.0,0.0,-2.2776,-2.3785,-2.4986,-2.6445,-2.8144,-2.9857,-3.1492,-3.2404,-3.3314,-3.4217,-3.6004,-3.6901,-3.6939,-3.871,-4.0551,-4.2316,-4.2374,-4.3426,-4.5103,-4.4314,-4.4028,-4.3951,-4.2393,-4.1271,-4.0249,-3.7895,-3.6393,-3.5329,-3.372,-3.256,-3.1787,-3.1736,-3.1815,-3.1931,-3.1902,-3.3053,-3.48,-3.6755,-3.851,-4.1171,-4.7314,-5.028,-5.2861,-5.7979,-5.9844,-6.0605,-6.1387,-6.082,-5.943,-5.6918,-5.5602,-5.4447,0.0,0.0,-5.2168,-5.1508,-5.4136,-5.6848,-5.8593,-5.8022,-5.7681,0.0,0.0,0.0,0.0,0.0,0.0,-5.7069,0.0,-5.9511,-5.9569,-6.0339,-6.08,-6.08,-6.08,-6.08,-6.08,-6.08,-6.08,-6.0781,-5.9108,-5.83,-5.8242,-5.6492,-5.5703,-5.5703,-5.5703,-5.5703,-5.5703,-5.5703,-5.5684,-5.5645,-5.5684,-5.5665,-5.5645,-5.5684,-5.5703,-5.5472,0.0,0.0,0.0,0.0,0.0,0.0,0.0,0.0,0.0,0.0,0.0,0.0,0.0,0.0,0.0,0.0,0.0,0.0,-2.1258,-2.2605,-2.3529,-2.3934,-2.6128,-2.7553,-2.7982,-3.0046,-3.1284,-3.1576,-3.3272,-3.4142,-3.4223,-3.559,-3.6514,-3.7077,-3.7978,-3.8645,-3.9138,-3.9576,-3.977,-3.9646,-3.7996,-3.7546,-3.7597,-3.51,-3.4374,-3.4489,-3.2831,-3.2039,-3.1816,-3.1837,-3.2714,-3.3918,-3.4495,-3.586,-3.7877,-4.099,-4.3105,-4.5614,-5.1152,-5.4408,-5.6839,-5.9433,-6.0254,-6.0293,-5.9922,-5.8153,-5.6045,-5.4105,-5.1439,-4.8991,0.0,0.0,0.0,-5.1011,-5.3736,0.0,-6.0292,-6.0568,0.0,-5.8787,0.0,-5.8492,-5.7478,-5.8498,0.0,0.0,-5.8992,-5.9781,-6.0435,-6.0685,-6.08,-6.08,-6.08,-6.08,-6.08,-6.08,-6.08,-6.0781,-5.9108,-5.83,-5.8242,-5.6492,-5.5703,-5.5703,-5.5703,-5.5703,-5.5703,-5.5703,-5.5338,-5.4876,-5.5472,-5.5318,-5.4876,-5.5472,-5.5703,-5.5645,0.0,0.0,0.0,0.0,0.0,0.0,0.0,0.0,0.0,0.0,0.0,0.0,0.0,0.0,0.0,0.0,0.0,0.0,0.0,-2.0912,-2.1428,-2.143,-2.2754,-2.3693,-2.415,-2.5559,-2.6524,-2.7003,-2.8241,-2.9083,-2.9532,-3.0896,-3.201,-3.2943,-3.4,-3.4755,-3.5264,-3.5746,-3.5985,0.0,0.0,-3.4894,-3.5165,-3.3727,-3.3034,-3.2698,-3.1741,-3.1592,-3.2022,-3.3174,-3.4736,-3.6452,-3.8118,-3.9793,-4.193,-4.5869,-4.7952,-5.0031,-5.495,-5.7617,-5.9316,-6.0644,-6.043,-5.9453,-5.7849,-5.5477,-5.2565,-4.8923,-4.663,-4.4694,-4.288,-4.3631,0.0,0.0,0.0,0.0,-5.8866,-6.0254,-6.0686,0.0,-6.0309,0.0,-5.9256,-6.0011,-6.0342,0.0,-6.0089,-6.03,-6.0362,-6.0762,-6.0973,-6.0877,-6.0877,-6.0858,-6.08,-6.08,-6.08,-6.0781,-5.9454,-5.8646,-5.8261,-5.6896,-5.6049,-5.5703,0.0,-5.5703,-5.5703,-5.5703,-5.5434,-5.5068,-5.5511,-5.5415,-5.5068,-5.553,-5.5703,-5.5703,0.0,0.0,0.0,0.0,0.0,0.0,0.0,0.0,0.0,0.0,0.0,0.0,0.0,0.0,0.0,0.0,0.0,0.0,0.0,0.0,-1.9081,-1.9033,-1.9048,-1.9522,-2.0499,-2.0535,-2.1035,-2.2035,-2.2768,-2.3521,-2.4388,-2.585,-2.7532,-2.936,-3.0241,-3.124,-3.2305,-3.2416,-3.25,-3.2552,-3.2545,-3.2577,-3.2635,0.0,-3.1729,-3.0472,-3.0574,-3.1099,-3.2176,-3.5073,-3.7345,-3.9413,-4.203,-4.4132,-4.6443,-5.0649,-5.2374,-5.388,-5.8178,-5.9863,-6.0586,-6.1348,-6.0176,-5.8144,-5.5399,-5.2495,-4.8786,-4.3205,-4.1788,-4.1056,-3.9409,-4.0715,-4.3053,-4.6144,0.0,-5.3486,-5.666,-5.8808,-6.043,-6.1406,-6.142,-6.1344,-6.1344,-6.1351,-6.1348,-6.1328,-6.1331,-6.0943,-6.0049,-6.082,-6.1219,-6.1054,-6.1031,-6.0973,-6.0858,-6.0839,-6.0819,-6.0819,-5.9915,-5.9127,-5.8434,-5.7453,-5.6646,-5.603,0.0,0.0,-5.5857,-5.5857,-5.5857,-5.5876,-5.5992,-5.6049,-5.603,-5.5915,-5.5857,-5.5857,0.0,0.0,0.0,0.0,0.0,0.0,0.0,0.0,0.0,0.0,-1.923,-1.9227,0.0,0.0,0.0,0.0,0.0,0.0,0.0,0.0,0.0,-1.7176,-1.7261,-1.7734,-1.8562,-1.8638,-1.9156,-2.017,-2.1109,-2.1726,-2.2015,-2.3074,-2.4158,-2.5271,-2.6197,-2.7154,-2.8101,-2.8834,-2.9135,-2.9159,-2.9153,-2.916,-2.9159,-2.9106,0.0,0.0,-2.9394,-3.016,-3.1548,-3.6265,-3.9898,-4.2753,-4.4623,-4.7378,-5.05,-5.3429,-5.4478,-5.5444,-5.9043,-6.0215,-6.0449,-6.0586,-5.8828,-5.6171,-5.2839,-4.8423,0.0,-4.091,-3.8575,-3.721,-3.7518,-3.9032,-4.2056,-4.7559,-4.9682,-5.2773,-5.8887,-5.9531,-5.9941,0.0,-6.1638,-6.1633,-6.1633,0.0,0.0,0.0,0.0,0.0,-6.107,-6.122,-6.1281,-6.1247,-6.1247,-6.1247,-6.1208,-6.1031,-6.0954,-6.0935,-5.9973,-5.9435,-5.9242,-5.7703,-5.73,-5.778,0.0,0.0,-5.6761,-5.6761,-5.6761,-5.6838,-5.7569,-5.7857,-5.7761,-5.703,-5.6761,-5.6665,0.0,0.0,0.0,0.0,0.0,0.0,0.0,-1.8966,-1.9117,-1.928,-1.9398,-1.9471,-1.9504,-1.9532,-1.9569,0.0,0.0,0.0,0.0,0.0,0.0,0.0,-1.6835,-1.7,-1.7362,-1.7472,-1.7977,-1.8912,0.0,-2.0107,-2.0698,-2.1673,-2.2393,-2.2933,-2.3844,-2.4767,-2.5697,-2.6574,-2.7207,-2.7653,-2.8125,-2.8293,-2.8296,0.0,0.0,0.0,-2.8006,-2.894,-3.057,-3.4361,-3.8179,-4.2092,-4.6486,-4.9335,-5.1386,-5.3139,-5.4912,-5.6602,-5.796,-5.9629,-6.0879,-6.0508,-5.8144,-5.4785,-5.043,0.0,0.0,-3.7376,-3.5833,-3.5123,-3.4632,-3.6684,0.0,-4.3596,-4.6051,-4.957,-5.5547,-5.6836,0.0,-6.0723,-6.1426,-6.1699,0.0,0.0,0.0,0.0,0.0,0.0,-6.1405,-6.1413,-6.1393,-6.139,-6.1341,-6.1305,-6.1305,-6.1208,-6.1157,-6.1151,-6.0666,-6.0165,-5.9623,-5.8816,-5.8415,-5.8261,-5.7415,0.0,-5.7684,-5.7684,-5.7684,-5.7723,-5.8146,-5.83,-5.8261,-5.7838,-5.7376,-5.6934,0.0,0.0,0.0,0.0,0.0,0.0,0.0,-1.873,-1.8966,-1.9274,-1.9518,-1.9673,-1.9655,-1.9649,-1.9613,0.0,0.0,0.0,0.0,0.0,0.0,0.0,0.0,0.0,0.0,0.0,0.0,0.0,0.0,0.0,0.0,0.0,0.0,0.0,0.0,-2.3248,-2.416,-2.4856,-2.5547,0.0,0.0,-2.7457,0.0,0.0,0.0,0.0,0.0,-2.7793,-2.9251,-3.2002,-3.5236,-3.9158,-4.5158,-4.8375,-5.022,-5.1478,-5.4088,-5.6618,-5.6929,-5.9195,-6.1243,-6.0312,-5.7519,-5.3593,-4.8267,-4.4196,-3.996,-3.4295,-3.3474,-3.3496,-3.2545,-3.4413,-3.7009,0.0,-4.2279,-4.5976,-5.1875,-5.4043,-5.6367,0.0,-6.1172,0.0,0.0,0.0,0.0,0.0,0.0,0.0,0.0,-6.1543,-6.1543,-6.1543,-6.1439,-6.1393,-6.1393,-6.1354,-6.1343,-6.133,-6.1311,-6.0902,-6.0108,-5.9942,-5.9488,-5.8858,-5.8511,0.0,0.0,-5.8569,-5.8569,-5.8588,-5.8761,-5.8838,-5.8819,-5.8627,-5.8011,-5.7242,0.0,0.0,0.0,0.0,0.0,0.0,0.0,-1.7966,-1.8398,-1.9191,-1.9483,-1.9647,-1.9763,-1.9835,-1.9568,0.0,0.0,0.0,0.0,0.0,0.0,0.0,0.0,0.0,0.0,0.0,0.0,0.0,0.0,0.0,0.0,0.0,0.0,0.0,0.0,0.0,0.0,-2.3294,0.0,0.0,0.0,0.0,0.0,0.0,0.0,0.0,0.0,-2.7015,-2.7541,-3.0894,-3.2716,-3.4121,-3.7134,-4.1867,-4.6752,-4.9084,0.0,0.0,-5.7523,-5.9785,-6.0954,-5.9428,-5.6465,-5.2402,-4.6563,0.0,-3.76,-3.3143,-3.1641,-3.1599,-3.3009,-3.2892,-3.4435,-4.0154,-4.0684,-4.3251,-5.1543,-5.3516,-5.5683,-5.9902,0.0,0.0,0.0,0.0,0.0,0.0,0.0,0.0,0.0,-6.1678,-6.168,-6.168,-6.1679,-6.1658,-6.1658,-6.154,-6.1481,-6.1475,-6.1354,-6.124,-6.113,-6.0325,-6.0262,-6.0666,0.0,0.0,0.0,-5.9396,-5.9396,-5.9473,-6.0262,-6.0569,-6.0473,-5.9685,-5.8877,-5.8069,0.0,0.0,0.0,0.0,0.0,0.0,-1.7532,-1.7892,-1.8325,-1.9191,-1.9479,-1.9614,-1.9662,-1.9378,-1.9252,-1.9433,0.0,0.0,0.0,0.0,0.0,0.0,0.0,0.0,0.0,0.0,0.0,0.0,0.0,0.0,0.0,0.0,0.0,0.0,0.0,0.0,0.0,0.0,0.0,0.0,0.0,0.0,0.0,0.0,0.0,0.0,0.0,0.0,-2.6411,-2.8271,-2.9428,-3.0288,-3.1343,-3.3996,-3.7405,-4.0936,-4.5931,-5.0619,-5.2107,-5.6348,-6.0013,-5.8401,-5.588,-5.2105,-4.5579,0.0,-3.7942,-3.3048,-3.1805,-3.1621,-3.1794,-3.1989,-3.3241,-3.6719,-3.744,-3.9823,-4.6367,-4.8476,-5.1348,-5.6699,0.0,0.0,0.0,0.0,0.0,0.0,0.0,0.0,0.0,-6.1699,-6.1699,-6.1699,-6.1699,-6.1699,-6.1699,-6.164,-6.1621,-6.1621,-6.1564,-6.1505,-6.1408,-6.1066,-6.0929,-6.0963,0.0,0.0,0.0,-6.0281,-6.0281,-6.0319,-6.0666,-6.08,-6.0685,-5.9819,-5.8992,-5.8184,0.0,0.0,0.0,0.0,0.0,-1.5353,-1.6833,-1.717,-1.7657,-1.8776,-1.9048,-1.917,-1.9236,-1.8868,-1.8774,-1.9199,-1.788,0.0,0.0,0.0,0.0,0.0,0.0,0.0,0.0,0.0,-1.4945,-1.5648,-1.5788,0.0,0.0,0.0,0.0,0.0,0.0,0.0,0.0,0.0,0.0,0.0,0.0,0.0,0.0,0.0,0.0,0.0,0.0,0.0,0.0,0.0,0.0,-2.7395,-2.742,-2.8229,-3.0086,-3.4845,-4.0681,-4.6012,-4.7906,-5.3031,-5.7585,-5.6494,-5.4194,-5.0524,-4.4161,0.0,-3.7058,-3.2577,-3.1675,-3.1526,-3.0907,-3.1308,-3.2282,-3.4033,-3.5053,-3.742,-4.2596,-4.5039,-4.8242,0.0,0.0,0.0,0.0,0.0,0.0,0.0,0.0,0.0,0.0,-6.1699,-6.1699,-6.1699,-6.1699,-6.1699,-6.1699,-6.1699,-6.1699,-6.1699,-6.1699,-6.164,-6.1562,-6.1525,-6.1344,-6.1099,0.0,0.0,0.0,-6.08,-6.08,-6.0762,-6.0512,-6.0416,-6.03,-5.9454,-5.8646,-5.7896,0.0,0.0,0.0,0.0,0.0,0.0,-1.5202,-1.5436,-1.6123,-1.7803,-1.8071,-1.819,-1.8391,-1.8422,-1.8132,-1.7482,-1.6668,0.0,0.0,0.0,0.0,0.0,0.0,0.0,0.0,0.0,-1.4668,-1.4813,-1.5019,-1.6002,-1.7701,0.0,0.0,0.0,0.0,0.0,0.0,0.0,0.0,0.0,0.0,0.0,0.0,0.0,0.0,0.0,0.0,0.0,0.0,0.0,0.0,0.0,0.0,-2.5587,-2.6717,-3.2686,-3.6837,-4.0775,-4.6615,-5.0683,-5.3297,-5.3409,-5.0875,-4.705,0.0,0.0,-3.3929,-3.1334,-3.0813,-3.0808,-3.0794,-3.0801,-3.1387,-3.3124,-3.4137,-3.6521,-4.1696,-4.4664,0.0,0.0,0.0,0.0,0.0,0.0,0.0,0.0,0.0,0.0,0.0,0.0,-6.1699,-6.1699,-6.1699,-6.1699,-6.1699,-6.1699,-6.1699,-6.1699,-6.1699,-6.1699,-6.1698,-6.1562,-6.1447,0.0,0.0,0.0,0.0,-6.08,-6.08,-6.0704,-5.9858,-5.9511,-5.9415,-5.8607,-5.7857,-5.7203,0.0,0.0,0.0,0.0,0.0,0.0,0.0,-1.5372,-1.5793,-1.6838,-1.7067,-1.7154,-1.7164,-1.6835,-1.6532,-1.6329,-1.6163,0.0,0.0,0.0,0.0,0.0,0.0,0.0,0.0,0.0,-1.5093,-1.5823,-1.5921,-1.6926,-1.8716,-1.8697,-1.9327,0.0,0.0,0.0,0.0,0.0,0.0,0.0,0.0,0.0,0.0,0.0,0.0,0.0,0.0,0.0,0.0,0.0,0.0,0.0,0.0,0.0,0.0,-2.8546,-3.2037,-3.5747,-3.8762,-4.2468,-4.5365,-4.4839,-4.3497,-4.1258,-3.7343,0.0,-3.32,-3.1153,-3.0774,-3.0792,-3.0798,-3.0794,-3.1367,-3.3129,-3.4134,-3.5681,0.0,0.0,0.0,0.0,0.0,0.0,0.0,0.0,0.0,0.0,0.0,0.0,0.0,0.0,-6.1699,-6.1699,-6.1699,-6.1699,-6.1699,-6.1606,-6.1606,-6.1699,-6.1509,-6.1479,-6.1562,-6.1423,0.0,0.0,0.0,0.0,0.0,-6.08,-6.08,-6.0704,-5.9838,-5.9569,-5.9469,-5.8069,-5.7473,-5.7266,0.0,0.0,0.0,0.0,0.0,0.0,0.0,-1.4912,-1.5182,-1.5953,-1.6132,-1.6208,-1.6193,-1.5908,-1.5612,-1.5376,-1.5421,0.0,0.0,0.0,0.0,0.0,0.0,0.0,-1.4736,-1.4841,-1.5353,-1.6336,-1.64,-1.7374,-1.9167,-1.9158,-1.9633,-2.0506,-2.049,0.0,0.0,0.0,0.0,0.0,0.0,0.0,-2.0653,0.0,0.0,0.0,0.0,0.0,0.0,0.0,0.0,0.0,0.0,0.0,0.0,0.0,-2.8158,-3.0849,-3.3804,-3.7012,-3.9469,-3.9251,-3.8369,0.0,0.0,-3.264,-3.1582,-3.0466,-3.0546,-3.0803,-3.0804,-3.0802,-3.1262,-3.2677,-3.3646,-3.4822,0.0,0.0,0.0,0.0,0.0,0.0,0.0,0.0,0.0,0.0,0.0,0.0,0.0,0.0,-6.1699,-6.1699,-6.164,-6.1625,-6.1625,-6.1481,-6.1462,-6.1547,-6.1436,-6.1396,-6.1424,-6.1348,0.0,0.0,0.0,0.0,0.0,-6.0454,-6.0492,-6.0666,-5.9204,-5.8873,-5.905,-5.7429,-5.6908,-5.6958,0.0,0.0,0.0,0.0,0.0,0.0,0.0,-1.4141,-1.4369,-1.5114,-1.5278,-1.5334,-1.5383,-1.5473,-1.5257,-1.4622,0.0,0.0,0.0,0.0,0.0,0.0,0.0,0.0,-1.4804,-1.4947,-1.5468,-1.6418,-1.6526,-1.7486,-1.9206,-1.9321,-1.9814,-2.0581,-2.0592,-2.0577,0.0,0.0,0.0,0.0,0.0,0.0,0.0,0.0,0.0,0.0,0.0,0.0,0.0,0.0,0.0,0.0,0.0,0.0,0.0,0.0,0.0,0.0,0.0,-3.3639,-3.5025,-3.5727,-3.4774,-3.3287,-3.186,-3.0369,0.0,-2.9465,-3.018,-3.0799,-3.0793,-3.081,-3.109,-3.1978,-3.2807,-3.3966,0.0,0.0,0.0,0.0,0.0,0.0,0.0,0.0,0.0,0.0,0.0,0.0,0.0,0.0,0.0,-6.1699,-6.1497,-6.1439,-6.1497,-6.1352,-6.1294,-6.1304,-6.142,-6.1402,-6.1293,-6.1289,0.0,0.0,0.0,0.0,0.0,-5.9762,-5.9896,-6.0416,-5.8107,-5.7723,-5.8267,-5.6762,-5.6296,-5.6425,0.0,0.0,0.0,0.0,0.0,0.0,0.0,0.0,0.0,0.0,-1.4396,-1.441,-1.4432,-1.4529,-1.4538,0.0,0.0,0.0,0.0,0.0,0.0,0.0,0.0,0.0,-1.4887,-1.5019,-1.5535,-1.647,-1.7169,-1.8406,-2.0188,-2.0869,-2.1292,-2.1492,-2.1549,-2.1207,0.0,0.0,0.0,0.0,0.0,0.0,0.0,0.0,0.0,0.0,-2.1588,-2.2496,0.0,0.0,0.0,0.0,0.0,0.0,0.0,0.0,-2.549,-2.572,-2.6804,0.0,-2.7778,-2.7991,-2.7778,-2.7565,0.0,-2.8136,-2.8516,-2.92,-3.0088,-3.0743,-3.0798,-3.0799,-3.1144,-3.222,-3.2622,-3.3539,0.0,0.0,0.0,0.0,0.0,0.0,0.0,0.0,0.0,0.0,0.0,0.0,0.0,0.0,0.0,-6.1699,-6.0914,-6.0819,-6.1497,-6.1208,-6.1208,-6.1439,-6.1118,-6.1087,-6.1294,-6.1039,0.0,0.0,0.0,0.0,-5.9742,-5.8915,-5.8761,-5.8934,-5.7684,-5.747,-5.7697,-5.6714,-5.6447,-5.6553,0.0,0.0,0.0,0.0,0.0,0.0,0.0,0.0,0.0,0.0,0.0,-1.4172,-1.4114,-1.4255,0.0,0.0,0.0,0.0,0.0,0.0,0.0,0.0,0.0,-1.4876,-1.4938,-1.5052,-1.576,-1.7095,-1.7595,-1.8959,-2.111,-2.159,-2.2015,-2.2381,-2.2029,-2.1386,0.0,0.0,0.0,0.0,-2.0609,0.0,0.0,0.0,0.0,0.0,-2.1045,-2.1759,0.0,-2.25,-2.3298,-2.4291,0.0,0.0,0.0,0.0,-2.5441,-2.5437,-2.534,-2.534,-2.5483,-2.5869,-2.571,-2.5693,-2.6579,-2.7472,-2.8223,-2.8737,-2.9855,-3.076,-3.0785,-3.1126,0.0,0.0,-3.368,0.0,0.0,0.0,0.0,0.0,0.0,0.0,0.0,0.0,0.0,0.0,0.0,0.0,0.0,0.0,-6.1523,-6.1113,-6.0531,-6.0635,-6.1478,-6.0473,-6.0396,-6.1266,-6.03,-6.0284,-6.1034,-6.0147,0.0,0.0,0.0,0.0,-5.8992,-5.8146,-5.8107,-5.8473,-5.728,-5.7162,-5.7508,-5.6767,-5.6537,-5.6601,0.0,0.0,0.0,0.0,0.0,0.0,0.0,0.0,0.0,0.0,0.0,0.0,0.0,0.0,0.0,0.0,0.0,0.0,0.0,0.0,0.0,0.0,-1.4804,-1.4866,-1.5003,-1.5075,-1.5938,-1.76,-1.7951,-1.9375,-2.1811,-2.2062,-2.2586,-2.324,-2.2244,-2.1417,0.0,0.0,0.0,0.0,-2.0582,0.0,0.0,0.0,0.0,0.0,0.0,0.0,0.0,-2.1794,-2.2738,-2.3893,-2.3844,0.0,0.0,0.0,0.0,0.0,-2.5332,-2.5404,-2.5627,-2.6246,-2.5942,-2.5725,-2.667,-2.7542,-2.8235,-2.8443,-2.9708,-3.0864,-3.1152,-3.2012,0.0,0.0,0.0,0.0,0.0,0.0,0.0,0.0,0.0,0.0,0.0,0.0,0.0,0.0,0.0,0.0,0.0,0.0,0.0,-6.0195,-5.9961,-6.0262,-6.1138,-5.953,-5.9345,-6.0627,-5.93,-5.9281,-6.0396,-5.9072,-5.8784,0.0,0.0,0.0,-5.8219,-5.7357,-5.753,-5.8226,-5.6917,-5.6827,-5.7388,-5.6811,-5.6601,-5.6601,0.0,0.0,0.0,0.0,0.0,0.0,0.0,0.0,0.0,0.0,0.0,0.0,0.0,0.0,0.0,0.0,0.0,0.0,0.0,0.0,0.0,-1.4707,-1.4822,-1.4919,-1.5,-1.5114,-1.5686,-1.6691,-1.8251,-1.9951,-2.1828,-2.3304,-2.4062,-2.4135,-2.2522,-2.1733,-2.1568,-2.0812,-2.0503,-2.0528,-2.0528,0.0,0.0,0.0,0.0,0.0,0.0,0.0,0.0,-2.1792,-2.1932,-2.2108,-2.2095,0.0,0.0,0.0,0.0,0.0,-2.5393,-2.5393,-2.5432,-2.5486,-2.5456,-2.5658,-2.6605,-2.7457,-2.8291,-2.9141,-3.006,-3.1184,-3.2729,-3.4326,-3.572,0.0,0.0,0.0,0.0,0.0,0.0,0.0,0.0,0.0,0.0,0.0,0.0,0.0,0.0,0.0,0.0,0.0,0.0,-5.914,-5.8555,-5.867,-5.9546,-5.8997,-5.8826,-5.905,-5.8704,-5.8646,-5.8822,-5.8473,-5.8396,0.0,0.0,-5.728,-5.7338,-5.6453,-5.6359,-5.6725,-5.6494,-5.6548,-5.6738,-5.6639,-5.6601,-5.6601,0.0,0.0,0.0,0.0,0.0,0.0,0.0,0.0,0.0,0.0,0.0,0.0,0.0,0.0,0.0,0.0,0.0,0.0,0.0,0.0,-1.4522,-1.4685,-1.4785,-1.4881,-1.5011,-1.5587,-1.6557,-1.7892,-1.926,-2.1048,-2.324,-2.4511,-2.4852,-2.4347,-2.3076,-2.2246,-2.174,-2.0876,-2.0506,-2.0494,0.0,0.0,0.0,0.0,0.0,0.0,0.0,0.0,0.0,0.0,-2.1688,-2.232,-2.1842,0.0,0.0,0.0,0.0,0.0,-2.5461,-2.5441,-2.5662,-2.6586,-2.6839,-2.7226,-2.8596,-2.9221,-2.9772,-3.0703,-3.121,-3.2146,0.0,0.0,0.0,0.0,0.0,0.0,0.0,0.0,0.0,0.0,0.0,0.0,0.0,0.0,0.0,0.0,0.0,0.0,0.0,0.0,0.0,0.0,-5.8027,-5.7871,-5.7793,-5.7633,-5.7973,-5.8792,-5.7755,-5.7687,-5.846,-5.7398,-5.7146,-5.755,0.0,-5.6492,-5.6626,-5.6321,-5.6297,-5.6505,-5.6505,-5.6556,-5.6601,-5.6601,-5.6601,-5.6601,0.0,0.0,0.0,0.0,0.0,0.0,0.0,0.0,0.0,0.0,0.0,0.0,0.0,0.0,0.0,0.0,0.0,0.0,0.0,-1.4441,-1.4499,-1.4701,-1.4757,-1.4976,-1.5326,-1.6093,-1.7449,-1.941,-2.0351,-2.2037,-2.4404,-2.5077,-2.4915,-2.4029,-2.3182,-2.2426,-2.1726,-2.0854,-2.0484,-2.0469,0.0,0.0,0.0,0.0,0.0,0.0,0.0,0.0,0.0,0.0,0.0,0.0,0.0,0.0,0.0,-2.4368,-2.4833,-2.5492,-2.549,-2.5498,-2.5919,-2.7672,-2.8113,-2.8732,-3.1105,-3.1822,-3.2376,-3.3658,-3.3934,0.0,0.0,0.0,0.0,0.0,0.0,0.0,0.0,0.0,0.0,0.0,0.0,0.0,0.0,0.0,0.0,0.0,0.0,0.0,0.0,0.0,0.0,0.0,-5.7518,-5.7285,-5.6601,-5.6563,-5.7148,-5.8301,-5.69,-5.6829,-5.7841,-5.6456,-5.6145,-5.6703,-5.6205,-5.609,-5.6244,-5.6359,-5.6466,-5.6563,-5.6598,-5.6601,-5.6601,-5.6601,-5.6601,-5.6601,0.0,0.0,0.0,0.0,0.0,0.0,0.0,0.0,0.0,0.0,0.0,0.0,0.0,0.0,0.0,0.0,0.0,0.0,0.0,-1.4453,-1.4559,-1.4701,-1.4766,-1.5268,-1.6287,-1.6426,-1.7747,-2.0308,-2.1247,-2.262,-2.4391,-2.4452,-2.4005,-2.3065,-2.225,-2.1815,-2.1651,-2.0789,-2.04,-2.0405,-2.04,0.0,0.0,0.0,0.0,0.0,0.0,0.0,0.0,0.0,0.0,0.0,0.0,0.0,-2.3321,-2.4077,-2.4872,-2.5492,-2.5492,-2.5498,-2.5931,-2.7731,-2.8178,-2.9283,-3.3456,-3.5038,-3.6341,-3.8824,-3.9337,-3.9867,0.0,0.0,0.0,0.0,0.0,0.0,0.0,0.0,0.0,0.0,0.0,0.0,0.0,0.0,0.0,0.0,0.0,0.0,0.0,0.0,0.0,0.0,0.0,-5.666,-5.6601,-5.6473,-5.6473,-5.6582,-5.6443,-5.6269,-5.609,-5.6148,-5.6109,-5.5972,-5.6128,-5.6263,-5.6379,-5.6398,-5.6402,-5.6443,-5.6553,-5.6601,-5.6601,-5.6601,-5.6601,-5.6601,0.0,0.0,0.0,0.0,0.0,0.0,0.0,0.0,0.0,0.0,0.0,0.0,0.0,0.0,0.0,0.0,0.0,0.0,0.0,-1.4464,-1.4552,-1.4643,-1.4747,-1.5514,-1.7052,-1.7715,-1.9096,-2.1201,-2.2691,-2.4029,-2.5174,-2.4102,-2.3699,-2.3809,-2.2384,-2.1711,-2.1637,-2.0764,-2.039,-2.0404,-2.0394,-2.0424,0.0,0.0,0.0,0.0,0.0,0.0,0.0,0.0,-2.0898,-2.1369,-2.1698,-2.2721,-2.3869,-2.4194,-2.491,-2.5556,-2.5561,-2.6345,-2.7607,-2.9376,-3.0631,-3.2294,-3.5569,-3.7805,-3.9608,-4.1147,-4.1882,-4.2783,0.0,0.0,0.0,0.0,0.0,0.0,0.0,0.0,0.0,0.0,0.0,0.0,0.0,0.0,0.0,0.0,0.0,0.0,0.0,0.0,0.0,0.0,0.0,-5.4859,-5.4859,-5.4822,-5.4746,-5.4666,-5.5754,-5.6214,-5.6071,-5.5607,-5.5654,-5.6063,-5.5673,-5.5838,-5.6422,-5.6477,-5.6531,-5.6521,-5.6581,-5.6601,-5.6601,-5.6601,-5.6601,-5.6601,0.0,0.0,0.0,0.0,0.0,0.0,0.0,0.0,0.0,0.0,0.0,0.0,0.0,0.0,0.0,0.0,0.0,0.0,-1.4469,-1.4522,-1.4589,-1.4627,-1.4748,-1.5552,-1.7085,-1.8355,-2.0006,-2.2078,-2.391,-2.482,-2.4843,-2.3659,-2.3108,-2.3081,-2.1865,-2.1308,-2.1252,-2.0648,-2.0404,-2.0402,-2.0404,-2.0402,0.0,0.0,0.0,0.0,0.0,0.0,0.0,0.0,-2.0923,-2.1497,-2.2036,-2.2991,-2.4034,-2.456,-2.5138,-2.5604,-2.5605,-2.666,-2.8212,-2.9959,-3.2305,-3.5022,-3.819,-4.0055,-4.1737,-4.3963,-4.5135,-4.5957,-4.6596,0.0,0.0,0.0,0.0,0.0,0.0,0.0,0.0,0.0,0.0,0.0,0.0,0.0,0.0,0.0,0.0,0.0,0.0,0.0,0.0,0.0,0.0,0.0,-5.3861,-5.3762,-5.3687,-5.3602,-5.4824,-5.5378,-5.5359,-5.4849,-5.4915,-5.5428,-5.4953,-5.5264,-5.6063,-5.6142,-5.6341,-5.6606,-5.6552,-5.6552,-5.6601,-5.6601,-5.6601,-5.6601,0.0,0.0,0.0,0.0,0.0,0.0,0.0,0.0,0.0,0.0,0.0,0.0,0.0,0.0,0.0,0.0,0.0,0.0,-1.4595,-1.4654,-1.4695,-1.4699,-1.4832,-1.5342,-1.6288,-1.8098,-2.0295,-2.2901,-2.4755,-2.4777,-2.3105,-2.3083,-2.2123,-2.0409,-2.048,-2.0468,-2.0405,-2.0418,-2.0418,-2.0423,-2.0405,-2.0404,-2.0413,0.0,0.0,0.0,0.0,0.0,0.0,0.0,-2.0506,-2.0809,-2.2532,-2.3089,-2.3415,-2.5091,-2.5589,-2.5605,-2.5609,-2.6248,-2.7343,-2.9104,-3.2732,-3.7039,-4.1412,-4.1752,-4.2613,-4.7734,-4.9551,-4.9687,-4.793,0.0,0.0,0.0,0.0,0.0,0.0,0.0,0.0,0.0,0.0,0.0,0.0,0.0,0.0,0.0,0.0,0.0,0.0,0.0,0.0,0.0,0.0,0.0,-5.3957,-5.3706,-5.3591,-5.3575,-5.3582,-5.3608,-5.3609,-5.3871,-5.3927,-5.38,-5.393,-5.4473,-5.5293,-5.5293,-5.5801,-5.6579,-5.644,-5.6492,-5.6601,-5.6601,-5.6601,-5.6601,0.0,0.0,0.0,0.0,0.0,0.0,0.0,0.0,0.0,0.0,0.0,0.0,0.0,0.0,0.0,0.0,0.0,0.0,-1.4595,-1.4658,-1.4727,-1.4775,-1.485,-1.5597,-1.7104,-1.9605,-2.1578,-2.2974,-2.2952,-2.3015,-2.3066,-2.1852,-2.1312,-2.1387,-2.1361,-2.1332,-2.1318,-2.1302,-2.1665,-2.2114,-2.0895,-2.0759,-2.1248,0.0,0.0,0.0,0.0,0.0,0.0,0.0,0.0,0.0,-2.1822,-2.2188,-2.2406,-2.3528,-2.4712,-2.5675,-2.5676,-2.7195,0.0,-3.1675,0.0,0.0,-4.1426,-4.3618,-4.5534,-4.8297,-5.0038,-5.0527,-4.8828,0.0,0.0,0.0,0.0,0.0,0.0,0.0,0.0,0.0,0.0,0.0,0.0,0.0,0.0,0.0,0.0,0.0,0.0,0.0,0.0,0.0,0.0,0.0,-5.2024,-5.1954,-5.1836,-5.1708,-5.1934,-5.2603,-5.3579,-5.3249,-5.3408,-5.391,-5.3333,-5.3574,-5.4394,-5.4394,-5.4902,-5.5683,-5.5641,-5.6028,-5.6601,-5.6601,-5.6601,-5.6601,0.0,0.0,0.0,0.0,0.0,0.0,0.0,0.0,0.0,0.0,-1.6355,-1.5729,0.0,0.0,0.0,0.0,0.0,0.0,0.0,-1.4747,-1.4804,-1.4886,-1.5283,-1.6327,-1.8098,-1.9825,-2.1138,-2.2012,-2.2204,-2.2422,-2.2597,-2.1512,-2.1118,-2.1289,-2.1247,-2.1221,-2.1254,-2.1595,-2.1837,-2.1964,-2.1597,-2.1339,-2.1171,0.0,0.0,0.0,0.0,0.0,0.0,0.0,0.0,0.0,-2.1627,-2.2033,-2.241,-2.2945,-2.4088,-2.5187,-2.5188,-2.7332,0.0,-3.2766,-3.5486,-3.8673,-4.2962,0.0,0.0,0.0,-5.0971,-5.1619,-5.0605,0.0,0.0,0.0,0.0,0.0,0.0,0.0,0.0,0.0,0.0,0.0,0.0,0.0,0.0,0.0,0.0,0.0,0.0,0.0,0.0,0.0,0.0,0.0,-5.1289,-5.1222,-5.114,-5.0983,-5.12,-5.178,-5.2611,-5.2303,-5.2461,-5.2969,-5.2773,-5.3008,-5.3516,-5.3867,-5.4316,-5.4785,-5.4785,-5.5098,-5.5605,-5.5957,-5.6074,-5.6074,0.0,0.0,0.0,0.0,0.0,0.0,0.0,0.0,0.0,0.0,-1.6417,-1.5678,0.0,0.0,0.0,0.0,0.0,0.0,0.0,-1.4876,-1.4952,-1.5015,-1.5981,-1.7318,-1.9051,-1.9236,-1.9709,-2.0499,-2.2006,-2.2416,-2.1777,-2.1638,-2.1196,-2.05,-2.0575,-2.062,-2.0662,-2.1463,-2.1435,-2.0968,-2.2325,-2.2022,-2.082,-2.1518,0.0,0.0,0.0,0.0,0.0,0.0,0.0,0.0,-2.1675,-2.2224,-2.2851,-2.2867,-2.3598,-2.4417,-2.4503,-2.6967,-3.0175,-3.3034,-3.7148,0.0,-4.5505,-4.8275,-5.0196,-5.0914,0.0,0.0,0.0,0.0,0.0,0.0,0.0,0.0,0.0,0.0,0.0,0.0,0.0,0.0,0.0,0.0,0.0,0.0,0.0,0.0,0.0,0.0,0.0,0.0,0.0,0.0,-5.1152,-5.1113,-5.1047,0.0,-5.1125,-5.1167,-5.1122,-5.1307,-5.1406,-5.1445,-5.2246,-5.2578,-5.2637,-5.3437,-5.3808,-5.3887,-5.3887,-5.3926,-5.4101,-5.4883,-5.5176,-5.5176,0.0,0.0,0.0,0.0,0.0,0.0,0.0,0.0,0.0,0.0,0.0,0.0,0.0,0.0,0.0,0.0,0.0,0.0,0.0,-1.4933,-1.5004,-1.5088,-1.6623,-1.8003,-1.9076,-1.9834,-2.0305,-2.0494,-2.024,-2.0387,-2.0859,-2.0165,-2.0068,-2.0539,-2.1211,-2.1527,-2.1522,-2.1653,-2.2396,-2.3384,-2.2391,-2.2533,-2.3256,-2.2094,-2.1552,0.0,0.0,0.0,0.0,0.0,0.0,0.0,-2.0773,-2.0903,-2.1071,-2.1068,-2.2656,-2.4557,-2.5227,-2.7411,0.0,-3.5307,-4.0722,-4.5332,-4.6953,-4.8279,-4.9019,-4.8528,0.0,0.0,0.0,0.0,0.0,0.0,0.0,0.0,0.0,0.0,0.0,0.0,0.0,0.0,0.0,0.0,0.0,0.0,0.0,0.0,0.0,0.0,0.0,0.0,0.0,-4.9148,-4.9433,-4.9884,-5.0146,0.0,-5.0893,-5.1183,-5.1172,-5.1327,-5.1406,-5.1406,-5.1601,-5.168,-5.1699,-5.1875,-5.2363,-5.2988,-5.2988,-5.3398,-5.4023,-5.4219,-5.4277,-5.4277,0.0,0.0,0.0,0.0,0.0,0.0,0.0,0.0,0.0,0.0,0.0,0.0,0.0,0.0,0.0,0.0,0.0,0.0,0.0,0.0,-1.5319,-1.5794,-1.7127,-1.8267,-1.9176,-2.0055,-2.0314,-1.994,-1.9514,-1.9741,-2.0586,-2.0142,-2.0124,-2.0522,-2.0977,-2.1177,-2.1195,-2.1546,-2.1973,-2.2441,-2.2353,-2.2352,-2.2365,-2.2293,-2.1798,-2.1182,-2.1558,0.0,0.0,0.0,0.0,0.0,0.0,0.0,-2.1608,-2.1191,-2.263,-2.4453,-2.4904,0.0,0.0,-3.7031,0.0,-4.6016,-4.7305,-4.7949,-4.834,0.0,0.0,0.0,0.0,0.0,0.0,0.0,0.0,0.0,0.0,0.0,0.0,0.0,0.0,0.0,0.0,0.0,0.0,0.0,0.0,0.0,0.0,0.0,0.0,0.0,-4.8111,-4.8271,-4.8697,-4.903,-4.9177,-4.9195,-4.9666,-4.9901,-4.9935,-5.049,-5.0723,-5.0722,-5.066,-5.0939,-5.1406,-5.1328,-5.1601,-5.207,-5.207,-5.2363,-5.2812,-5.3223,-5.3379,-5.3379,0.0,0.0,0.0,0.0,0.0,0.0,0.0,0.0,0.0,0.0,0.0,0.0,0.0,0.0,0.0,0.0,0.0,0.0,0.0,0.0,0.0,-1.6555,-1.7459,-1.8351,-1.9282,-2.0099,-2.0181,-1.953,-1.9512,-1.9959,-2.0794,-2.0504,-2.0408,-2.0477,-2.048,-2.0484,-2.053,-2.1191,-2.113,-2.0731,-2.2191,-2.1978,-2.0959,-2.2274,-2.1901,-2.0896,-2.2352,-2.1953,-2.0837,-2.1569,0.0,0.0,0.0,0.0,-2.244,-2.1867,-2.2838,-2.4139,-2.4441,-2.7293,-3.1621,-3.7715,-4.1816,0.0,-4.6523,-4.7031,-4.7578,0.0,0.0,0.0,0.0,0.0,0.0,0.0,0.0,0.0,0.0,0.0,0.0,0.0,0.0,0.0,0.0,0.0,0.0,0.0,0.0,0.0,0.0,0.0,-4.6577,-4.7174,-4.7159,-4.7428,-4.8043,-4.8167,-4.8193,-4.8103,-4.838,-4.8428,-4.8282,-4.9131,-4.9613,-4.9742,-4.9773,-5.0295,-5.1112,-5.1033,-5.1133,-5.1348,-5.123,-5.1289,-5.1484,-5.2207,-5.248,-5.248,0.0,0.0,0.0,0.0,0.0,0.0,0.0,0.0,0.0,0.0,-1.8298,0.0,0.0,0.0,0.0,0.0,0.0,0.0,0.0,0.0,0.0,-1.6557,-1.7494,-1.8405,-1.928,-2.0091,-2.0488,-2.0427,-2.0362,-2.0787,-2.1612,-2.0083,-1.9744,-2.0409,-2.04,-2.0418,-2.0421,-2.0539,-2.0914,-2.1456,-2.1693,-2.2105,-2.2513,-2.1985,-2.1687,-2.158,-2.1867,-2.1812,-2.1633,-2.1752,-2.1792,0.0,0.0,0.0,-2.0943,-2.1531,-2.2394,-2.35,-2.5027,0.0,-3.3476,0.0,-3.9141,-4.2148,0.0,0.0,0.0,0.0,0.0,0.0,0.0,0.0,0.0,0.0,0.0,0.0,0.0,0.0,0.0,0.0,0.0,0.0,0.0,0.0,0.0,0.0,0.0,0.0,0.0,-4.6367,-4.6284,-4.6273,-4.6161,-4.6142,-4.6238,-4.681,-4.7193,-4.7351,-4.813,-4.807,-4.7282,-4.7482,-4.7995,-4.874,-4.9473,-4.9892,-5.0008,-5.0113,-5.0586,-5.1172,-5.0586,-5.0781,-5.1406,-5.1523,-5.1562,-5.1562,0.0,0.0,0.0,0.0,0.0,0.0,0.0,0.0,0.0,0.0,0.0,-1.8249,0.0,0.0,0.0,0.0,0.0,0.0,0.0,0.0,0.0,-1.591,-1.7256,-1.8181,-1.8554,-1.9883,-2.0329,-1.9867,-2.0299,-2.0678,-2.1022,-2.123,-2.1762,-2.2486,-2.15,-2.1585,-2.2434,-2.1994,-2.1702,-2.1544,-2.1586,-2.1538,-2.1462,-2.1597,-2.139,-2.1219,-2.2714,-2.2626,-2.1953,-2.2935,-2.2937,-2.2458,-2.2081,0.0,0.0,0.0,-2.374,-2.4788,-2.6539,-2.9425,-3.248,0.0,-3.7539,-4.0195,-4.1914,0.0,0.0,0.0,0.0,0.0,0.0,0.0,0.0,0.0,0.0,0.0,0.0,0.0,0.0,0.0,0.0,0.0,0.0,0.0,0.0,0.0,0.0,0.0,-4.6299,-4.6231,-4.615,-4.6102,-4.593,-4.5815,-4.5738,-4.6009,-4.6219,-4.6313,-4.6679,-4.6698,-4.6371,-4.641,-4.6889,-4.7735,-4.8164,-4.8662,-4.9202,-4.9259,-4.9517,-4.9883,-4.959,-4.9687,-5.0,-5.0,-5.0312,-5.0723,0.0,0.0,0.0,0.0,0.0,0.0,0.0,0.0,0.0,0.0,0.0,0.0,0.0,0.0,0.0,0.0,0.0,0.0,0.0,0.0,0.0,-1.607,-1.7519,-1.8337,-1.8327,-1.9798,-2.0263,-1.9597,-2.0214,-2.0577,-2.0764,-2.2041,-2.3321,-2.4457,-2.3144,-2.3145,-2.4066,-2.346,-2.2791,-2.215,-2.1984,-2.1524,-2.1022,-2.1751,-2.1648,-2.1402,-2.3606,-2.3563,-2.2654,-2.396,-2.3966,-2.3386,-2.3176,-2.3505,0.0,0.0,0.0,-2.5832,0.0,0.0,-3.0636,-3.2832,-3.5332,-3.7676,0.0,0.0,0.0,0.0,0.0,0.0,0.0,0.0,0.0,0.0,0.0,0.0,0.0,0.0,0.0,0.0,0.0,0.0,0.0,0.0,0.0,0.0,0.0,0.0,-4.6309,-4.6142,-4.6046,-4.6026,-4.5873,-4.5738,-4.5586,-4.5586,-4.5586,-4.5586,-4.5586,-4.5643,-4.5757,-4.5786,-4.6133,-4.6737,-4.7062,-4.7636,-4.8307,-4.8355,-4.856,-4.8821,-4.8648,-4.8691,-4.8906,-4.8906,-4.9316,-4.9863,0.0,0.0,0.0,0.0,0.0,0.0,0.0,0.0,0.0,0.0,0.0,0.0,-1.896,-1.8129,-1.7343,-1.6653,-1.656,-1.6903,-1.7802,-1.7852,-1.785,-1.7868,-1.873,0.0,-1.9225,-2.0072,-2.0475,-2.0433,-2.0483,-2.0884,-2.1634,-2.1649,-2.2982,-2.5324,-2.5243,-2.4782,-2.4107,-2.4061,-2.4004,-2.3887,-2.3141,-2.2778,-2.2695,-2.2875,-2.2868,-2.2925,-2.4009,-2.4331,-2.4275,-2.4374,-2.4368,-2.4198,-2.3361,-2.3134,-2.3311,0.0,0.0,0.0,0.0,-2.754,0.0,-2.9507,-3.1738,0.0,0.0,0.0,0.0,0.0,0.0,0.0,0.0,0.0,0.0,0.0,0.0,0.0,0.0,0.0,0.0,0.0,0.0,0.0,0.0,0.0,0.0,0.0,0.0,0.0,-4.6294,-4.6046,-4.5873,-4.5815,-4.5815,-4.5738,-4.5586,-4.5586,-4.5586,-4.5586,-4.5586,-4.5586,-4.5603,-4.5736,-4.5761,-4.5738,-4.6756,-4.7226,-4.7291,-4.7419,-4.7972,-4.8636,-4.7938,-4.8164,-4.8906,-4.8906,-4.8926,-4.8965,0.0,0.0,0.0,0.0,0.0,0.0,0.0,0.0,0.0,0.0,0.0,0.0,0.0,-1.9037,-1.8467,-1.8285,-1.7806,-1.764,-1.7973,-1.7998,-1.8005,-1.8007,-1.8821,-1.93,-1.9309,-2.0082,-2.0503,-2.0494,-2.0496,-2.0914,-2.1723,-2.2792,-2.3729,-2.4587,-2.511,-2.5784,-2.6545,-2.6534,-2.6187,-2.5609,-2.537,-2.4927,-2.435,-2.3886,-2.372,-2.3776,0.0,0.0,0.0,-2.5769,-2.5974,-2.5959,-2.5643,-2.5188,-2.482,-2.5065,-2.5346,-2.5873,-2.7258,0.0,0.0,-2.9776,-3.1016,-3.2114,0.0,0.0,0.0,0.0,0.0,0.0,0.0,0.0,0.0,0.0,0.0,0.0,0.0,0.0,0.0,0.0,0.0,0.0,0.0,0.0,0.0,0.0,0.0,0.0,-4.6042,-4.5911,-4.5796,-4.568,-4.568,-4.5643,-4.5586,-4.5586,-4.5586,-4.5586,-4.5586,-4.568,-4.5796,-4.5838,-4.5935,-4.6065,-4.6467,-4.653,-4.6374,-4.659,-4.6885,-4.7132,-4.6868,-4.6953,-4.7226,-4.7226,-4.7598,-4.8066,0.0,0.0,0.0,0.0,0.0,0.0,0.0,0.0,0.0,-2.0134,0.0,0.0,0.0,0.0,-1.9105,-1.9216,-1.8734,-1.8542,-1.8823,-1.8847,-1.8846,-1.884,-1.9397,-1.9697,-1.9698,-2.0227,-2.063,-2.0931,-2.064,-2.09,-2.1712,-2.2817,-2.3296,-2.3325,-2.4687,-2.612,-2.7458,-2.7448,-2.7253,-2.6913,-2.6679,-2.641,-2.6109,-2.6206,-2.6088,0.0,0.0,0.0,0.0,0.0,0.0,-2.6952,-2.7218,-2.6755,-2.6035,-2.5707,-2.5604,-2.5917,-2.7323,-2.731,0.0,0.0,0.0,-3.0589,0.0,0.0,0.0,0.0,0.0,0.0,0.0,0.0,0.0,0.0,0.0,0.0,0.0,0.0,0.0,0.0,0.0,0.0,0.0,0.0,0.0,0.0,0.0,0.0,-4.6013,-4.5841,-4.5699,-4.5586,-4.5586,-4.5586,-4.5586,-4.5586,-4.5586,-4.5586,-4.5586,-4.568,-4.5796,-4.5853,-4.5969,-4.6142,-4.62,-4.6158,-4.6045,-4.6225,-4.6308,-4.6308,-4.6308,-4.6308,-4.6308,-4.6308,-4.668,-4.7207,0.0,0.0,0.0,0.0,0.0,0.0,0.0,0.0,-2.0287,-2.0204,0.0,0.0,0.0,0.0,0.0,-1.937,-1.9378,-1.9701,-2.0443,-2.0506,-2.0495,-2.0495,-2.051,-2.0494,-2.0496,-2.0499,-2.0931,-2.1808,-2.0953,-2.0924,-2.1693,-2.1675,-2.1659,-2.1741,-2.4196,-2.5774,-2.6573,-2.6621,-2.711,-2.7791,-2.7026,-2.7127,-2.7936,-2.9781,0.0,0.0,-3.0172,-2.9986,0.0,-2.8382,0.0,0.0,0.0,-2.7566,-2.6755,-2.5898,-2.5636,-2.5819,0.0,0.0,0.0,0.0,0.0,0.0,0.0,0.0,0.0,0.0,0.0,0.0,0.0,0.0,0.0,0.0,0.0,0.0,0.0,0.0,0.0,0.0,0.0,0.0,0.0,0.0,0.0,0.0,0.0,-4.5142,-4.6221,-4.5863,-4.5586,-4.5586,-4.5586,-4.5586,-4.5586,-4.5586,-4.5586,-4.5605,-4.5605,-4.5605,-4.5605,-4.5757,-4.5815,-4.5834,-4.6026,-4.6169,-4.6308,-4.6308,-4.6308,-4.6308,-4.6308,-4.6308,-4.6308,-4.6308,-4.6308,-4.6426,0.0,0.0,0.0,0.0,0.0,-2.0299,-2.0334,-2.0366,-2.0371,0.0,0.0,0.0,-2.1337,-2.1783,-2.1776,-2.1154,-2.1109,-2.0957,-2.0604,-2.0537,-2.0506,-2.0492,-2.0497,-2.0499,-2.0495,-2.0495,-2.091,-2.172,-2.1487,-2.1429,-2.1582,-2.2837,-2.3083,-2.2562,-2.4438,-2.5437,-2.5735,-2.7017,-2.8019,-2.8839,-2.9263,-2.9132,0.0,0.0,0.0,0.0,0.0,-2.8868,-2.9187,0.0,-2.8713,-2.8512,0.0,-2.7874,-2.7547,-2.6768,-2.6542,-2.6581,-2.6822,0.0,0.0,0.0,0.0,0.0,0.0,0.0,0.0,0.0,0.0,0.0,0.0,0.0,0.0,0.0,0.0,0.0,0.0,0.0,0.0,0.0,0.0,0.0,0.0,0.0,0.0,0.0,-4.3828,-4.4496,-4.5877,-4.5728,-4.5586,-4.5586,-4.5586,-4.5586,-4.5586,-4.5586,-4.5643,-4.5738,-4.5738,-4.5815,-4.5969,-4.6007,-4.6065,-4.6161,-4.6219,-4.6271,-4.6298,-4.63,-4.6308,-4.6308,-4.6308,-4.6308,-4.6308,-4.6308,-4.6308,-4.6328,0.0,0.0,0.0,0.0,0.0,-2.0347,-2.0392,-2.0421,-2.0443,0.0,0.0,0.0,-2.1737,-2.2252,-2.2223,-2.1366,-2.1308,-2.109,-2.0584,-2.0519,-2.0509,-2.0503,-2.0504,-2.0662,-2.0998,-2.0638,-2.1205,-2.2746,-2.2035,-2.2004,-2.2593,-2.3284,-2.3306,-2.2852,-2.4188,-2.4803,-2.4898,-2.6293,-2.7557,0.0,-2.9195,0.0,0.0,-3.1148,-3.0852,0.0,0.0,0.0,-3.113,-3.0017,-2.9917,0.0,0.0,0.0,-2.8826,-2.7663,-2.7108,-2.6859,-2.6855,-2.6296,-2.6029,-2.7366,0.0,0.0,0.0,-2.9874,0.0,0.0,0.0,0.0,0.0,0.0,0.0,0.0,0.0,0.0,0.0,0.0,0.0,0.0,0.0,0.0,0.0,0.0,0.0,0.0,-4.226,-4.3123,-4.4583,-4.4355,-4.4297,-4.4547,-4.4874,-4.5047,-4.5047,-4.547,-4.5719,-4.5796,-4.5838,-4.5891,-4.6027,-4.6073,-4.6142,-4.6234,-4.6273,-4.6309,-4.629,-4.629,-4.6308,-4.6308,-4.6308,-4.6308,-4.6308,-4.6308,-4.6308,-4.6348,0.0,0.0,-2.0223,-2.0301,-2.0373,-2.043,-2.0533,-2.0612,-2.0687,0.0,-2.1542,-2.2081,-2.209,-2.2187,-2.1913,-2.1086,-2.1027,-2.0957,-2.0795,-2.0705,-2.0639,-2.0623,-2.0531,-2.0866,-2.169,-2.0936,-2.17,-2.4063,-2.2553,-2.2506,-2.3796,-2.3284,-2.2951,-2.2831,-2.3793,-2.4233,-2.4292,-2.512,0.0,-2.7823,-2.7999,-2.9363,0.0,0.0,-3.2711,-3.2487,-3.259,-3.3122,-3.343,-3.1263,-3.0968,0.0,0.0,0.0,-3.0171,-2.8633,-2.7573,-2.6899,-2.6819,-2.6268,-2.5883,-2.6666,0.0,0.0,-2.9116,-2.9454,0.0,0.0,0.0,0.0,0.0,0.0,0.0,0.0,0.0,0.0,0.0,0.0,0.0,0.0,0.0,0.0,0.0,0.0,-3.8737,-3.9264,-4.0282,-4.1516,-4.2909,-4.2549,-4.253,-4.2989,-4.3758,-4.4162,-4.4182,-4.5161,-4.568,-4.5699,-4.5847,-4.5929,-4.5952,-4.6067,-4.6117,-4.6128,-4.624,-4.6308,-4.6308,-4.6308,-4.6308,-4.6308,-4.6308,-4.6308,-4.6308,-4.6308,-4.6308,-4.6406,0.0,-2.0238,-2.0302,-2.0371,-2.0446,-2.0725,-2.1409,-2.1542,-2.1798,-2.2496,-2.335,-2.3886,-2.3885,-2.4521,-2.4588,-2.374,-2.3656,-2.3355,-2.2633,-2.194,-2.1515,-2.1469,-2.0783,-2.082,-2.1675,-2.1527,-2.2017,-2.3156,-2.2823,-2.2446,-2.204,-2.3268,-2.3482,-2.2862,-2.4399,-2.5072,-2.5082,0.0,0.0,-2.7948,-2.8714,0.0,-2.9773,-3.1357,-3.1064,-2.9929,-3.0641,-3.1006,-3.1167,-3.1238,-3.0976,-3.0701,0.0,0.0,0.0,-2.9988,-2.8839,-2.7555,-2.6953,-2.6269,0.0,0.0,0.0,0.0,-2.8403,-2.9526,0.0,0.0,0.0,0.0,0.0,0.0,0.0,0.0,0.0,0.0,0.0,0.0,0.0,0.0,0.0,0.0,0.0,0.0,-3.8112,-3.8719,-4.0033,-4.1273,-4.2332,-4.272,-4.2761,-4.2396,-4.3008,-4.3355,-4.3395,-4.4314,-4.4833,-4.4991,-4.5726,-4.6122,-4.6223,-4.6251,-4.6264,-4.6264,-4.6287,-4.6308,-4.6308,-4.6308,-4.6308,-4.6308,-4.6308,-4.6308,-4.6308,-4.6308,-4.6308,-4.6328,-2.0287,-2.0334,-2.0377,-2.0434,-2.0842,-2.1297,-2.1728,-2.2174,-2.2603,-2.3047,-2.3866,-2.4391,-2.4399,-2.4783,-2.4695,-2.3826,-2.3745,-2.3563,-2.3132,-2.2691,-2.2425,-2.2357,-2.1928,-2.2086,-2.2934,-2.2527,-2.2905,-2.4149,-2.328,-2.3044,-2.3408,-2.3878,-2.4081,-2.4082,-2.4928,-2.5293,-2.5332,0.0,-2.6978,-2.8497,-2.8579,0.0,-3.0455,-3.0918,-3.0799,-3.039,-3.041,-3.0398,-3.0578,-3.1749,-3.1884,0.0,0.0,-3.1436,-3.125,0.0,-2.9462,-2.8375,0.0,0.0,0.0,-2.6347,0.0,0.0,0.0,-2.9205,0.0,0.0,0.0,0.0,0.0,0.0,0.0,0.0,0.0,0.0,0.0,0.0,0.0,0.0,0.0,0.0,0.0,0.0,-3.7157,-3.7897,-3.8651,-3.9354,-4.0065,-4.0796,-4.1066,-4.0761,-4.1931,-4.2566,-4.2604,-4.3568,-4.4299,-4.4799,-4.532,-4.5805,-4.6308,-4.6308,-4.6308,-4.6308,-4.6308,-4.6308,-4.6308,-4.6308,-4.6308,-4.6308,-4.6308,-4.6308,-4.6308,-4.6308,-4.6308,-4.6308,-2.0609,-2.0529,-2.0497,-2.0705,-2.1329,-2.1857,-2.2018,-2.2795,-2.3416,-2.3579,-2.4217,-2.4718,-2.4852,-2.4726,-2.4472,-2.4101,-2.377,-2.3646,-2.3815,-2.3519,-2.3232,-2.3012,-2.3001,-2.3294,-2.3948,-2.3417,-2.3806,-2.5155,-2.375,-2.3743,-2.5053,-2.4572,-2.4678,-2.5332,-2.5476,-2.563,-2.5842,0.0,0.0,-2.9286,0.0,-2.9809,-3.184,-3.1045,-3.1118,-3.1571,-3.0706,-3.0398,-3.0667,-3.2448,-3.2837,-3.244,-3.1656,-3.1847,0.0,0.0,0.0,0.0,0.0,0.0,0.0,0.0,0.0,-2.7363,0.0,0.0,0.0,0.0,0.0,0.0,0.0,0.0,0.0,0.0,0.0,0.0,0.0,0.0,0.0,0.0,0.0,0.0,0.0,0.0,-3.5892,-3.69,-3.6972,-3.7224,-3.7815,-3.8623,-3.9027,-3.8931,-4.0623,-4.1546,-4.1566,-4.2761,-4.3673,-4.4341,-4.4621,-4.5117,-4.5801,-4.5976,-4.6055,-4.6055,-4.623,-4.6308,-4.6308,-4.6308,-4.6308,-4.6308,-4.6308,-4.6308,-4.6308,-4.6308,-4.6308,-4.6308,-2.1404,-2.0973,-2.0724,-2.1527,-2.1721,-2.2065,-2.284,-2.3691,-2.4538,-2.5303,-2.5492,-2.5816,-2.6539,-2.5936,-2.6024,-2.742,-2.6168,0.0,-2.6421,0.0,-2.3822,-2.3042,-2.2997,-2.3011,-2.306,-2.3709,-2.4119,-2.4248,-2.4049,-2.4041,-2.424,-2.487,-2.5245,-2.5428,-2.6071,-2.683,-2.7614,0.0,-2.8675,0.0,-3.0152,-3.1181,0.0,-3.1878,-3.159,-3.1495,-3.0686,-3.0398,-3.0763,0.0,-3.2999,-3.2295,0.0,-3.383,-3.1637,-3.2165,0.0,0.0,0.0,0.0,0.0,0.0,-2.6961,0.0,0.0,0.0,0.0,0.0,0.0,0.0,0.0,0.0,0.0,0.0,0.0,0.0,0.0,0.0,0.0,0.0,0.0,0.0,0.0,0.0,0.0,-3.5669,-3.579,-3.6224,-3.7243,-3.7896,-3.8031,-3.7536,-3.9035,-3.9896,-3.9954,-4.1617,-4.2524,-4.2685,-4.3476,-4.3906,-4.4023,-4.4805,-4.5156,-4.5195,-4.5957,-4.6308,-4.6308,-4.6308,-4.6308,-4.6308,-4.6308,-4.6308,-4.6308,-4.6308,-4.6308,-4.6308,-2.1699,-2.1488,-2.1539,-2.2393,-2.2971,-2.3432,-2.3803,-2.4586,-2.5286,-2.5645,-2.5704,-2.6385,-2.8165,0.0,0.0,0.0,0.0,-2.7401,0.0,0.0,-2.6222,-2.7299,-2.5498,-2.489,-2.5843,-2.5263,-2.4919,-2.4846,-2.4349,-2.4331,-2.4802,-2.5139,-2.5582,-2.614,-2.6956,0.0,-2.796,0.0,-2.999,0.0,0.0,0.0,0.0,-3.1616,-3.1244,-3.1616,-3.1282,-3.1448,-3.1936,0.0,-3.2878,0.0,0.0,0.0,0.0,0.0,0.0,0.0,0.0,0.0,0.0,0.0,0.0,0.0,-2.7816,0.0,-2.8076,0.0,0.0,0.0,0.0,0.0,0.0,0.0,0.0,0.0,0.0,0.0,0.0,0.0,0.0,0.0,0.0,0.0,0.0,0.0,0.0,-3.4621,-3.546,-3.6243,-3.6743,-3.6954,-3.8182,-3.9107,-3.9641,-4.0474,-4.1417,-4.2402,-4.2773,-4.3203,-4.3711,-4.4082,-4.4258,-4.4297,-4.5176,-4.5547,-4.5586,-4.6094,-4.6308,-4.6308,-4.6308,-4.6308,-4.6308,-4.6308,-4.6308,-4.6308,-2.2461,-2.2322,-2.2438,-2.3308,-2.3976,-2.4479,-2.4726,-2.5299,-2.569,-2.5704,0.0,0.0,-2.9763,-2.8786,0.0,0.0,-3.0352,-2.9353,0.0,0.0,-2.8081,0.0,0.0,0.0,0.0,-2.6889,-2.6253,-2.5735,-2.511,-2.5091,-2.5668,-2.5658,-2.6119,-2.6986,-2.7601,-2.8151,-2.8651,0.0,-3.0859,-3.1719,-3.2947,-3.3445,-3.3267,-3.168,-3.1475,-3.2025,-3.2025,-3.241,-3.2872,-3.2776,-3.3352,0.0,-3.3275,0.0,0.0,0.0,0.0,0.0,-3.0624,0.0,0.0,0.0,0.0,0.0,0.0,0.0,0.0,0.0,0.0,0.0,0.0,0.0,-2.8207,-2.7983,0.0,0.0,0.0,0.0,0.0,0.0,0.0,0.0,0.0,0.0,0.0,0.0,-3.2927,0.0,-3.4287,-3.4962,-3.5666,-3.6469,-3.7486,-3.8447,-3.9324,-3.9717,-4.0625,-4.207,-4.207,-4.2402,-4.3027,-4.3242,-4.334,-4.3418,-4.4512,-4.5,-4.5078,-4.5937,-4.6308,-4.6308,-4.6308,-4.6308,-4.6308,-4.6308,-4.6308,-4.6308,-2.4143,-2.3649,-2.333,-2.4213,-2.4386,-2.4676,-2.5538,0.0,0.0,0.0,0.0,0.0,0.0,0.0,0.0,0.0,0.0,-3.1699,-3.1719,0.0,-2.851,0.0,0.0,-2.8376,0.0,-2.825,-2.8249,-2.6561,-2.6525,-2.6534,-2.6561,-2.6551,-2.7023,-2.7852,-2.7811,-2.8736,-3.0321,-3.0314,-3.0833,-3.1703,-3.1756,-3.1795,-3.184,0.0,-3.2846,-3.2852,-3.2852,0.0,0.0,-3.4834,-3.4853,0.0,0.0,0.0,0.0,0.0,0.0,0.0,0.0,0.0,0.0,-3.0637,0.0,0.0,0.0,0.0,-2.7845,0.0,0.0,0.0,0.0,-2.8205,-2.7947,-2.7177,-2.7754,0.0,0.0,0.0,0.0,0.0,0.0,0.0,0.0,0.0,0.0,-3.1885,-3.1938,-3.2667,-3.4318,-3.4562,-3.5018,-3.5892,-3.6837,-3.7753,-3.8613,-3.9473,-4.0351,-4.123,-4.123,-4.125,-4.1308,-4.209,-4.2441,-4.2539,-4.4258,-4.5,-4.5078,-4.5937,-4.6308,-4.6308,-4.6308,-4.6308,-4.6308,-4.6308,-4.6308,-4.6308,-2.5096,-2.5017,-2.4916,-2.5219,0.0,0.0,0.0,-2.6181,0.0,0.0,0.0,0.0,0.0,-3.5566,-3.5767,0.0,0.0,-3.4866,-3.4289,-3.3176,0.0,0.0,0.0,-3.0921,0.0,0.0,0.0,-2.6523,-2.6533,-2.6235,-2.5704,-2.6847,-2.755,-2.7887,-2.8964,-2.9802,0.0,0.0,0.0,0.0,0.0,-3.3108,-3.4676,0.0,0.0,-3.3757,-3.3757,-3.4122,0.0,-3.4641,-3.4834,-3.5064,-3.5018,-3.4558,-3.4021,-3.401,-3.3387,0.0,0.0,0.0,-3.3133,-3.3037,0.0,0.0,0.0,0.0,0.0,0.0,0.0,0.0,0.0,-2.7312,-2.7078,-2.6264,-2.6382,-2.6484,0.0,0.0,0.0,0.0,0.0,0.0,0.0,0.0,0.0,-3.0255,-3.0308,-3.103,0.0,-3.3401,-3.412,-3.4951,-3.5886,-3.7057,-3.8442,-3.8843,-3.9766,-4.1191,-4.1191,-4.1191,-4.1211,-4.1484,-4.1601,-4.168,-4.2793,-4.3613,-4.4219,-4.5078,-4.5781,-4.6308,-4.6308,-4.6308,-4.6308,-4.6308,-4.6308,-4.6308,-2.6502,-2.6619,0.0,0.0,0.0,0.0,0.0,0.0,0.0,0.0,-3.226,0.0,-3.8492,0.0,-3.8871,0.0,-3.9109,-3.7607,-3.6469,-3.5611,0.0,-3.4218,-3.3698,0.0,0.0,0.0,0.0,0.0,-2.7857,-2.7412,-2.6577,-2.7401,-2.7953,-2.828,-2.936,-3.0009,-3.0369,0.0,-3.1435,0.0,0.0,-3.4206,0.0,0.0,-3.4393,-3.4833,0.0,-3.4745,-3.5127,-3.4668,-3.4889,-3.5273,-3.4807,-3.4601,-3.4525,-3.4525,-3.4037,-3.3653,-3.4342,-3.412,0.0,-3.4419,-3.3712,0.0,-3.2422,0.0,0.0,0.0,0.0,0.0,0.0,0.0,-2.6738,-2.6211,-2.5881,-2.57,0.0,-2.5425,0.0,0.0,0.0,0.0,0.0,0.0,-2.8569,-2.943,-2.9507,-3.0235,0.0,0.0,-3.3721,-3.4534,-3.5468,-3.6753,-3.846,-3.8551,-3.9473,-4.1191,-4.1191,-4.1191,-4.1191,-4.1191,-4.1191,-4.123,-4.2051,-4.2715,-4.3301,-4.418,-4.5058,-4.584,-4.584,-4.6035,-4.6308,-4.6308,-4.6308,-4.6308,0.0,0.0,0.0,0.0,-2.6519,0.0,0.0,0.0,-3.1301,0.0,-3.3964,-3.7324,-3.8247,-3.9835,-4.1474,-4.3008,-4.1643,0.0,-3.8238,-3.7459,0.0,0.0,-3.4417,-3.3628,-3.1872,0.0,0.0,0.0,0.0,-2.9883,-2.8979,-2.8248,-2.8307,-2.8998,-2.9083,0.0,-3.0323,-3.1199,-3.1436,-3.1452,-3.379,-3.487,-3.515,-3.5761,0.0,-3.5949,-3.5036,-3.4694,-3.4734,-3.4999,-3.5088,-3.5138,-3.5383,-3.5479,-3.5479,-3.546,-3.5289,-3.5138,-3.5383,-3.4337,-3.3492,-3.4754,0.0,0.0,0.0,0.0,-3.3708,0.0,0.0,0.0,0.0,0.0,-2.7036,-2.6922,-2.6222,-2.5697,-2.5699,-2.499,0.0,0.0,0.0,0.0,0.0,-2.759,-2.8423,-2.9318,-2.9362,-3.0135,0.0,0.0,-3.3748,-3.4609,-3.5527,-3.6836,-3.8574,-3.8594,-3.9473,-4.1191,-4.1191,-4.1191,-4.1191,-4.1191,-4.1191,-4.123,-4.2012,-4.2363,-4.2461,-4.3281,-4.418,-4.5,-4.5,-4.5527,-4.6308,-4.6308,-4.6308,-4.6308,-2.8301,-2.8265,-2.8073,0.0,-2.7777,-2.7947,0.0,0.0,0.0,0.0,-3.5891,-3.8878,-4.1523,-4.3307,-4.4218,-4.4008,-4.3585,0.0,0.0,0.0,0.0,-3.6199,-3.731,-3.6584,-3.3544,-3.4364,0.0,-3.1196,0.0,-3.0472,-2.8927,-2.9372,-2.9378,-2.9044,-3.0248,-3.0948,-3.1283,-3.2019,-3.2703,-3.3353,-3.3428,-3.4526,0.0,0.0,-3.5158,-3.5716,-3.4973,-3.4694,-3.4694,-3.4774,-3.4944,-3.5088,-3.4944,-3.5034,-3.5155,-3.4963,-3.487,-3.4832,-3.4889,-3.4603,-3.4389,-3.4736,-3.4012,-3.331,0.0,0.0,0.0,0.0,0.0,0.0,0.0,0.0,0.0,-2.7206,-2.6217,-2.5698,-2.5703,0.0,0.0,-2.5664,0.0,0.0,-2.6011,-2.6173,-2.6636,-2.7493,-2.7576,-2.834,0.0,0.0,0.0,-3.3711,-3.5215,-3.6836,-3.8574,-3.8594,-3.9473,-4.1191,-4.1191,-4.1191,-4.1191,-4.1191,-4.1191,-4.1211,-4.1426,-4.1855,-4.2422,-4.2637,-4.3633,-4.5,-4.5,-4.5527,-4.6308,-4.6308,-4.6308,-4.6308,-3.0045,0.0,0.0,-3.0433,0.0,0.0,-3.0392,0.0,0.0,-3.5725,-3.8846,0.0,-4.2402,-4.4372,-4.524,-4.4374,-4.4297,0.0,-4.12,0.0,0.0,-3.795,-3.8411,-3.7454,-3.4768,-3.5199,0.0,-3.2581,0.0,-3.1939,-3.0571,-3.1059,-3.0858,-3.0142,-3.1407,-3.1991,-3.2073,-3.239,-3.3538,-3.5063,-3.4149,0.0,0.0,-3.5265,-3.4927,-3.4983,-3.4475,-3.4325,-3.4307,-3.4442,-3.4574,-3.4715,-3.4694,-3.4793,-3.4908,-3.4734,-3.4612,-3.4508,-3.4653,-3.4505,-3.433,-3.4464,-3.4326,-3.4158,-3.3972,-3.3999,-3.3992,0.0,0.0,0.0,0.0,0.0,0.0,-2.7307,-2.6542,-2.6145,0.0,0.0,0.0,0.0,-2.5254,0.0,-2.5655,-2.564,-2.5964,-2.6836,-2.6894,-2.7649,0.0,0.0,0.0,-3.2809,-3.5253,-3.668,-3.6894,-3.8789,-3.9844,-4.0078,-4.084,-4.1191,-4.1191,-4.1191,-4.1191,-4.1191,-4.1191,-4.1465,-4.1875,-4.1875,-4.2656,-4.3945,-4.4707,-4.5527,-4.6308,-4.6308,-4.6308,-4.6308,0.0,0.0,0.0,0.0,0.0,0.0,0.0,-3.5621,0.0,-3.8143,0.0,-4.3467,-4.2133,-4.4141,-4.5297,-4.4528,0.0,-4.3797,-4.2239,-4.2027,-4.1277,-3.97,-3.8681,-3.745,-3.5872,-3.5669,-3.5114,0.0,-3.4178,-3.3732,-3.2847,-3.287,-3.2435,-3.1692,-3.2512,0.0,0.0,-3.2613,-3.397,-3.6096,-3.5076,-3.5286,-3.6156,-3.5767,-3.5079,-3.4288,-3.3961,-3.3815,-3.3842,-3.4068,-3.4171,-3.4246,-3.4508,-3.4612,-3.4632,-3.4591,-3.4375,-3.4218,-3.4508,-3.4208,-3.3868,-3.4074,-3.471,-3.5094,-3.4414,-3.5205,-3.5907,-3.5291,-3.4736,-3.4353,0.0,0.0,0.0,-2.7599,0.0,0.0,0.0,0.0,0.0,0.0,0.0,0.0,0.0,-2.5658,-2.5937,-2.6693,-2.6732,-2.7444,0.0,0.0,0.0,-3.1892,-3.5308,0.0,-3.5215,0.0,-4.0371,-3.9101,-4.0527,-4.1191,-4.1191,-4.1191,-4.1191,-4.1191,-4.1191,-4.1191,-4.1191,-4.1191,-4.1738,-4.2734,-4.4355,-4.5527,-4.6308,-4.6308,-4.6308,-4.6308,0.0,0.0,0.0,0.0,0.0,-3.5482,-3.8807,-3.7367,-3.6693,-3.8891,-4.1017,-4.2472,-4.2826,-4.4487,-4.5528,-4.5374,-4.5355,0.0,0.0,0.0,0.0,-4.1412,-3.9892,-3.8604,-3.7584,-3.6901,-3.6056,0.0,-3.5136,-3.4655,-3.369,-3.3745,-3.3322,-3.2523,-3.3398,0.0,-3.3653,-3.3483,0.0,-3.4496,-3.411,-3.4633,-3.5614,-3.5316,-3.5114,-3.487,-3.4334,-3.3986,-3.3807,-3.3868,-3.4018,-3.4171,-3.4012,-3.4093,-3.4242,-3.4012,-3.3902,-3.3876,-3.3928,-3.3895,-3.3815,-3.3868,-3.3987,-3.4197,-3.4524,-3.4788,-3.5078,-3.5373,-3.5345,-3.5059,-3.4353,0.0,0.0,0.0,0.0,0.0,0.0,0.0,0.0,0.0,0.0,0.0,0.0,0.0,0.0,0.0,0.0,0.0,0.0,0.0,0.0,0.0,0.0,0.0,0.0,0.0,-4.0664,-4.1738,-4.1367,-4.1191,-4.1191,-4.1191,-4.1191,-4.1191,-4.1191,-4.1191,-4.1191,-4.1191,-4.2109,-4.3574,-4.4609,-4.5527,-4.6308,-4.6308,-4.6308,-4.6308,0.0,0.0,0.0,0.0,0.0,0.0,0.0,-4.0604,0.0,-4.174,-4.2649,-4.3288,-4.3695,-4.4853,-4.5586,-4.5586,-4.5586,-4.5047,-4.3758,-4.3316,-4.2508,-4.1181,-3.995,0.0,-3.8027,-3.7175,-3.6469,-3.593,-3.5493,-3.5026,-3.4505,-3.4552,-3.4129,-3.3391,-3.3815,-3.4213,0.0,0.0,0.0,-3.4683,-3.4208,-3.4616,-3.546,-3.5207,-3.5105,-3.5016,-3.4405,-3.4123,-3.3986,-3.3842,-3.3876,-3.3961,-3.3842,-3.3876,-3.3961,-3.3842,-3.3807,-3.3807,-3.3807,-3.3807,-3.3807,-3.3807,-3.3807,-3.3902,-3.4334,-3.4572,-3.4813,-3.5207,-3.5398,-3.5218,-3.4372,-3.3288,0.0,0.0,0.0,0.0,0.0,0.0,0.0,0.0,0.0,0.0,0.0,0.0,0.0,0.0,0.0,0.0,0.0,0.0,0.0,0.0,0.0,0.0,0.0,0.0,0.0,-3.9101,-4.0527,-4.1191,-4.1191,-4.1191,-4.1191,-4.1191,-4.1191,-4.1191,-4.123,-4.1641,-4.2558,-4.3789,-4.4668,-4.5527,-4.6308,-4.6308,-4.6308,-4.6308,0.0,-3.7916,0.0,0.0,-3.9681,0.0,-4.3156,-4.3438,-4.3689,-4.4468,-4.4586,-4.4586,-4.4586,-4.5182,-4.5586,-4.5586,-4.5586,-4.5028,-4.372,-4.3297,-4.2489,-4.1104,-4.0085,-3.9065,-3.8027,-3.7334,-3.6742,0.0,-3.5562,-3.5186,-3.5132,-3.511,-3.4819,0.0,0.0,0.0,0.0,0.0,-3.3887,-3.5019,-3.4422,-3.4718,-3.5479,-3.5273,-3.5138,-3.5034,-3.451,-3.4246,-3.4171,-3.3876,-3.3807,-3.3807,-3.3807,-3.3807,-3.3807,-3.3807,-3.3807,-3.3807,-3.3807,-3.3807,-3.3807,-3.3807,-3.3935,-3.4097,-3.4255,-3.4639,-3.5001,-3.516,-3.5354,-3.5295,-3.461,-3.4371,0.0,0.0,0.0,0.0,0.0,0.0,0.0,0.0,0.0,0.0,0.0,0.0,0.0,0.0,0.0,-2.6061,-2.6922,-2.6981,0.0,0.0,0.0,-3.3838,-3.3205,0.0,-3.9531,0.0,-3.9961,-4.1191,-4.1191,-4.1191,-4.1191,-4.1191,-4.1191,-4.1308,-4.1523,-4.2344,-4.3183,-4.4043,-4.4726,-4.5527,-4.6308,-4.6308,-4.6308,-4.6308,0.0,0.0,0.0,0.0,0.0,0.0,0.0,-4.4295,-4.4639,-4.5372,-4.547,-4.547,-4.547,-4.5547,-4.5586,-4.5586,-4.5586,-4.5528,-4.5374,-4.3932,-4.3028,-4.2854,-4.1258,-3.9642,-3.8027,-3.7911,-3.706,0.0,0.0,-3.5267,0.0,-3.5188,-3.5196,0.0,0.0,0.0,0.0,-3.4045,-3.4112,-3.4314,-3.4218,-3.4718,-3.5493,-3.546,-3.5304,-3.507,-3.4754,-3.4464,-3.4171,-3.3876,-3.3807,-3.3807,-3.3807,-3.3807,-3.3807,-3.3807,-3.3807,-3.3807,-3.3807,-3.3807,-3.3807,-3.3807,-3.4357,-3.485,-3.4695,-3.5239,-3.5721,-3.5507,-3.5493,-3.5488,-3.5391,-3.4745,-3.3677,0.0,0.0,0.0,0.0,0.0,0.0,0.0,0.0,0.0,0.0,0.0,0.0,0.0,0.0,-2.6052,-2.6875,-2.6961,-2.7842,-2.9654,0.0,-3.3782,-3.678,-3.8104,0.0,-4.1797,-4.1387,-4.1191,-4.1191,-4.1191,-4.1191,-4.1191,-4.1191,-4.1601,-4.2344,-4.3223,-4.4082,-4.4883,-4.4961,-4.5527,-4.6308,-4.6308,-4.6308,-4.6308,0.0,0.0,0.0,0.0,0.0,0.0,0.0,-4.5147,-4.5269,-4.5565,-4.5586,-4.5586,-4.5586,-4.5586,-4.5586,-4.5586,-4.5586,-4.5374,-4.4855,-4.3739,-4.2874,-4.2335,-4.0681,-3.9469,-3.8796,-3.8277,-3.7598,0.0,0.0,0.0,0.0,0.0,0.0,0.0,0.0,-3.4678,-3.4856,-3.437,-3.448,-3.4988,-3.4988,-3.5199,-3.5493,-3.5493,-3.5432,-3.5289,-3.4851,-3.4593,-3.4442,-3.3954,-3.3807,-3.3807,-3.3807,-3.3807,-3.3807,-3.3807,-3.4137,-3.4523,-3.4523,-3.4908,-3.5165,-3.4651,-3.5274,-3.5913,-3.5496,-3.5798,-3.6157,-3.6219,-3.5853,-3.5493,-3.5493,-3.5218,-3.479,0.0,0.0,0.0,0.0,0.0,0.0,0.0,0.0,0.0,0.0,0.0,0.0,0.0,0.0,0.0,-2.61,-2.7133,-2.8538,-3.0318,0.0,-3.3516,-3.6484,-3.7354,-3.8574,-4.0137,-4.0859,-4.1191,-4.1211,-4.1699,-4.2207,-4.2676,-4.2148,-4.2402,-4.3242,-4.4121,-4.4687,-4.5058,-4.5586,-4.5996,-4.6308,-4.6308,-4.6308,-4.6308,-4.3679,0.0,-4.5607,0.0,-4.5962,-4.6005,-4.6047,-4.602,-4.5893,-4.5624,-4.5586,-4.5586,-4.5586,-4.5586,-4.5586,-4.5586,-4.5586,-4.5336,-4.472,-4.3912,-4.3066,-4.222,-4.0796,0.0,-3.9296,-3.87,-3.8208,-3.7859,-3.7797,0.0,0.0,0.0,0.0,0.0,-3.4841,-3.4817,-3.5388,-3.482,-3.4949,-3.5493,-3.5493,-3.5493,-3.5493,-3.5493,-3.5446,-3.532,-3.4963,-3.4714,-3.4486,-3.4062,-3.3868,-3.3807,-3.3807,-3.3807,-3.3844,-3.4082,-3.4623,-3.5174,-3.534,-3.5956,-3.6396,-3.5688,-3.6378,-3.7052,-3.6513,-3.6521,-3.6585,-3.6387,-3.5911,-3.5493,-3.5493,-3.5493,-3.5451,-3.5253,0.0,0.0,0.0,0.0,0.0,0.0,-2.9956,-3.056,-3.1877,0.0,0.0,0.0,0.0,0.0,-2.6705,-2.7424,0.0,0.0,0.0,0.0,0.0,-3.6596,-3.7713,-3.9375,-4.0605,-4.1191,-4.123,-4.2031,-4.2871,-4.3672,-4.332,-4.3516,-4.4141,-4.5019,-4.5371,-4.5449,-4.6055,-4.6308,-4.6308,-4.6308,-4.6308,-4.6308,-4.7645,-4.6453,-4.6006,-4.8856,-4.799,-4.6894,-4.6894,-4.6874,-4.6586,-4.5701,-4.5586,-4.5586,-4.5586,-4.5586,-4.5586,-4.5586,-4.5586,-4.5586,-4.5566,-4.4759,-4.3932,0.0,0.0,-4.0989,-3.9335,-3.9277,-3.8854,-3.8007,0.0,0.0,-3.7879,0.0,-3.6631,-3.6642,-3.5777,-3.5427,-3.5493,-3.5474,-3.5474,-3.5493,-3.5493,-3.5493,-3.5493,-3.5493,-3.5339,-3.5105,-3.5105,-3.4716,-3.42,-3.42,-3.4018,-3.3807,-3.3807,-3.3807,-3.3972,-3.4734,-3.5232,-3.5609,-3.6141,-3.6739,-3.7106,-3.6758,-3.7544,-3.8234,-3.7699,-3.7526,-3.7122,-3.5792,-3.5526,-3.5493,-3.5493,-3.5493,-3.5232,-3.4429,0.0,0.0,0.0,0.0,0.0,0.0,-3.1385,-3.1899,-3.1991,0.0,0.0,0.0,0.0,0.0,0.0,0.0,0.0,-3.0719,-2.9976,0.0,-3.5949,-3.5934,-3.768,-4.1172,-4.1191,-4.1191,-4.123,-4.2031,-4.2871,-4.375,-4.4609,-4.4961,-4.5058,-4.5918,-4.6289,-4.6289,-4.6308,-4.6308,-4.6308,-4.6308,-4.6308,-4.6308,-4.8759,-4.8472,-4.8125,-4.8452,-4.7625,-4.6913,-4.6913,-4.6394,-4.6124,-4.6432,-4.597,-4.5586,-4.5586,-4.5586,-4.5586,0.0,-4.5586,-4.5586,0.0,-4.4778,-4.4182,-4.3932,-4.2566,-4.1546,-4.1027,-4.0412,-3.97,-3.8892,0.0,0.0,0.0,-3.8527,-3.8146,-3.7584,-3.73,-3.7185,-3.718,-3.6584,-3.6334,-3.6276,-3.5718,-3.5493,-3.5493,-3.5493,-3.5446,-3.5354,-3.5174,-3.4851,-3.4508,-3.4288,-3.4407,-3.4633,-3.4633,-3.4247,-3.3844,-3.4119,-3.5064,-3.6086,-3.624,-3.7376,-3.834,-3.7678,-3.8554,-3.9354,-3.8651,-3.8144,-3.7398,-3.582,-3.5949,-3.6161,-3.5603,-3.5949,-3.6067,-3.5311,-3.5123,0.0,0.0,0.0,0.0,0.0,-3.2598,-3.3053,0.0,-3.2635,0.0,0.0,0.0,0.0,0.0,0.0,0.0,0.0,-3.3453,0.0,-3.7753,-3.7702,-3.8865,-4.1211,-4.1758,-4.2637,-4.3789,-4.3437,-4.4082,-4.5449,-4.5137,-4.5332,-4.5918,-4.6191,-4.6308,-4.6308,-4.6308,-4.6308,-4.6308,-4.6308,-4.6308,-4.6308,-4.9182,-4.9144,-4.8836,-4.8625,-4.7894,-4.7259,-4.6951,-4.6432,-4.6163,-4.6374,-4.5932,-4.5586,-4.5586,-4.5586,0.0,-4.5586,-4.5586,-4.5586,-4.5586,-4.5086,-4.4643,-4.4297,-4.3008,-4.2143,-4.1813,0.0,0.0,-3.9738,-4.021,-4.0159,-3.9624,-3.9415,-3.9022,-3.8464,-3.8142,-3.8007,-3.7969,-3.743,-3.7199,-3.7142,-3.6642,-3.6449,-3.6449,-3.6449,-3.6449,-3.6416,-3.6259,-3.6021,-3.576,-3.556,-3.5539,-3.566,-3.566,-3.522,-3.4743,-3.4743,-3.5772,-3.6888,-3.6783,-3.8077,-3.925,-3.8302,-3.9153,-3.9943,-3.8831,-3.8278,-3.7526,-3.5853,-3.5911,-3.6103,-3.5603,-3.5911,-3.6111,-3.5642,-3.5522,-3.5239,-3.4472,0.0,0.0,0.0,0.0,0.0,0.0,-3.3997,0.0,0.0,0.0,0.0,0.0,0.0,0.0,-3.3378,-3.474,0.0,-3.8091,-3.8364,-3.9414,-4.1211,-4.2012,-4.3301,-4.498,-4.4433,-4.4961,-4.6269,-4.5723,-4.5801,-4.6308,-4.6308,-4.6308,-4.6308,-4.6308,-4.6308,-4.6308,-4.6308,-4.6308,-4.6308,-4.9144,-4.8682,0.0,0.0,-4.8548,0.0,-4.7009,-4.6855,-4.6547,-4.5778,-4.5624,-4.5586,-4.5586,-4.5586,-4.5586,-4.5586,0.0,0.0,0.0,-4.5586,-4.5238,-4.4429,-4.3624,-4.2797,-4.1998,-4.1062,-4.0562,-4.0489,-4.0489,-4.0489,-4.0469,-3.9734,-3.9388,-3.9354,-3.8531,-3.8166,-3.8161,-3.8104,-3.8084,-3.8084,-3.8027,-3.8007,-3.8007,-3.8007,-3.8007,-3.8007,-3.8007,-3.7827,-3.76,-3.76,-3.7251,-3.6802,-3.6795,-3.6655,-3.646,-3.6321,-3.7036,-3.7801,-3.7577,-3.8696,-3.9716,-3.8663,-3.9414,-3.9988,-3.8373,-3.795,-3.7469,-3.5911,-3.557,-3.557,-3.557,-3.557,-3.5584,-3.5512,-3.5493,-3.5224,-3.4403,0.0,0.0,0.0,0.0,0.0,0.0,-3.4511,-3.4491,0.0,0.0,0.0,0.0,0.0,-3.2745,-3.3542,-3.442,-3.5689,-3.7365,-3.8241,-3.9598,-4.1387,-4.2129,-4.3398,-4.5098,-4.5098,-4.5527,-4.6308,-4.6308,-4.6308,-4.6308,-4.6308,-4.6308,-4.6308,-4.6308,-4.6308,-4.6308,-4.6308,-4.6308,-4.6308,0.0,0.0,-4.7451,-4.8259,-4.7182,-4.6355,-4.6836,-4.6336,-4.6067,-4.6528,-4.6009,-4.5586,-4.5586,-4.5586,-4.5586,-4.5586,-4.5586,-4.5586,-4.5586,-4.5586,-4.5509,-4.5315,-4.4468,-4.3929,-4.3698,-4.2252,-4.1174,-4.0489,-4.0489,-4.0489,-4.0489,-4.0312,-4.0235,-4.02,-3.9988,-3.9912,-3.9873,-3.9242,-3.8992,-3.8935,-3.8277,-3.8007,-3.8007,-3.8007,-3.8007,-3.8007,-3.8007,-3.7827,-3.76,-3.76,-3.7772,-3.7934,-3.7692,-3.7984,-3.8173,-3.6701,-3.6922,-3.7587,-3.7507,-3.8107,-3.8817,-3.9184,-3.9433,-3.9296,-3.8238,-3.7488,-3.6911,-3.6507,-3.643,-3.643,-3.643,-3.643,-3.6219,-3.5603,-3.5493,-3.5226,-3.4407,-3.504,-3.5194,0.0,-3.4766,-3.5316,-3.5372,-3.5321,-3.5379,0.0,0.0,0.0,0.0,-3.5305,-3.5176,-3.5388,-3.6853,-3.7868,-3.8293,-3.9797,-4.1422,-4.3105,-4.3301,-4.4316,-4.5996,-4.5996,-4.6094,-4.6308,-4.6308,-4.6308,-4.6308,-4.6308,-4.6308,-4.6308,-4.6308,-4.6308,-4.6308,-4.6308,-4.6308,-4.6308,-5.026,-4.9586,-4.8529,-4.8163,-4.7355,-4.6644,-4.6355,-4.5893,-4.5759,-4.624,-4.5893,-4.5586,-4.5586,-4.5586,-4.5586,-4.5586,-4.5586,-4.5586,-4.5586,-4.5586,-4.5586,-4.5586,-4.4778,-4.4297,-4.4295,-4.2659,-4.1354,-4.0489,-4.0489,-4.0489,-4.0489,-4.0489,-4.0489,-4.0489,-4.0489,-4.0489,-4.0469,-4.0046,-3.9838,-3.98,-3.9335,-3.9142,-3.9142,-3.9142,-3.9142,-3.9142,-3.9142,-3.9042,-3.8942,-3.8942,-3.9032,-3.9155,-3.8961,-3.8983,-3.8904,-3.7877,-3.779,-3.8015,-3.7747,-3.8271,-3.9059,-3.9811,-3.9348,-3.8681,-3.8604,-3.7911,-3.7296,-3.7296,-3.7296,-3.718,-3.6776,-3.6699,-3.6449,-3.5641,-3.5541,-3.5391,-3.4966,-3.5635,-3.6028,-3.5546,-3.5856,-3.6276,-3.6699,-3.6047,-3.5996,-3.6968,0.0,0.0,-3.7207,-3.6813,-3.6589,-3.6582,-3.7891,-3.8789,-3.9199,-4.0898,-4.2402,-4.3691,-4.4101,-4.5,-4.6308,-4.6308,-4.6308,-4.6308,-4.6308,-4.6308,-4.6308,-4.6308,-4.6308,-4.6308,-4.6308,-4.6308,-4.6308,-4.6308,-4.6308,-4.6308,-5.0317,-5.0491,-4.9837,-4.8355,-4.8009,-4.7394,-4.5836,-4.5586,-4.5586,-4.5586,-4.5586,-4.5586,-4.5586,-4.5586,-4.5586,-4.5586,-4.5586,-4.5586,-4.5586,-4.5586,-4.5586,-4.5586,-4.4895,-4.4434,-4.4314,-4.2665,-4.1377,-4.0489,-4.0489,-4.0489,-4.0489,-4.0489,-4.0489,-4.0489,-4.0489,-4.0489,-4.0489,-4.0489,-4.0489,-4.0489,-4.0489,-4.0489,-4.0489,-4.0489,-4.0489,-4.0489,-4.0489,-4.0489,-4.0489,-4.0489,-4.0356,-4.0158,-4.012,-3.9709,-3.9238,-3.9186,-3.9017,-3.8726,-3.8226,-3.8863,-3.9781,-4.02,-3.9238,-3.8392,-3.9123,-3.8623,-3.8046,-3.8161,-3.8084,-3.7777,-3.7026,-3.6796,-3.643,-3.5636,-3.5558,-3.5549,-3.5444,0.0,-3.6709,-3.6709,-3.6704,-3.7065,-3.7983,-3.6815,-3.6702,-3.8447,-3.9,-3.912,0.0,-3.7973,-3.7569,-3.7694,-3.8418,-3.9219,-4.0098,-4.1621,-4.2832,-4.3711,-4.457,-4.5469,-4.6308,-4.6308,-4.6308,-4.6308,-4.6308,-4.6308,-4.6308,-4.6308,-4.6308,-4.6308,-4.6308,-4.6308,-4.6308,-4.6308,-4.6308,-4.6308,-5.0221,-4.951,-4.8413,-4.8144,-4.7548,-4.6759,-4.574,-4.5586,-4.5586,-4.5586,-4.5586,-4.5586,-4.5586,-4.5586,-4.5586,-4.5586,-4.5586,-4.5586,-4.5586,-4.5586,-4.5586,-4.5586,-4.547,-4.5066,-4.4318,-4.2665,-4.1373,-4.0489,-4.0489,-4.0489,-4.0489,-4.0489,-4.0489,-4.0489,-4.0489,-4.0489,-4.0489,-4.0489,-4.0489,-4.0489,-4.0489,-4.0489,-4.0489,-4.0489,-4.0489,-4.0489,-4.0489,-4.0489,-4.0489,-4.0489,-4.0473,-4.0389,-4.0177,-4.0022,-3.9901,-3.9599,-3.9481,-3.9389,-3.901,-3.9458,-3.9948,-3.958,-3.9277,-3.9123,-3.9258,-3.8623,-3.82,-3.895,-3.8507,-3.7969,-3.7815,-3.7199,-3.6458,-3.57,-3.5604,-3.5358,-3.4681,0.0,-3.5789,-3.5797,-3.6325,-3.7046,-3.793,-3.7887,-3.8247,-3.933,-3.8878,-3.8883,-3.9668,-3.8879,-3.8734,-3.9476,-3.9627,-4.0117,-4.0996,-4.1933,-4.2832,-4.3711,-4.457,-4.5469,-4.6308,-4.6308,-4.6308,-4.6308,-4.6308,-4.6308,-4.6308,-4.6308,-4.6308,-4.6308,-4.6308,-4.6308,-4.6308,-4.6308,-4.6308,-4.6308,-5.0279,-4.9298,-4.8105,-4.8105,-4.7432,-4.6605,-4.572,-4.5586,-4.5586,-4.5586,-4.5586,-4.5586,-4.5586,-4.5586,-4.5586,-4.5586,-4.5586,-4.5586,-4.5586,-4.5586,-4.5586,-4.5586,-4.5586,-4.4989,-4.3684,-4.2896,-4.1854,-4.0489,-4.0489,-4.0489,-4.0489,-4.0489,-4.0489,-4.0489,-4.0489,-4.0489,-4.0489,-4.0489,-4.0489,-4.0489,-4.0489,-4.0489,-4.0489,-4.0489,-4.0489,-4.0489,-4.0489,-4.0489,-4.0489,-4.0489,-4.0489,-4.0473,-4.0356,-4.0213,-4.0081,-3.9922,-3.988,-3.9838,-3.9668,-3.9964,-4.0243,-4.0011,-3.9623,-3.9411,-3.9835,-3.9296,-3.8931,-3.9758,-3.9623,-3.92,-3.8777,-3.7988,-3.7137,-3.637,-3.5871,0.0,0.0,-3.6132,-3.6949,-3.6957,-3.7629,-3.843,-3.9258,-3.8849,-3.9013,-4.0159,-3.9942,-4.0004,-4.0566,-4.0227,-4.0377,-4.1226,-4.0839,-4.123,-4.2539,-4.291,-4.3535,-4.4414,-4.5273,-4.5918,-4.6308,-4.6308,-4.6308,-4.6308,-4.6308,-4.6308,-4.6308,-4.6308,-4.6308,-4.6308,-4.6308,-4.6308,-4.6308,-4.6308,-4.6308,-4.6308,-5.0356,-4.9298,-4.8105,-4.8105,-4.7432,-4.6682,-4.599,-4.5893,-4.5893,-4.5893,-4.5893,-4.5817,-4.5605,-4.5586,-4.5586,-4.5586,-4.5586,-4.5586,-4.5586,-4.5586,-4.5586,-4.5586,-4.5413,-4.4605,-4.3124,-4.2896,-4.2047,-4.0489,-4.0489,-4.0489,-4.0489,-4.0489,-4.0489,-4.0489,-4.0489,-4.0489,-4.0489,-4.0489,-4.0489,-4.0489,-4.0489,-4.0489,-4.0489,-4.0489,-4.0489,-4.0489,-4.0489,-4.0489,-4.0489,-4.0489,-4.0489,-4.0489,-4.0489,-4.0356,-4.0195,-4.0195,-4.0195,-4.0195,-4.0195,-4.0339,-4.0489,-4.0489,-4.0027,-3.9738,-4.0354,-4.0008,-3.9738,-4.0354,-4.0489,-4.0239,-3.945,-3.8738,-3.8041,-3.723,0.0,0.0,0.0,-3.729,-3.8163,-3.835,-3.8926,-3.9623,-4.0412,-3.9754,-3.9695,-4.0723,-4.0902,-4.1035,-4.1191,-4.1382,-4.1947,-4.2969,-4.2207,-4.2402,-4.3691,-4.3906,-4.4336,-4.5019,-4.5879,-4.6308,-4.6308,-4.6308,-4.6308,-4.6308,-4.6308,-4.6308,-4.6308,-4.6308,-4.6308,-4.6308,-4.6308,-4.6308,-4.6308,-4.6308,-4.6308,-4.6308,-5.0356,-4.9298,-4.8105,-4.8105,-4.7432,-4.6894,-4.6817,-4.6797,-4.6797,-4.6797,-4.6797,-4.6509,-4.5682,-4.5586,-4.5586,-4.5586,-4.5586,-4.5586,-4.5586,-4.5586,-4.5586,-4.5586,-4.4837,-4.3991,-4.3124,-4.2316,-4.145,-4.0489,-4.0489,-4.0489,-4.0489,-4.0489,-4.0489,-4.0489,-4.0489,-4.0489,-4.0489,-4.0489,-4.0489,-4.0489,-4.0489,-4.0489,-4.0489,-4.0489,-4.0489,-4.0489,-4.0489,-4.0489,-4.0489,-4.0489,-4.0489,-4.0489,-4.0489,-4.0489,-4.0473,-4.0473,-4.0473,-4.0473,-4.0473,-4.0489,-4.0489,-4.0489,-4.045,-4.0431,-4.0489,-4.045,-4.0431,-4.0489,-4.0489,-4.0239,-3.945,-3.9238,-3.8941,-3.8132,0.0,0.0,-3.7919,-3.8028,-3.8389,-3.9114,-3.9273,-3.9623,-4.0412,-4.06,-4.0693,-4.08,-4.1031,-4.1172,-4.1191,-4.1914,-4.3086,-4.4766,-4.3965,-4.3574,-4.3691,-4.4492,-4.4941,-4.5019,-4.5879,-4.6308,-4.6308,-4.6308,-4.6308,-4.6308,-4.6308,-4.6308,-4.6308,-4.6308,-4.6308,-4.6308,-4.6308,-4.6308,-4.6308,-4.6308,-4.6308,-4.6308,-4.8952,-4.7721,-4.6874,-4.7913,-4.699,-4.6278,-4.6817,-4.6432,-4.6086,-4.6086,-4.6086,-4.597,-4.5624,-4.5586,-4.5586,-4.5586,-4.5586,-4.5586,-4.5586,-4.5586,-4.5586,-4.5586,-4.5278,-4.4703,-4.3857,-4.3028,-4.2178,-4.1316,-4.0758,-4.0489,-4.0489,-4.0489,-4.0489,-4.0489,-4.0489,-4.0406,-4.025,-4.0252,-4.0253,-4.0253,-4.0253,-4.0342,-4.0489,-4.0489,-4.0389,-4.0267,-4.0441,-4.0389,-4.0286,-4.0438,-4.0489,-4.0489,-4.0489,-4.0489,-4.0489,-4.0489,-4.0489,-4.0489,-4.0489,-4.0489,-4.0489,-4.0489,-4.0489,-4.0489,-4.0489,-4.0489,-4.0489,-4.0489,-4.0489,-4.0412,-4.0085,-3.9642,-3.921,-3.8901,0.0,-3.8053,-3.8034,-3.8497,-3.9143,-3.9946,-4.0027,-4.0373,-4.1219,-4.1373,-4.1239,-4.0771,-4.186,-4.2354,-4.1914,-4.3242,-4.4316,-4.498,-4.5195,-4.5312,-4.5312,-4.5098,-4.5273,-4.5801,-4.6133,-4.6308,-4.6308,-4.6308,-4.6308,-4.6308,-4.6308,-4.6308,-4.6308,-4.6308,-4.6308,-4.6308,-4.6308,-4.6308,-4.6308,-4.6308,-4.6308,-4.6308,-4.8394,-4.7163,-4.6451,-4.7855,-4.6932,-4.6201,-4.6817,-4.6394,-4.6105,-4.6355,-4.6163,-4.6009,-4.6009,-4.5759,-4.5586,-4.5586,-4.5586,-4.5586,-4.5586,-4.5586,-4.5586,-4.5586,-4.5586,-4.5201,-4.4318,-4.3508,-4.2678,-4.1797,-4.12,-4.0912,-4.0912,-4.0912,-4.0912,-4.0893,-4.054,-4.0267,-4.0081,-3.9977,-3.9949,-3.9962,-4.0074,-4.0157,-4.0215,-4.0321,-4.0194,-3.9963,-4.0138,-4.0157,-4.012,-4.0321,-4.0441,-4.0489,-4.0489,-4.0489,-4.0546,-4.0835,-4.07,-4.0489,-4.0489,-4.0489,-4.0489,-4.0489,-4.0489,-4.0489,-4.0489,-4.0489,-4.0489,-4.0489,-4.0489,-4.0489,-4.0489,-4.0258,-4.01,-4.0096,-3.9811,-3.96,-3.9595,-4.0119,-4.07,-4.1239,-4.1316,-4.1546,-4.2162,-4.222,-4.2048,-4.1577,-4.2477,-4.296,-4.2753,-4.418,-4.5137,-4.5391,-4.5996,-4.6308,-4.6308,-4.5703,-4.5703,-4.6308,-4.6308,-4.6308,-4.6308,-4.6308,-4.6308,-4.6308,-4.6308,-4.6308,-4.6308,-4.6308,-4.6308,-4.6308,-4.6308,-4.6308,-4.6308,-4.6308,-4.6308,-4.6308,-4.9067,-4.8048,-4.7163,-4.7971,-4.7432,-4.6913,-4.6913,-4.6894,-4.7182,-4.799,-4.7413,-4.6913,-4.6913,-4.6124,-4.5605,-4.5586,-4.5586,-4.5586,-4.5586,-4.5586,-4.5586,-4.5586,-4.5586,-4.5201,-4.4335,-4.3528,-4.2701,-4.1816,-4.1816,-4.1816,-4.1816,-4.1816,-4.1816,-4.1761,-4.0615,-4.012,-4.0081,-3.9754,-3.9594,-3.9633,-3.9956,-3.9908,-3.9639,-3.9956,-3.9901,-3.9599,-3.9599,-3.9819,-4.0101,-4.0101,-4.0286,-4.0489,-4.0508,-4.0508,-4.0681,-4.1546,-4.12,-4.0508,-4.0508,-4.0508,-4.0508,-4.0508,-4.0508,-4.0489,-4.0508,-4.0508,-4.0508,-4.0508,-4.0508,-4.0508,-4.0508,-4.1239,-4.1816,-4.1816,-4.2547,-4.3104,-4.3104,-4.3104,-4.3104,-4.3104,-4.3104,-4.3104,-4.3104,-4.3159,-4.3272,-4.339,-4.273,-4.271,-4.3671,-4.4531,-4.541,-4.6269,-4.6308,-4.6308,-4.6308,-4.6308,-4.6308,-4.6308,-4.6308,-4.6308,-4.6308,-4.6308,-4.6308,-4.6308,-4.6308,-4.6308,-4.6308,-4.6308,-4.6308,-4.6308,-4.6308,-4.6308,-4.6308,-4.6308,-4.6308,-4.6308,-4.7663,-4.7702,-4.7817,-4.8067,-4.7432,-4.6913,-4.6913,-4.6374,-4.6297,-4.7163,-4.7048,-4.6913,-4.6913,-4.6682,-4.6278,-4.5643,-4.5586,-4.5586,-4.5586,-4.5586,-4.5586,-4.5586,-4.5586,-4.547,-4.522,-4.4391,-4.3814,-4.3547,-4.2986,-4.2717,-4.272,-4.272,-4.2558,-4.224,-4.136,-4.0672,-4.0209,-3.9532,-3.9266,-3.9246,-3.9369,-3.9628,-3.9943,-3.981,-3.9819,-3.9943,-3.9943,-4.0022,-4.012,-4.0321,-4.0422,-4.0604,-4.1219,-4.1412,-4.1585,-4.247,-4.2527,-4.2316,-4.2316,-4.2316,-4.2181,-4.1566,-4.095,-4.0816,-4.2047,-4.1854,-4.1585,-4.22,-4.2316,-4.2316,-4.2316,-4.2547,-4.272,-4.272,-4.2931,-4.3104,-4.3104,-4.3104,-4.3316,-4.3874,-4.3431,-4.3316,-4.3893,-4.4045,-4.364,-4.2489,-4.2903,-4.3857,-4.5311,-4.5723,-4.6035,-4.6289,-4.6308,-4.6308,-4.6308,-4.6308,-4.6308,-4.6308,-4.6308,-4.6308,-4.6308,-4.6308,-4.6308,-4.6308,-4.6308,-4.6308,-4.6308,-4.6308,-4.6308,-4.6308,-4.6308,-4.6308,-4.6308,-4.6308,-4.6308,-4.6308,-4.7913,-4.8279,-4.8509,-4.8163,-4.7702,-4.7163,-4.649,-4.5932,-4.6028,-4.7221,-4.7105,-4.7163,-4.7817,-4.7298,-4.6701,-4.6163,-4.5797,-4.5586,-4.5586,-4.5586,-4.5586,-4.5586,-4.5586,-4.5586,-4.5586,-4.4739,-4.4297,-4.4314,-4.3811,-4.358,-4.3566,-4.3585,-4.3441,-4.3159,-4.2098,-4.1457,-4.1155,-4.0282,-3.9793,-3.9616,-3.9738,-3.9752,-3.9717,-3.9772,-3.984,-3.9901,-3.9901,-3.9982,-4.012,-4.0304,-4.0636,-4.1219,-4.2412,-4.2566,-4.2489,-4.3335,-4.3355,-4.3104,-4.3104,-4.3104,-4.3047,-4.2835,-4.2143,-4.1797,-4.2854,-4.2701,-4.247,-4.2989,-4.3104,-4.3104,-4.3104,-4.3355,-4.3566,-4.3566,-4.3855,-4.4085,-4.4085,-4.4085,-4.4259,-4.4759,-4.4374,-4.4278,-4.4759,-4.4891,-4.4418,-4.3156,-4.4002,-4.4885,-4.5546,-4.6041,-4.6289,-4.6211,-4.6269,-4.6308,-4.6308,-4.6308,-4.6308,-4.6308,-4.6308,-4.6308,-4.6308,-4.6308,-4.6308,-4.6308,-4.6308,-4.6308,-4.6308,-4.6308,-4.6308,-4.6308,-4.6308,-4.6308,-4.6308,-4.6308,-4.6308,-4.6308,-4.924,-4.9394,-4.9125,-4.8259,-4.8048,-4.7451,-4.5836,-4.5586,-4.6182,-4.7778,-4.7355,-4.749,-4.9009,-4.7817,-4.6874,-4.6797,-4.6067,-4.5586,-4.5586,-4.5586,-4.5586,-4.5586,-4.5586,-4.5586,-4.5586,-4.4818,-4.4414,-4.441,-4.4427,-4.4427,-4.441,-4.4414,-4.4397,-4.4303,-4.2886,-4.2356,-4.2498,-4.1491,-4.0781,-4.0354,-4.0679,-4.014,-3.9257,-3.9914,-4.0015,-3.9804,-3.9758,-4.0032,-4.0368,-4.0368,-4.1013,-4.2085,-4.3778,-4.3797,-4.3374,-4.4182,-4.3893,-4.3316,-4.3316,-4.3316,-4.3508,-4.422,-4.3874,-4.3316,-4.3316,-4.3258,-4.3239,-4.3316,-4.3316,-4.3316,-4.3316,-4.3912,-4.4412,-4.4412,-4.5066,-4.5586,-4.5586,-4.5586,-4.5586,-4.5586,-4.5586,-4.5586,-4.5586,-4.5528,-4.5306,-4.4832,-4.5529,-4.5673,-4.4947,-4.576,-4.6226,-4.6092,-4.6209,-4.6287,-4.6268,-4.6268,-4.6289,-4.6308,-4.6308,-4.6308,-4.6308,-4.6308,-4.6308,-4.6308,-4.6308,-4.6308,-4.6308,-4.6308,-4.6308,-4.6308,-4.6308,-4.6308,-4.6308,-4.6308,-4.6308,-4.6308,-4.9356,-4.9394,-4.9125,-4.8259,-4.7586,-4.6817,-4.5759,-4.5586,-4.597,-4.7028,-4.7009,-4.7048,-4.7413,-4.7124,-4.6624,-4.5932,-4.5701,-4.5586,-4.5586,-4.5586,-4.5586,-4.5586,-4.5586,-4.5586,-4.5586,-4.5413,-4.5316,-4.5334,-4.5334,-4.5334,-4.5334,-4.5316,-4.517,-4.4895,-4.3933,-4.3038,-4.2148,-4.1312,-4.0483,-3.9844,-4.0583,-4.048,-3.9943,-4.0511,-4.0973,-4.1281,-4.1035,-4.159,-4.246,-4.246,-4.2168,-4.2085,-4.3778,-4.4182,-4.4201,-4.5066,-4.5182,-4.5047,-4.5047,-4.5047,-4.5086,-4.5259,-4.5182,-4.5047,-4.5047,-4.4528,-4.422,-4.4913,-4.5047,-4.5047,-4.5047,-4.5201,-4.5316,-4.5316,-4.547,-4.5586,-4.5586,-4.5586,-4.5586,-4.5586,-4.5586,-4.5586,-4.5586,-4.5068,-4.4966,-4.5507,-4.5202,-4.5176,-4.5557,-4.5938,-4.6077,-4.5942,-4.6066,-4.6086,-4.5988,-4.5988,-4.6084,-4.6308,-4.6308,-4.6308,-4.6308,-4.6308,-4.6308,-4.6308,-4.6308,-4.6308,-4.6308,-4.6308,-4.6308,-4.6308,-4.6308,-4.6308,-4.6308,-4.6308,-4.6308,-4.6308,-4.9317,-4.9067,-4.8529,-4.7682,-4.7182,-4.6605,-4.572,-4.5586,-4.5913,-4.6797,-4.6913,-4.7048,-4.7432,-4.7144,-4.6547,-4.5682,-4.5586,-4.5586,-4.5586,-4.5586,-4.5586,-4.5586,-4.5586,-4.5586,-4.5586,-4.5586,-4.5586,-4.5586,-4.5586,-4.5586,-4.5586,-4.5586,-4.5513,-4.5303,-4.4743,-4.4221,-4.3721,-4.2972,-4.2271,-4.1692,-4.2101,-4.1873,-4.135,-4.1796,-4.2144,-4.2396,-4.2218,-4.256,-4.3162,-4.3547,-4.3374,-4.322,-4.4509,-4.4913,-4.5009,-4.547,-4.5586,-4.5586,-4.5586,-4.5586,-4.5586,-4.5586,-4.5586,-4.5586,-4.5586,-4.524,-4.5047,-4.5509,-4.5586,-4.5586,-4.5586,-4.5586,-4.5586,-4.5586,-4.5586,-4.5586,-4.5586,-4.5586,-4.5586,-4.5586,-4.5586,-4.5586,-4.5586,-4.5259,-4.524,-4.5757,-4.5448,-4.5396,-4.5771,-4.5938,-4.5954,-4.5867,-4.6003,-4.6054,-4.5887,-4.5867,-4.5933,-4.6111,-4.6175,-4.623,-4.6308,-4.6308,-4.6308,-4.6308,-4.6308,-4.6308,-4.6308,-4.6308,-4.6308,-4.6308,-4.6308,-4.6308,-4.6308,-4.6308,-4.6308,-4.6308,-4.9298,-4.8625,-4.774,-4.7028,-4.6778,-4.6432,-4.5701,-4.5586,-4.5855,-4.6586,-4.6682,-4.6932,-4.7605,-4.7086,-4.6394,-4.5663,-4.5586,-4.5586,-4.5586,-4.5586,-4.5586,-4.5586,-4.5586,-4.5586,-4.5586,-4.5586,-4.5586,-4.5586,-4.5586,-4.5586,-4.5586,-4.5586,-4.5586,-4.5586,-4.5322,-4.5265,-4.5337,-4.4779,-4.4238,-4.3778,-4.3848,-4.3401,-4.273,-4.3136,-4.3316,-4.3316,-4.3316,-4.3316,-4.3431,-4.4239,-4.4412,-4.4451,-4.5316,-4.5586,-4.5586,-4.5586,-4.5586,-4.5586,-4.5586,-4.5586,-4.5586,-4.5586,-4.5586,-4.5586,-4.5586,-4.5586,-4.5586,-4.5586,-4.5586,-4.5586,-4.5586,-4.5586,-4.5586,-4.5586,-4.5586,-4.5586,-4.5586,-4.5586,-4.5586,-4.5586,-4.5586,-4.5586,-4.5586,-4.5586,-4.5643,-4.5757,-4.5776,-4.5776,-4.5776,-4.5815,-4.5815,-4.5776,-4.593,-4.5969,-4.5853,-4.5796,-4.5815,-4.5873,-4.5998,-4.6124,-4.6269,-4.6289,-4.6308,-4.6308,-4.6308,-4.6308,-4.6308,-4.6308,-4.6308,-4.6308,-4.6308,-4.6308,-4.6308,-4.6308,-4.6308,-4.6308,-4.951,-4.8317,-4.7298,-4.6971,-4.6278,-4.574,-4.5605,-4.5586,-4.5624,-4.5759,-4.5778,-4.5817,-4.5932,-4.5836,-4.572,-4.5605,-4.5586,-4.5586,-4.5586,-4.5586,-4.5586,-4.5586,-4.5586,-4.5586,-4.5586,-4.5586,-4.5586,-4.5586,-4.5586,-4.5586,-4.5586,-4.5586,-4.5586,-4.5586,-4.555,-4.5145,-4.4468,-4.4382,-4.3901,-4.3278,-4.3955,-4.3765,-4.3113,-4.3857,-4.4143,-4.4143,-4.4143,-4.4143,-4.4259,-4.5124,-4.4913,-4.4451,-4.5316,-4.5586,-4.5586,-4.5586,-4.5586,-4.5586,-4.5586,-4.5586,-4.5586,-4.5586,-4.5586,-4.5586,-4.5586,-4.5586,-4.5586,-4.5586,-4.5586,-4.5586,-4.5586,-4.5586,-4.5586,-4.5586,-4.5586,-4.5586,-4.5586,-4.5586,-4.5586,-4.5586,-4.5586,-4.5586,-4.5586,-4.5586,-4.5605,-4.5624,-4.5624,-4.5624,-4.5624,-4.5624,-4.5624,-4.5624,-4.5643,-4.5643,-4.5624,-4.5624,-4.5699,-4.5815,-4.5835,-4.593,-4.6133,-4.625,-4.6308,-4.6308,-4.6308,-4.6308,-4.6308,-4.6308,-4.6308,-4.6308,-4.6308,-4.6308,-4.6308,-4.6308,-4.6308,-4.6308,-4.8298,-4.7201,-4.6297,-4.6182,-4.5855,-4.5586,-4.5586,-4.5586,-4.5586,-4.5586,-4.5586,-4.5586,-4.5586,-4.5586,-4.5586,-4.5586,-4.5586,-4.5586,-4.5586,-4.5586,-4.5586,-4.5586,-4.5586,-4.5586,-4.5586,-4.5586,-4.5586,-4.5586,-4.5586,-4.5586,-4.5586,-4.5586,-4.5586,-4.5586,-4.5586,-4.5391,-4.5045,-4.5028,-4.4816,-4.4528,-4.4874,-4.4816,-4.4547,-4.4893,-4.5028,-4.5028,-4.5028,-4.5028,-4.5066,-4.547,-4.5336,-4.5086,-4.547,-4.5586,-4.5586,-4.5586,-4.5586,-4.5586,-4.5586,-4.5586,-4.5586,-4.5586,-4.5586,-4.5586,-4.5586,-4.5586,-4.5586,-4.5586,-4.5586,-4.5586,-4.5586,-4.5586,-4.5586,-4.5586,-4.5586,-4.5586,-4.5586,-4.5586,-4.5586,-4.5586,-4.5586,-4.5586,-4.5586,-4.5586,-4.5586,-4.5586,-4.5586,-4.5586,-4.5586,-4.5586,-4.5586,-4.5586,-4.5586,-4.5586,-4.5586,-4.5586,-4.5624,-4.5699,-4.5757,-4.5867,-4.5982,-4.6127,-4.6191,-4.6191,-4.6269,-4.6308,-4.6308,-4.6308,-4.6308,-4.6308,-4.6308,-4.6308,-4.6308,-4.6308,-4.6308,-4.6308]}]]